<?xml version="1.0" encoding="UTF-8" standalone="no" ?>
<gpx xmlns="http://www.topografix.com/GPX/1/1" xmlns:xsi="http://www.w3.org/2001/XMLSchema-instance" xsi:schemaLocation="http://www.topografix.com/GPX/1/1 http://www.topografix.com/GPX/1/1/gpx.xsd" version="1.1" creator="VisuGPX - https://www.visugpx.com">
  <metadata>
    <name>1ère balade de Tina avec Gringo</name>
    <desc><![CDATA[Parties (Anne et moi), au départ, pour faire les étang de Hollande mais par la piste cyclable... sauf que nous avons pris celle partant à droite au lieu de celle partant à gauche !! mais au moins on n'a  évité les chemins gadoueux !!]]></desc>
  </metadata>
  <trk>
    <name><![CDATA[Balade avec Tina et Gringo]]></name>
    <trkseg>
      <trkpt lat="48.70392" lon="1.75421">
        <ele>181.60000610352</ele>
        <time>2012-12-31T09:40:51.000Z</time>
      </trkpt>
      <trkpt lat="48.70386" lon="1.75419">
        <ele>181.60000610352</ele>
        <time>2012-12-31T09:40:58.000Z</time>
      </trkpt>
      <trkpt lat="48.70378" lon="1.75422">
        <ele>181.60000610352</ele>
        <time>2012-12-31T09:41:21.000Z</time>
      </trkpt>
      <trkpt lat="48.7038" lon="1.75417">
        <ele>181.39999389648</ele>
        <time>2012-12-31T09:41:29.000Z</time>
      </trkpt>
      <trkpt lat="48.70381" lon="1.75406">
        <ele>181.19999694824</ele>
        <time>2012-12-31T09:41:42.000Z</time>
      </trkpt>
      <trkpt lat="48.70387" lon="1.75404">
        <ele>181.19999694824</ele>
        <time>2012-12-31T09:42:00.000Z</time>
      </trkpt>
      <trkpt lat="48.70394" lon="1.75409">
        <ele>181.39999389648</ele>
        <time>2012-12-31T09:42:05.000Z</time>
      </trkpt>
      <trkpt lat="48.70398" lon="1.75411">
        <ele>181.39999389648</ele>
        <time>2012-12-31T09:42:11.000Z</time>
      </trkpt>
      <trkpt lat="48.70399" lon="1.75413">
        <ele>181.60000610352</ele>
        <time>2012-12-31T09:42:20.000Z</time>
      </trkpt>
      <trkpt lat="48.70398" lon="1.7542">
        <ele>181.80000305176</ele>
        <time>2012-12-31T09:42:37.000Z</time>
      </trkpt>
      <trkpt lat="48.704" lon="1.75421">
        <ele>181.80000305176</ele>
        <time>2012-12-31T09:42:44.000Z</time>
      </trkpt>
      <trkpt lat="48.704" lon="1.75421">
        <ele>181.80000305176</ele>
        <time>2012-12-31T09:42:45.000Z</time>
      </trkpt>
      <trkpt lat="48.70429" lon="1.75432">
        <ele>181.39999389648</ele>
        <time>2012-12-31T09:44:51.000Z</time>
      </trkpt>
      <trkpt lat="48.70435" lon="1.75433">
        <ele>181.19999694824</ele>
        <time>2012-12-31T09:44:56.000Z</time>
      </trkpt>
      <trkpt lat="48.70436" lon="1.75432">
        <ele>181</ele>
        <time>2012-12-31T09:44:59.000Z</time>
      </trkpt>
      <trkpt lat="48.70458" lon="1.75453">
        <ele>180.39999389648</ele>
        <time>2012-12-31T09:45:25.000Z</time>
      </trkpt>
      <trkpt lat="48.70459" lon="1.75454">
        <ele>180.39999389648</ele>
        <time>2012-12-31T09:45:26.000Z</time>
      </trkpt>
      <trkpt lat="48.70467" lon="1.75462">
        <ele>180.39999389648</ele>
        <time>2012-12-31T09:45:33.000Z</time>
      </trkpt>
      <trkpt lat="48.70474" lon="1.75469">
        <ele>180.39999389648</ele>
        <time>2012-12-31T09:45:41.000Z</time>
      </trkpt>
      <trkpt lat="48.70478" lon="1.75471">
        <ele>180.19999694824</ele>
        <time>2012-12-31T09:45:44.000Z</time>
      </trkpt>
      <trkpt lat="48.70482" lon="1.75478">
        <ele>180.39999389648</ele>
        <time>2012-12-31T09:45:50.000Z</time>
      </trkpt>
      <trkpt lat="48.70486" lon="1.75483">
        <ele>180.60000610352</ele>
        <time>2012-12-31T09:45:55.000Z</time>
      </trkpt>
      <trkpt lat="48.70487" lon="1.75485">
        <ele>180.60000610352</ele>
        <time>2012-12-31T09:45:57.000Z</time>
      </trkpt>
      <trkpt lat="48.70494" lon="1.75493">
        <ele>180.80000305176</ele>
        <time>2012-12-31T09:46:04.000Z</time>
      </trkpt>
      <trkpt lat="48.70502" lon="1.75502">
        <ele>180.80000305176</ele>
        <time>2012-12-31T09:46:12.000Z</time>
      </trkpt>
      <trkpt lat="48.70513" lon="1.75511">
        <ele>180.39999389648</ele>
        <time>2012-12-31T09:46:19.000Z</time>
      </trkpt>
      <trkpt lat="48.70514" lon="1.75512">
        <ele>180.39999389648</ele>
        <time>2012-12-31T09:46:21.000Z</time>
      </trkpt>
      <trkpt lat="48.7052" lon="1.75519">
        <ele>180.39999389648</ele>
        <time>2012-12-31T09:46:28.000Z</time>
      </trkpt>
      <trkpt lat="48.70526" lon="1.75525">
        <ele>180.39999389648</ele>
        <time>2012-12-31T09:46:34.000Z</time>
      </trkpt>
      <trkpt lat="48.70531" lon="1.7553">
        <ele>180.39999389648</ele>
        <time>2012-12-31T09:46:39.000Z</time>
      </trkpt>
      <trkpt lat="48.70539" lon="1.75539">
        <ele>180.60000610352</ele>
        <time>2012-12-31T09:46:45.000Z</time>
      </trkpt>
      <trkpt lat="48.70544" lon="1.75545">
        <ele>180.80000305176</ele>
        <time>2012-12-31T09:46:50.000Z</time>
      </trkpt>
      <trkpt lat="48.70554" lon="1.75554">
        <ele>181</ele>
        <time>2012-12-31T09:46:58.000Z</time>
      </trkpt>
      <trkpt lat="48.70562" lon="1.75561">
        <ele>181.39999389648</ele>
        <time>2012-12-31T09:47:06.000Z</time>
      </trkpt>
      <trkpt lat="48.70568" lon="1.75567">
        <ele>181.80000305176</ele>
        <time>2012-12-31T09:47:12.000Z</time>
      </trkpt>
      <trkpt lat="48.70576" lon="1.75574">
        <ele>182.19999694824</ele>
        <time>2012-12-31T09:47:19.000Z</time>
      </trkpt>
      <trkpt lat="48.70586" lon="1.75581">
        <ele>182.39999389648</ele>
        <time>2012-12-31T09:47:26.000Z</time>
      </trkpt>
      <trkpt lat="48.70591" lon="1.75591">
        <ele>182.19999694824</ele>
        <time>2012-12-31T09:47:33.000Z</time>
      </trkpt>
      <trkpt lat="48.70595" lon="1.756">
        <ele>182.19999694824</ele>
        <time>2012-12-31T09:47:40.000Z</time>
      </trkpt>
      <trkpt lat="48.70596" lon="1.75601">
        <ele>182</ele>
        <time>2012-12-31T09:47:41.000Z</time>
      </trkpt>
      <trkpt lat="48.70601" lon="1.75612">
        <ele>181.80000305176</ele>
        <time>2012-12-31T09:47:49.000Z</time>
      </trkpt>
      <trkpt lat="48.70602" lon="1.75613">
        <ele>181.60000610352</ele>
        <time>2012-12-31T09:47:50.000Z</time>
      </trkpt>
      <trkpt lat="48.7061" lon="1.75622">
        <ele>181</ele>
        <time>2012-12-31T09:47:58.000Z</time>
      </trkpt>
      <trkpt lat="48.70616" lon="1.7563">
        <ele>180.39999389648</ele>
        <time>2012-12-31T09:48:04.000Z</time>
      </trkpt>
      <trkpt lat="48.7062" lon="1.75635">
        <ele>180</ele>
        <time>2012-12-31T09:48:08.000Z</time>
      </trkpt>
      <trkpt lat="48.70629" lon="1.75648">
        <ele>179.19999694824</ele>
        <time>2012-12-31T09:48:17.000Z</time>
      </trkpt>
      <trkpt lat="48.70637" lon="1.75658">
        <ele>178.39999389648</ele>
        <time>2012-12-31T09:48:25.000Z</time>
      </trkpt>
      <trkpt lat="48.70637" lon="1.75671">
        <ele>178.39999389648</ele>
        <time>2012-12-31T09:48:32.000Z</time>
      </trkpt>
      <trkpt lat="48.70639" lon="1.75679">
        <ele>177.80000305176</ele>
        <time>2012-12-31T09:48:37.000Z</time>
      </trkpt>
      <trkpt lat="48.70638" lon="1.75694">
        <ele>177.39999389648</ele>
        <time>2012-12-31T09:48:46.000Z</time>
      </trkpt>
      <trkpt lat="48.70636" lon="1.75702">
        <ele>177.39999389648</ele>
        <time>2012-12-31T09:48:51.000Z</time>
      </trkpt>
      <trkpt lat="48.70631" lon="1.75709">
        <ele>177.60000610352</ele>
        <time>2012-12-31T09:48:56.000Z</time>
      </trkpt>
      <trkpt lat="48.70625" lon="1.7572">
        <ele>177.60000610352</ele>
        <time>2012-12-31T09:49:04.000Z</time>
      </trkpt>
      <trkpt lat="48.70622" lon="1.75727">
        <ele>177.60000610352</ele>
        <time>2012-12-31T09:49:09.000Z</time>
      </trkpt>
      <trkpt lat="48.70618" lon="1.75734">
        <ele>177.60000610352</ele>
        <time>2012-12-31T09:49:14.000Z</time>
      </trkpt>
      <trkpt lat="48.70615" lon="1.75738">
        <ele>177.60000610352</ele>
        <time>2012-12-31T09:49:17.000Z</time>
      </trkpt>
      <trkpt lat="48.7061" lon="1.75746">
        <ele>177.39999389648</ele>
        <time>2012-12-31T09:49:23.000Z</time>
      </trkpt>
      <trkpt lat="48.70606" lon="1.75756">
        <ele>177.39999389648</ele>
        <time>2012-12-31T09:49:29.000Z</time>
      </trkpt>
      <trkpt lat="48.70603" lon="1.7576">
        <ele>177.39999389648</ele>
        <time>2012-12-31T09:49:32.000Z</time>
      </trkpt>
      <trkpt lat="48.70594" lon="1.75776">
        <ele>177.39999389648</ele>
        <time>2012-12-31T09:49:43.000Z</time>
      </trkpt>
      <trkpt lat="48.70589" lon="1.75786">
        <ele>177.39999389648</ele>
        <time>2012-12-31T09:49:50.000Z</time>
      </trkpt>
      <trkpt lat="48.70583" lon="1.75796">
        <ele>177.19999694824</ele>
        <time>2012-12-31T09:49:57.000Z</time>
      </trkpt>
      <trkpt lat="48.70579" lon="1.75806">
        <ele>177.19999694824</ele>
        <time>2012-12-31T09:50:03.000Z</time>
      </trkpt>
      <trkpt lat="48.70571" lon="1.7582">
        <ele>177.60000610352</ele>
        <time>2012-12-31T09:50:12.000Z</time>
      </trkpt>
      <trkpt lat="48.70567" lon="1.75828">
        <ele>177.60000610352</ele>
        <time>2012-12-31T09:50:17.000Z</time>
      </trkpt>
      <trkpt lat="48.70562" lon="1.75837">
        <ele>178</ele>
        <time>2012-12-31T09:50:23.000Z</time>
      </trkpt>
      <trkpt lat="48.70556" lon="1.75852">
        <ele>178.39999389648</ele>
        <time>2012-12-31T09:50:29.000Z</time>
      </trkpt>
      <trkpt lat="48.7055" lon="1.75867">
        <ele>178.80000305176</ele>
        <time>2012-12-31T09:50:35.000Z</time>
      </trkpt>
      <trkpt lat="48.70547" lon="1.75878">
        <ele>179</ele>
        <time>2012-12-31T09:50:40.000Z</time>
      </trkpt>
      <trkpt lat="48.70542" lon="1.7589">
        <ele>179.19999694824</ele>
        <time>2012-12-31T09:50:48.000Z</time>
      </trkpt>
      <trkpt lat="48.70541" lon="1.75892">
        <ele>179.19999694824</ele>
        <time>2012-12-31T09:50:50.000Z</time>
      </trkpt>
      <trkpt lat="48.70537" lon="1.75902">
        <ele>179.39999389648</ele>
        <time>2012-12-31T09:50:55.000Z</time>
      </trkpt>
      <trkpt lat="48.70532" lon="1.75911">
        <ele>179.60000610352</ele>
        <time>2012-12-31T09:51:01.000Z</time>
      </trkpt>
      <trkpt lat="48.70527" lon="1.7592">
        <ele>179.80000305176</ele>
        <time>2012-12-31T09:51:08.000Z</time>
      </trkpt>
      <trkpt lat="48.70519" lon="1.75929">
        <ele>180</ele>
        <time>2012-12-31T09:51:16.000Z</time>
      </trkpt>
      <trkpt lat="48.70513" lon="1.75938">
        <ele>180</ele>
        <time>2012-12-31T09:51:23.000Z</time>
      </trkpt>
      <trkpt lat="48.7051" lon="1.75945">
        <ele>179.80000305176</ele>
        <time>2012-12-31T09:51:26.000Z</time>
      </trkpt>
      <trkpt lat="48.70504" lon="1.75953">
        <ele>179.80000305176</ele>
        <time>2012-12-31T09:51:32.000Z</time>
      </trkpt>
      <trkpt lat="48.70494" lon="1.75969">
        <ele>179.60000610352</ele>
        <time>2012-12-31T09:51:41.000Z</time>
      </trkpt>
      <trkpt lat="48.70488" lon="1.75987">
        <ele>179</ele>
        <time>2012-12-31T09:51:50.000Z</time>
      </trkpt>
      <trkpt lat="48.70483" lon="1.76003">
        <ele>178.39999389648</ele>
        <time>2012-12-31T09:51:58.000Z</time>
      </trkpt>
      <trkpt lat="48.70478" lon="1.76024">
        <ele>177.39999389648</ele>
        <time>2012-12-31T09:52:08.000Z</time>
      </trkpt>
      <trkpt lat="48.70476" lon="1.76038">
        <ele>176.60000610352</ele>
        <time>2012-12-31T09:52:15.000Z</time>
      </trkpt>
      <trkpt lat="48.70473" lon="1.76048">
        <ele>176.19999694824</ele>
        <time>2012-12-31T09:52:21.000Z</time>
      </trkpt>
      <trkpt lat="48.70472" lon="1.76056">
        <ele>175.80000305176</ele>
        <time>2012-12-31T09:52:27.000Z</time>
      </trkpt>
      <trkpt lat="48.70468" lon="1.7607">
        <ele>175.19999694824</ele>
        <time>2012-12-31T09:52:35.000Z</time>
      </trkpt>
      <trkpt lat="48.70465" lon="1.76084">
        <ele>174.60000610352</ele>
        <time>2012-12-31T09:52:42.000Z</time>
      </trkpt>
      <trkpt lat="48.70462" lon="1.76099">
        <ele>174.60000610352</ele>
        <time>2012-12-31T09:52:49.000Z</time>
      </trkpt>
      <trkpt lat="48.70457" lon="1.7611">
        <ele>174.60000610352</ele>
        <time>2012-12-31T09:52:57.000Z</time>
      </trkpt>
      <trkpt lat="48.70456" lon="1.76113">
        <ele>174.60000610352</ele>
        <time>2012-12-31T09:52:59.000Z</time>
      </trkpt>
      <trkpt lat="48.70454" lon="1.76129">
        <ele>174.60000610352</ele>
        <time>2012-12-31T09:53:05.000Z</time>
      </trkpt>
      <trkpt lat="48.70454" lon="1.76143">
        <ele>174.39999389648</ele>
        <time>2012-12-31T09:53:10.000Z</time>
      </trkpt>
      <trkpt lat="48.70454" lon="1.76161">
        <ele>174.19999694824</ele>
        <time>2012-12-31T09:53:18.000Z</time>
      </trkpt>
      <trkpt lat="48.70455" lon="1.76175">
        <ele>173.80000305176</ele>
        <time>2012-12-31T09:53:26.000Z</time>
      </trkpt>
      <trkpt lat="48.70454" lon="1.76189">
        <ele>173.60000610352</ele>
        <time>2012-12-31T09:53:33.000Z</time>
      </trkpt>
      <trkpt lat="48.70455" lon="1.76204">
        <ele>173.19999694824</ele>
        <time>2012-12-31T09:53:41.000Z</time>
      </trkpt>
      <trkpt lat="48.70457" lon="1.7622">
        <ele>172.60000610352</ele>
        <time>2012-12-31T09:53:49.000Z</time>
      </trkpt>
      <trkpt lat="48.70457" lon="1.76223">
        <ele>172.60000610352</ele>
        <time>2012-12-31T09:53:51.000Z</time>
      </trkpt>
      <trkpt lat="48.70457" lon="1.76238">
        <ele>172.19999694824</ele>
        <time>2012-12-31T09:53:58.000Z</time>
      </trkpt>
      <trkpt lat="48.70455" lon="1.7625">
        <ele>172</ele>
        <time>2012-12-31T09:54:04.000Z</time>
      </trkpt>
      <trkpt lat="48.7045" lon="1.76261">
        <ele>172.39999389648</ele>
        <time>2012-12-31T09:54:10.000Z</time>
      </trkpt>
      <trkpt lat="48.70448" lon="1.76273">
        <ele>172.39999389648</ele>
        <time>2012-12-31T09:54:16.000Z</time>
      </trkpt>
      <trkpt lat="48.70447" lon="1.76293">
        <ele>172.60000610352</ele>
        <time>2012-12-31T09:54:24.000Z</time>
      </trkpt>
      <trkpt lat="48.70446" lon="1.763">
        <ele>172.80000305176</ele>
        <time>2012-12-31T09:54:27.000Z</time>
      </trkpt>
      <trkpt lat="48.70445" lon="1.7631">
        <ele>172.80000305176</ele>
        <time>2012-12-31T09:54:32.000Z</time>
      </trkpt>
      <trkpt lat="48.70447" lon="1.76319">
        <ele>172.80000305176</ele>
        <time>2012-12-31T09:54:37.000Z</time>
      </trkpt>
      <trkpt lat="48.7045" lon="1.76335">
        <ele>172.80000305176</ele>
        <time>2012-12-31T09:54:45.000Z</time>
      </trkpt>
      <trkpt lat="48.70451" lon="1.76342">
        <ele>173</ele>
        <time>2012-12-31T09:54:48.000Z</time>
      </trkpt>
      <trkpt lat="48.70453" lon="1.76351">
        <ele>173.39999389648</ele>
        <time>2012-12-31T09:54:53.000Z</time>
      </trkpt>
      <trkpt lat="48.70453" lon="1.76357">
        <ele>173.80000305176</ele>
        <time>2012-12-31T09:54:57.000Z</time>
      </trkpt>
      <trkpt lat="48.70456" lon="1.76367">
        <ele>174.19999694824</ele>
        <time>2012-12-31T09:55:04.000Z</time>
      </trkpt>
      <trkpt lat="48.70457" lon="1.76369">
        <ele>174.19999694824</ele>
        <time>2012-12-31T09:55:05.000Z</time>
      </trkpt>
      <trkpt lat="48.70458" lon="1.76381">
        <ele>174.60000610352</ele>
        <time>2012-12-31T09:55:12.000Z</time>
      </trkpt>
      <trkpt lat="48.70459" lon="1.76384">
        <ele>174.80000305176</ele>
        <time>2012-12-31T09:55:14.000Z</time>
      </trkpt>
      <trkpt lat="48.70463" lon="1.76403">
        <ele>175.60000610352</ele>
        <time>2012-12-31T09:55:20.000Z</time>
      </trkpt>
      <trkpt lat="48.70463" lon="1.76418">
        <ele>176.19999694824</ele>
        <time>2012-12-31T09:55:26.000Z</time>
      </trkpt>
      <trkpt lat="48.70461" lon="1.76432">
        <ele>176.60000610352</ele>
        <time>2012-12-31T09:55:33.000Z</time>
      </trkpt>
      <trkpt lat="48.7046" lon="1.76444">
        <ele>177</ele>
        <time>2012-12-31T09:55:39.000Z</time>
      </trkpt>
      <trkpt lat="48.70459" lon="1.76453">
        <ele>177.19999694824</ele>
        <time>2012-12-31T09:55:44.000Z</time>
      </trkpt>
      <trkpt lat="48.70456" lon="1.76469">
        <ele>177.80000305176</ele>
        <time>2012-12-31T09:55:50.000Z</time>
      </trkpt>
      <trkpt lat="48.70452" lon="1.76481">
        <ele>178.39999389648</ele>
        <time>2012-12-31T09:55:56.000Z</time>
      </trkpt>
      <trkpt lat="48.70451" lon="1.76492">
        <ele>178.60000610352</ele>
        <time>2012-12-31T09:56:01.000Z</time>
      </trkpt>
      <trkpt lat="48.70448" lon="1.76503">
        <ele>179</ele>
        <time>2012-12-31T09:56:08.000Z</time>
      </trkpt>
      <trkpt lat="48.70445" lon="1.76518">
        <ele>179.19999694824</ele>
        <time>2012-12-31T09:56:15.000Z</time>
      </trkpt>
      <trkpt lat="48.70442" lon="1.76534">
        <ele>179.39999389648</ele>
        <time>2012-12-31T09:56:23.000Z</time>
      </trkpt>
      <trkpt lat="48.70439" lon="1.76549">
        <ele>179.80000305176</ele>
        <time>2012-12-31T09:56:32.000Z</time>
      </trkpt>
      <trkpt lat="48.70436" lon="1.76565">
        <ele>180</ele>
        <time>2012-12-31T09:56:41.000Z</time>
      </trkpt>
      <trkpt lat="48.70432" lon="1.76573">
        <ele>180.19999694824</ele>
        <time>2012-12-31T09:56:45.000Z</time>
      </trkpt>
      <trkpt lat="48.70423" lon="1.76582">
        <ele>180.60000610352</ele>
        <time>2012-12-31T09:56:53.000Z</time>
      </trkpt>
      <trkpt lat="48.70414" lon="1.76587">
        <ele>180.80000305176</ele>
        <time>2012-12-31T09:57:00.000Z</time>
      </trkpt>
      <trkpt lat="48.70404" lon="1.76592">
        <ele>180.39999389648</ele>
        <time>2012-12-31T09:57:08.000Z</time>
      </trkpt>
      <trkpt lat="48.70402" lon="1.76594">
        <ele>180.39999389648</ele>
        <time>2012-12-31T09:57:10.000Z</time>
      </trkpt>
      <trkpt lat="48.7039" lon="1.76601">
        <ele>180</ele>
        <time>2012-12-31T09:57:18.000Z</time>
      </trkpt>
      <trkpt lat="48.7038" lon="1.76608">
        <ele>179.80000305176</ele>
        <time>2012-12-31T09:57:26.000Z</time>
      </trkpt>
      <trkpt lat="48.70373" lon="1.76612">
        <ele>179.60000610352</ele>
        <time>2012-12-31T09:57:31.000Z</time>
      </trkpt>
      <trkpt lat="48.70361" lon="1.76617">
        <ele>179.19999694824</ele>
        <time>2012-12-31T09:57:40.000Z</time>
      </trkpt>
      <trkpt lat="48.70356" lon="1.7662">
        <ele>179</ele>
        <time>2012-12-31T09:57:44.000Z</time>
      </trkpt>
      <trkpt lat="48.7035" lon="1.76624">
        <ele>178.80000305176</ele>
        <time>2012-12-31T09:57:49.000Z</time>
      </trkpt>
      <trkpt lat="48.70342" lon="1.76629">
        <ele>178.60000610352</ele>
        <time>2012-12-31T09:57:56.000Z</time>
      </trkpt>
      <trkpt lat="48.70334" lon="1.76635">
        <ele>178.19999694824</ele>
        <time>2012-12-31T09:58:03.000Z</time>
      </trkpt>
      <trkpt lat="48.70329" lon="1.76645">
        <ele>178.19999694824</ele>
        <time>2012-12-31T09:58:10.000Z</time>
      </trkpt>
      <trkpt lat="48.70327" lon="1.76656">
        <ele>178.19999694824</ele>
        <time>2012-12-31T09:58:17.000Z</time>
      </trkpt>
      <trkpt lat="48.70327" lon="1.76673">
        <ele>178</ele>
        <time>2012-12-31T09:58:27.000Z</time>
      </trkpt>
      <trkpt lat="48.70329" lon="1.7669">
        <ele>178</ele>
        <time>2012-12-31T09:58:37.000Z</time>
      </trkpt>
      <trkpt lat="48.70329" lon="1.76695">
        <ele>178</ele>
        <time>2012-12-31T09:58:40.000Z</time>
      </trkpt>
      <trkpt lat="48.7033" lon="1.76703">
        <ele>178</ele>
        <time>2012-12-31T09:58:45.000Z</time>
      </trkpt>
      <trkpt lat="48.70329" lon="1.76707">
        <ele>178</ele>
        <time>2012-12-31T09:58:47.000Z</time>
      </trkpt>
      <trkpt lat="48.70329" lon="1.76712">
        <ele>178</ele>
        <time>2012-12-31T09:58:50.000Z</time>
      </trkpt>
      <trkpt lat="48.7033" lon="1.76724">
        <ele>178</ele>
        <time>2012-12-31T09:58:56.000Z</time>
      </trkpt>
      <trkpt lat="48.70329" lon="1.76739">
        <ele>178</ele>
        <time>2012-12-31T09:59:03.000Z</time>
      </trkpt>
      <trkpt lat="48.7033" lon="1.76757">
        <ele>178</ele>
        <time>2012-12-31T09:59:12.000Z</time>
      </trkpt>
      <trkpt lat="48.7033" lon="1.76773">
        <ele>178.19999694824</ele>
        <time>2012-12-31T09:59:18.000Z</time>
      </trkpt>
      <trkpt lat="48.7033" lon="1.76776">
        <ele>178.19999694824</ele>
        <time>2012-12-31T09:59:20.000Z</time>
      </trkpt>
      <trkpt lat="48.7033" lon="1.76784">
        <ele>178.39999389648</ele>
        <time>2012-12-31T09:59:24.000Z</time>
      </trkpt>
      <trkpt lat="48.7033" lon="1.76805">
        <ele>178.60000610352</ele>
        <time>2012-12-31T09:59:35.000Z</time>
      </trkpt>
      <trkpt lat="48.7033" lon="1.76818">
        <ele>178.80000305176</ele>
        <time>2012-12-31T09:59:41.000Z</time>
      </trkpt>
      <trkpt lat="48.70331" lon="1.76833">
        <ele>178.80000305176</ele>
        <time>2012-12-31T09:59:48.000Z</time>
      </trkpt>
      <trkpt lat="48.70332" lon="1.76847">
        <ele>179</ele>
        <time>2012-12-31T09:59:54.000Z</time>
      </trkpt>
      <trkpt lat="48.70332" lon="1.76864">
        <ele>179.19999694824</ele>
        <time>2012-12-31T10:00:02.000Z</time>
      </trkpt>
      <trkpt lat="48.70332" lon="1.76882">
        <ele>179.39999389648</ele>
        <time>2012-12-31T10:00:11.000Z</time>
      </trkpt>
      <trkpt lat="48.70333" lon="1.76889">
        <ele>179.60000610352</ele>
        <time>2012-12-31T10:00:15.000Z</time>
      </trkpt>
      <trkpt lat="48.70334" lon="1.76904">
        <ele>179.80000305176</ele>
        <time>2012-12-31T10:00:23.000Z</time>
      </trkpt>
      <trkpt lat="48.70335" lon="1.76917">
        <ele>180</ele>
        <time>2012-12-31T10:00:30.000Z</time>
      </trkpt>
      <trkpt lat="48.70336" lon="1.76929">
        <ele>180.19999694824</ele>
        <time>2012-12-31T10:00:36.000Z</time>
      </trkpt>
      <trkpt lat="48.70337" lon="1.76941">
        <ele>180.60000610352</ele>
        <time>2012-12-31T10:00:42.000Z</time>
      </trkpt>
      <trkpt lat="48.70339" lon="1.76956">
        <ele>180.80000305176</ele>
        <time>2012-12-31T10:00:50.000Z</time>
      </trkpt>
      <trkpt lat="48.70339" lon="1.76961">
        <ele>181</ele>
        <time>2012-12-31T10:00:53.000Z</time>
      </trkpt>
      <trkpt lat="48.70339" lon="1.7697">
        <ele>181</ele>
        <time>2012-12-31T10:00:59.000Z</time>
      </trkpt>
      <trkpt lat="48.70339" lon="1.7698">
        <ele>181.19999694824</ele>
        <time>2012-12-31T10:01:05.000Z</time>
      </trkpt>
      <trkpt lat="48.7034" lon="1.76993">
        <ele>181.39999389648</ele>
        <time>2012-12-31T10:01:13.000Z</time>
      </trkpt>
      <trkpt lat="48.7034" lon="1.76996">
        <ele>181.60000610352</ele>
        <time>2012-12-31T10:01:15.000Z</time>
      </trkpt>
      <trkpt lat="48.70341" lon="1.77006">
        <ele>181.60000610352</ele>
        <time>2012-12-31T10:01:21.000Z</time>
      </trkpt>
      <trkpt lat="48.70342" lon="1.77023">
        <ele>181.39999389648</ele>
        <time>2012-12-31T10:01:32.000Z</time>
      </trkpt>
      <trkpt lat="48.70342" lon="1.77028">
        <ele>181.39999389648</ele>
        <time>2012-12-31T10:01:35.000Z</time>
      </trkpt>
      <trkpt lat="48.70344" lon="1.77044">
        <ele>181.39999389648</ele>
        <time>2012-12-31T10:01:45.000Z</time>
      </trkpt>
      <trkpt lat="48.70344" lon="1.77046">
        <ele>181.39999389648</ele>
        <time>2012-12-31T10:01:46.000Z</time>
      </trkpt>
      <trkpt lat="48.70347" lon="1.77058">
        <ele>181.19999694824</ele>
        <time>2012-12-31T10:01:54.000Z</time>
      </trkpt>
      <trkpt lat="48.70347" lon="1.77065">
        <ele>181.19999694824</ele>
        <time>2012-12-31T10:01:58.000Z</time>
      </trkpt>
      <trkpt lat="48.70349" lon="1.77075">
        <ele>181.19999694824</ele>
        <time>2012-12-31T10:02:05.000Z</time>
      </trkpt>
      <trkpt lat="48.70351" lon="1.77093">
        <ele>181</ele>
        <time>2012-12-31T10:02:15.000Z</time>
      </trkpt>
      <trkpt lat="48.70352" lon="1.77115">
        <ele>181</ele>
        <time>2012-12-31T10:02:26.000Z</time>
      </trkpt>
      <trkpt lat="48.70355" lon="1.77134">
        <ele>181</ele>
        <time>2012-12-31T10:02:36.000Z</time>
      </trkpt>
      <trkpt lat="48.70357" lon="1.77151">
        <ele>181</ele>
        <time>2012-12-31T10:02:46.000Z</time>
      </trkpt>
      <trkpt lat="48.70357" lon="1.77172">
        <ele>181</ele>
        <time>2012-12-31T10:02:56.000Z</time>
      </trkpt>
      <trkpt lat="48.70359" lon="1.77187">
        <ele>180.80000305176</ele>
        <time>2012-12-31T10:03:04.000Z</time>
      </trkpt>
      <trkpt lat="48.7036" lon="1.77204">
        <ele>180.60000610352</ele>
        <time>2012-12-31T10:03:14.000Z</time>
      </trkpt>
      <trkpt lat="48.70361" lon="1.77224">
        <ele>180.39999389648</ele>
        <time>2012-12-31T10:03:25.000Z</time>
      </trkpt>
      <trkpt lat="48.70364" lon="1.77244">
        <ele>180.39999389648</ele>
        <time>2012-12-31T10:03:36.000Z</time>
      </trkpt>
      <trkpt lat="48.70366" lon="1.77263">
        <ele>180.60000610352</ele>
        <time>2012-12-31T10:03:46.000Z</time>
      </trkpt>
      <trkpt lat="48.70368" lon="1.77277">
        <ele>180.80000305176</ele>
        <time>2012-12-31T10:03:53.000Z</time>
      </trkpt>
      <trkpt lat="48.7037" lon="1.7729">
        <ele>181</ele>
        <time>2012-12-31T10:04:00.000Z</time>
      </trkpt>
      <trkpt lat="48.70372" lon="1.77302">
        <ele>181.19999694824</ele>
        <time>2012-12-31T10:04:07.000Z</time>
      </trkpt>
      <trkpt lat="48.70376" lon="1.77313">
        <ele>181.60000610352</ele>
        <time>2012-12-31T10:04:14.000Z</time>
      </trkpt>
      <trkpt lat="48.70377" lon="1.77319">
        <ele>181.60000610352</ele>
        <time>2012-12-31T10:04:18.000Z</time>
      </trkpt>
      <trkpt lat="48.7038" lon="1.77326">
        <ele>181.80000305176</ele>
        <time>2012-12-31T10:04:23.000Z</time>
      </trkpt>
      <trkpt lat="48.70384" lon="1.77337">
        <ele>182.19999694824</ele>
        <time>2012-12-31T10:04:30.000Z</time>
      </trkpt>
      <trkpt lat="48.70386" lon="1.77348">
        <ele>182.60000610352</ele>
        <time>2012-12-31T10:04:36.000Z</time>
      </trkpt>
      <trkpt lat="48.70389" lon="1.77363">
        <ele>183</ele>
        <time>2012-12-31T10:04:43.000Z</time>
      </trkpt>
      <trkpt lat="48.70395" lon="1.77377">
        <ele>183.39999389648</ele>
        <time>2012-12-31T10:04:51.000Z</time>
      </trkpt>
      <trkpt lat="48.70398" lon="1.77385">
        <ele>183.60000610352</ele>
        <time>2012-12-31T10:04:56.000Z</time>
      </trkpt>
      <trkpt lat="48.70402" lon="1.77393">
        <ele>183.80000305176</ele>
        <time>2012-12-31T10:05:02.000Z</time>
      </trkpt>
      <trkpt lat="48.70406" lon="1.77411">
        <ele>184</ele>
        <time>2012-12-31T10:05:10.000Z</time>
      </trkpt>
      <trkpt lat="48.7041" lon="1.77424">
        <ele>184.19999694824</ele>
        <time>2012-12-31T10:05:15.000Z</time>
      </trkpt>
      <trkpt lat="48.7041" lon="1.77425">
        <ele>184.19999694824</ele>
        <time>2012-12-31T10:05:18.000Z</time>
      </trkpt>
      <trkpt lat="48.70412" lon="1.77429">
        <ele>184.39999389648</ele>
        <time>2012-12-31T10:05:23.000Z</time>
      </trkpt>
      <trkpt lat="48.70419" lon="1.77451">
        <ele>184.60000610352</ele>
        <time>2012-12-31T10:05:27.000Z</time>
      </trkpt>
      <trkpt lat="48.70432" lon="1.77485">
        <ele>185</ele>
        <time>2012-12-31T10:05:35.000Z</time>
      </trkpt>
      <trkpt lat="48.7044" lon="1.77513">
        <ele>185.39999389648</ele>
        <time>2012-12-31T10:05:41.000Z</time>
      </trkpt>
      <trkpt lat="48.70447" lon="1.77539">
        <ele>185.60000610352</ele>
        <time>2012-12-31T10:05:47.000Z</time>
      </trkpt>
      <trkpt lat="48.70456" lon="1.77561">
        <ele>186</ele>
        <time>2012-12-31T10:05:53.000Z</time>
      </trkpt>
      <trkpt lat="48.70463" lon="1.77579">
        <ele>186.19999694824</ele>
        <time>2012-12-31T10:05:58.000Z</time>
      </trkpt>
      <trkpt lat="48.7047" lon="1.77606">
        <ele>186</ele>
        <time>2012-12-31T10:06:05.000Z</time>
      </trkpt>
      <trkpt lat="48.70479" lon="1.77632">
        <ele>185.80000305176</ele>
        <time>2012-12-31T10:06:12.000Z</time>
      </trkpt>
      <trkpt lat="48.70486" lon="1.77656">
        <ele>185.39999389648</ele>
        <time>2012-12-31T10:06:18.000Z</time>
      </trkpt>
      <trkpt lat="48.70494" lon="1.7768">
        <ele>185.39999389648</ele>
        <time>2012-12-31T10:06:24.000Z</time>
      </trkpt>
      <trkpt lat="48.705" lon="1.77701">
        <ele>185.80000305176</ele>
        <time>2012-12-31T10:06:29.000Z</time>
      </trkpt>
      <trkpt lat="48.70508" lon="1.77722">
        <ele>186</ele>
        <time>2012-12-31T10:06:34.000Z</time>
      </trkpt>
      <trkpt lat="48.70517" lon="1.77748">
        <ele>186.39999389648</ele>
        <time>2012-12-31T10:06:40.000Z</time>
      </trkpt>
      <trkpt lat="48.70526" lon="1.77769">
        <ele>186.60000610352</ele>
        <time>2012-12-31T10:06:46.000Z</time>
      </trkpt>
      <trkpt lat="48.70534" lon="1.77789">
        <ele>186.60000610352</ele>
        <time>2012-12-31T10:06:52.000Z</time>
      </trkpt>
      <trkpt lat="48.70542" lon="1.77813">
        <ele>186.60000610352</ele>
        <time>2012-12-31T10:06:58.000Z</time>
      </trkpt>
      <trkpt lat="48.70548" lon="1.77831">
        <ele>186.80000305176</ele>
        <time>2012-12-31T10:07:03.000Z</time>
      </trkpt>
      <trkpt lat="48.70554" lon="1.77849">
        <ele>186.39999389648</ele>
        <time>2012-12-31T10:07:08.000Z</time>
      </trkpt>
      <trkpt lat="48.70559" lon="1.77873">
        <ele>186</ele>
        <time>2012-12-31T10:07:14.000Z</time>
      </trkpt>
      <trkpt lat="48.70569" lon="1.779">
        <ele>185.39999389648</ele>
        <time>2012-12-31T10:07:21.000Z</time>
      </trkpt>
      <trkpt lat="48.70578" lon="1.77927">
        <ele>185.19999694824</ele>
        <time>2012-12-31T10:07:27.000Z</time>
      </trkpt>
      <trkpt lat="48.70587" lon="1.77953">
        <ele>185.80000305176</ele>
        <time>2012-12-31T10:07:34.000Z</time>
      </trkpt>
      <trkpt lat="48.70593" lon="1.77976">
        <ele>186.19999694824</ele>
        <time>2012-12-31T10:07:39.000Z</time>
      </trkpt>
      <trkpt lat="48.706" lon="1.77995">
        <ele>186.39999389648</ele>
        <time>2012-12-31T10:07:43.000Z</time>
      </trkpt>
      <trkpt lat="48.7061" lon="1.78021">
        <ele>186.19999694824</ele>
        <time>2012-12-31T10:07:49.000Z</time>
      </trkpt>
      <trkpt lat="48.7062" lon="1.78052">
        <ele>185.80000305176</ele>
        <time>2012-12-31T10:07:56.000Z</time>
      </trkpt>
      <trkpt lat="48.70629" lon="1.78078">
        <ele>185.19999694824</ele>
        <time>2012-12-31T10:08:02.000Z</time>
      </trkpt>
      <trkpt lat="48.70641" lon="1.78102">
        <ele>184.80000305176</ele>
        <time>2012-12-31T10:08:08.000Z</time>
      </trkpt>
      <trkpt lat="48.70645" lon="1.7812">
        <ele>184.60000610352</ele>
        <time>2012-12-31T10:08:12.000Z</time>
      </trkpt>
      <trkpt lat="48.70655" lon="1.78145">
        <ele>184.39999389648</ele>
        <time>2012-12-31T10:08:18.000Z</time>
      </trkpt>
      <trkpt lat="48.70662" lon="1.78178">
        <ele>184.39999389648</ele>
        <time>2012-12-31T10:08:25.000Z</time>
      </trkpt>
      <trkpt lat="48.70669" lon="1.78199">
        <ele>184.60000610352</ele>
        <time>2012-12-31T10:08:30.000Z</time>
      </trkpt>
      <trkpt lat="48.70677" lon="1.78224">
        <ele>184.80000305176</ele>
        <time>2012-12-31T10:08:36.000Z</time>
      </trkpt>
      <trkpt lat="48.70684" lon="1.78243">
        <ele>185</ele>
        <time>2012-12-31T10:08:41.000Z</time>
      </trkpt>
      <trkpt lat="48.70693" lon="1.78265">
        <ele>184.60000610352</ele>
        <time>2012-12-31T10:08:47.000Z</time>
      </trkpt>
      <trkpt lat="48.70702" lon="1.78288">
        <ele>184</ele>
        <time>2012-12-31T10:08:53.000Z</time>
      </trkpt>
      <trkpt lat="48.70711" lon="1.78314">
        <ele>183.39999389648</ele>
        <time>2012-12-31T10:09:00.000Z</time>
      </trkpt>
      <trkpt lat="48.70716" lon="1.78334">
        <ele>183.19999694824</ele>
        <time>2012-12-31T10:09:05.000Z</time>
      </trkpt>
      <trkpt lat="48.70722" lon="1.78353">
        <ele>183.60000610352</ele>
        <time>2012-12-31T10:09:10.000Z</time>
      </trkpt>
      <trkpt lat="48.70728" lon="1.78377">
        <ele>184.19999694824</ele>
        <time>2012-12-31T10:09:16.000Z</time>
      </trkpt>
      <trkpt lat="48.70735" lon="1.78401">
        <ele>184.80000305176</ele>
        <time>2012-12-31T10:09:22.000Z</time>
      </trkpt>
      <trkpt lat="48.70743" lon="1.78428">
        <ele>185.19999694824</ele>
        <time>2012-12-31T10:09:28.000Z</time>
      </trkpt>
      <trkpt lat="48.70753" lon="1.78455">
        <ele>184.80000305176</ele>
        <time>2012-12-31T10:09:35.000Z</time>
      </trkpt>
      <trkpt lat="48.70764" lon="1.78487">
        <ele>184</ele>
        <time>2012-12-31T10:09:43.000Z</time>
      </trkpt>
      <trkpt lat="48.70776" lon="1.7852">
        <ele>183</ele>
        <time>2012-12-31T10:09:51.000Z</time>
      </trkpt>
      <trkpt lat="48.70783" lon="1.78539">
        <ele>182</ele>
        <time>2012-12-31T10:09:56.000Z</time>
      </trkpt>
      <trkpt lat="48.70795" lon="1.78568">
        <ele>180.39999389648</ele>
        <time>2012-12-31T10:10:04.000Z</time>
      </trkpt>
      <trkpt lat="48.70798" lon="1.78578">
        <ele>180</ele>
        <time>2012-12-31T10:10:11.000Z</time>
      </trkpt>
      <trkpt lat="48.70802" lon="1.78588">
        <ele>179.80000305176</ele>
        <time>2012-12-31T10:10:17.000Z</time>
      </trkpt>
      <trkpt lat="48.70802" lon="1.786">
        <ele>180.39999389648</ele>
        <time>2012-12-31T10:10:24.000Z</time>
      </trkpt>
      <trkpt lat="48.70801" lon="1.78606">
        <ele>180.80000305176</ele>
        <time>2012-12-31T10:10:27.000Z</time>
      </trkpt>
      <trkpt lat="48.70799" lon="1.78613">
        <ele>181.39999389648</ele>
        <time>2012-12-31T10:10:31.000Z</time>
      </trkpt>
      <trkpt lat="48.708" lon="1.78628">
        <ele>182</ele>
        <time>2012-12-31T10:10:39.000Z</time>
      </trkpt>
      <trkpt lat="48.70805" lon="1.78641">
        <ele>182.19999694824</ele>
        <time>2012-12-31T10:10:48.000Z</time>
      </trkpt>
      <trkpt lat="48.70806" lon="1.78643">
        <ele>182.39999389648</ele>
        <time>2012-12-31T10:10:49.000Z</time>
      </trkpt>
      <trkpt lat="48.70805" lon="1.78653">
        <ele>183</ele>
        <time>2012-12-31T10:10:56.000Z</time>
      </trkpt>
      <trkpt lat="48.70805" lon="1.78659">
        <ele>183.19999694824</ele>
        <time>2012-12-31T10:11:00.000Z</time>
      </trkpt>
      <trkpt lat="48.70803" lon="1.78666">
        <ele>183.80000305176</ele>
        <time>2012-12-31T10:11:05.000Z</time>
      </trkpt>
      <trkpt lat="48.70802" lon="1.78669">
        <ele>184</ele>
        <time>2012-12-31T10:11:07.000Z</time>
      </trkpt>
      <trkpt lat="48.70799" lon="1.78678">
        <ele>184.39999389648</ele>
        <time>2012-12-31T10:11:13.000Z</time>
      </trkpt>
      <trkpt lat="48.70799" lon="1.78688">
        <ele>184.60000610352</ele>
        <time>2012-12-31T10:11:18.000Z</time>
      </trkpt>
      <trkpt lat="48.70796" lon="1.78699">
        <ele>185.19999694824</ele>
        <time>2012-12-31T10:11:26.000Z</time>
      </trkpt>
      <trkpt lat="48.70795" lon="1.78704">
        <ele>185.39999389648</ele>
        <time>2012-12-31T10:11:29.000Z</time>
      </trkpt>
      <trkpt lat="48.70792" lon="1.78708">
        <ele>185.60000610352</ele>
        <time>2012-12-31T10:11:33.000Z</time>
      </trkpt>
      <trkpt lat="48.7079" lon="1.78716">
        <ele>186</ele>
        <time>2012-12-31T10:11:37.000Z</time>
      </trkpt>
      <trkpt lat="48.70787" lon="1.78722">
        <ele>186.19999694824</ele>
        <time>2012-12-31T10:11:41.000Z</time>
      </trkpt>
      <trkpt lat="48.70782" lon="1.78731">
        <ele>186.80000305176</ele>
        <time>2012-12-31T10:11:47.000Z</time>
      </trkpt>
      <trkpt lat="48.70781" lon="1.78733">
        <ele>186.80000305176</ele>
        <time>2012-12-31T10:11:48.000Z</time>
      </trkpt>
      <trkpt lat="48.70776" lon="1.78744">
        <ele>187.19999694824</ele>
        <time>2012-12-31T10:11:54.000Z</time>
      </trkpt>
      <trkpt lat="48.70771" lon="1.78755">
        <ele>187.60000610352</ele>
        <time>2012-12-31T10:12:01.000Z</time>
      </trkpt>
      <trkpt lat="48.70769" lon="1.78763">
        <ele>187.60000610352</ele>
        <time>2012-12-31T10:12:05.000Z</time>
      </trkpt>
      <trkpt lat="48.70765" lon="1.78774">
        <ele>187.80000305176</ele>
        <time>2012-12-31T10:12:12.000Z</time>
      </trkpt>
      <trkpt lat="48.7076" lon="1.78781">
        <ele>188</ele>
        <time>2012-12-31T10:12:17.000Z</time>
      </trkpt>
      <trkpt lat="48.70761" lon="1.78788">
        <ele>187.80000305176</ele>
        <time>2012-12-31T10:12:24.000Z</time>
      </trkpt>
      <trkpt lat="48.70754" lon="1.78797">
        <ele>188.19999694824</ele>
        <time>2012-12-31T10:12:30.000Z</time>
      </trkpt>
      <trkpt lat="48.70753" lon="1.78799">
        <ele>188.19999694824</ele>
        <time>2012-12-31T10:12:32.000Z</time>
      </trkpt>
      <trkpt lat="48.70747" lon="1.7881">
        <ele>188.19999694824</ele>
        <time>2012-12-31T10:12:38.000Z</time>
      </trkpt>
      <trkpt lat="48.70741" lon="1.78819">
        <ele>188</ele>
        <time>2012-12-31T10:12:44.000Z</time>
      </trkpt>
      <trkpt lat="48.70736" lon="1.78837">
        <ele>187.80000305176</ele>
        <time>2012-12-31T10:12:53.000Z</time>
      </trkpt>
      <trkpt lat="48.70731" lon="1.78848">
        <ele>187.80000305176</ele>
        <time>2012-12-31T10:13:00.000Z</time>
      </trkpt>
      <trkpt lat="48.70726" lon="1.78855">
        <ele>187.60000610352</ele>
        <time>2012-12-31T10:13:06.000Z</time>
      </trkpt>
      <trkpt lat="48.7072" lon="1.78864">
        <ele>187.60000610352</ele>
        <time>2012-12-31T10:13:11.000Z</time>
      </trkpt>
      <trkpt lat="48.70716" lon="1.78869">
        <ele>187.60000610352</ele>
        <time>2012-12-31T10:13:14.000Z</time>
      </trkpt>
      <trkpt lat="48.70712" lon="1.78877">
        <ele>187.60000610352</ele>
        <time>2012-12-31T10:13:19.000Z</time>
      </trkpt>
      <trkpt lat="48.70707" lon="1.78884">
        <ele>187.60000610352</ele>
        <time>2012-12-31T10:13:23.000Z</time>
      </trkpt>
      <trkpt lat="48.707" lon="1.78889">
        <ele>187.60000610352</ele>
        <time>2012-12-31T10:13:29.000Z</time>
      </trkpt>
      <trkpt lat="48.70695" lon="1.78896">
        <ele>187.80000305176</ele>
        <time>2012-12-31T10:13:33.000Z</time>
      </trkpt>
      <trkpt lat="48.70692" lon="1.789">
        <ele>187.80000305176</ele>
        <time>2012-12-31T10:13:35.000Z</time>
      </trkpt>
      <trkpt lat="48.70681" lon="1.7891">
        <ele>187.80000305176</ele>
        <time>2012-12-31T10:13:43.000Z</time>
      </trkpt>
      <trkpt lat="48.70677" lon="1.78914">
        <ele>187.80000305176</ele>
        <time>2012-12-31T10:13:46.000Z</time>
      </trkpt>
      <trkpt lat="48.70673" lon="1.78921">
        <ele>188</ele>
        <time>2012-12-31T10:13:52.000Z</time>
      </trkpt>
      <trkpt lat="48.70672" lon="1.78922">
        <ele>188</ele>
        <time>2012-12-31T10:13:53.000Z</time>
      </trkpt>
      <trkpt lat="48.70669" lon="1.7893">
        <ele>188</ele>
        <time>2012-12-31T10:13:58.000Z</time>
      </trkpt>
      <trkpt lat="48.70663" lon="1.78935">
        <ele>188</ele>
        <time>2012-12-31T10:14:02.000Z</time>
      </trkpt>
      <trkpt lat="48.70655" lon="1.78939">
        <ele>188</ele>
        <time>2012-12-31T10:14:09.000Z</time>
      </trkpt>
      <trkpt lat="48.70653" lon="1.78942">
        <ele>188</ele>
        <time>2012-12-31T10:14:11.000Z</time>
      </trkpt>
      <trkpt lat="48.70644" lon="1.78947">
        <ele>188</ele>
        <time>2012-12-31T10:14:18.000Z</time>
      </trkpt>
      <trkpt lat="48.70641" lon="1.78951">
        <ele>188</ele>
        <time>2012-12-31T10:14:21.000Z</time>
      </trkpt>
      <trkpt lat="48.70635" lon="1.78957">
        <ele>188</ele>
        <time>2012-12-31T10:14:26.000Z</time>
      </trkpt>
      <trkpt lat="48.70629" lon="1.78966">
        <ele>188</ele>
        <time>2012-12-31T10:14:32.000Z</time>
      </trkpt>
      <trkpt lat="48.70627" lon="1.78967">
        <ele>188</ele>
        <time>2012-12-31T10:14:33.000Z</time>
      </trkpt>
      <trkpt lat="48.70621" lon="1.78973">
        <ele>188</ele>
        <time>2012-12-31T10:14:39.000Z</time>
      </trkpt>
      <trkpt lat="48.70618" lon="1.78975">
        <ele>188</ele>
        <time>2012-12-31T10:14:41.000Z</time>
      </trkpt>
      <trkpt lat="48.70612" lon="1.78981">
        <ele>188</ele>
        <time>2012-12-31T10:14:46.000Z</time>
      </trkpt>
      <trkpt lat="48.70607" lon="1.78984">
        <ele>188</ele>
        <time>2012-12-31T10:14:50.000Z</time>
      </trkpt>
      <trkpt lat="48.70598" lon="1.78991">
        <ele>188</ele>
        <time>2012-12-31T10:14:58.000Z</time>
      </trkpt>
      <trkpt lat="48.70591" lon="1.78997">
        <ele>188</ele>
        <time>2012-12-31T10:15:05.000Z</time>
      </trkpt>
      <trkpt lat="48.70586" lon="1.79004">
        <ele>187.80000305176</ele>
        <time>2012-12-31T10:15:11.000Z</time>
      </trkpt>
      <trkpt lat="48.70582" lon="1.79009">
        <ele>188</ele>
        <time>2012-12-31T10:15:15.000Z</time>
      </trkpt>
      <trkpt lat="48.70573" lon="1.79017">
        <ele>188</ele>
        <time>2012-12-31T10:15:22.000Z</time>
      </trkpt>
      <trkpt lat="48.70568" lon="1.79026">
        <ele>188.19999694824</ele>
        <time>2012-12-31T10:15:28.000Z</time>
      </trkpt>
      <trkpt lat="48.7056" lon="1.79039">
        <ele>188</ele>
        <time>2012-12-31T10:15:36.000Z</time>
      </trkpt>
      <trkpt lat="48.70553" lon="1.79047">
        <ele>188</ele>
        <time>2012-12-31T10:15:43.000Z</time>
      </trkpt>
      <trkpt lat="48.70548" lon="1.79055">
        <ele>188</ele>
        <time>2012-12-31T10:15:50.000Z</time>
      </trkpt>
      <trkpt lat="48.70546" lon="1.79058">
        <ele>187.80000305176</ele>
        <time>2012-12-31T10:15:52.000Z</time>
      </trkpt>
      <trkpt lat="48.7054" lon="1.79068">
        <ele>187.60000610352</ele>
        <time>2012-12-31T10:16:00.000Z</time>
      </trkpt>
      <trkpt lat="48.70536" lon="1.79073">
        <ele>187.60000610352</ele>
        <time>2012-12-31T10:16:05.000Z</time>
      </trkpt>
      <trkpt lat="48.70526" lon="1.79084">
        <ele>187.19999694824</ele>
        <time>2012-12-31T10:16:13.000Z</time>
      </trkpt>
      <trkpt lat="48.70524" lon="1.79087">
        <ele>187.19999694824</ele>
        <time>2012-12-31T10:16:16.000Z</time>
      </trkpt>
      <trkpt lat="48.70515" lon="1.79096">
        <ele>187.39999389648</ele>
        <time>2012-12-31T10:16:24.000Z</time>
      </trkpt>
      <trkpt lat="48.70506" lon="1.79103">
        <ele>187.39999389648</ele>
        <time>2012-12-31T10:16:31.000Z</time>
      </trkpt>
      <trkpt lat="48.705" lon="1.79107">
        <ele>187.39999389648</ele>
        <time>2012-12-31T10:16:37.000Z</time>
      </trkpt>
      <trkpt lat="48.70496" lon="1.79109">
        <ele>187.60000610352</ele>
        <time>2012-12-31T10:16:40.000Z</time>
      </trkpt>
      <trkpt lat="48.70488" lon="1.79112">
        <ele>188</ele>
        <time>2012-12-31T10:16:48.000Z</time>
      </trkpt>
      <trkpt lat="48.70479" lon="1.79118">
        <ele>188.19999694824</ele>
        <time>2012-12-31T10:16:54.000Z</time>
      </trkpt>
      <trkpt lat="48.7047" lon="1.79126">
        <ele>188.60000610352</ele>
        <time>2012-12-31T10:17:02.000Z</time>
      </trkpt>
      <trkpt lat="48.70469" lon="1.79127">
        <ele>188.60000610352</ele>
        <time>2012-12-31T10:17:03.000Z</time>
      </trkpt>
      <trkpt lat="48.70463" lon="1.79128">
        <ele>188.80000305176</ele>
        <time>2012-12-31T10:17:09.000Z</time>
      </trkpt>
      <trkpt lat="48.70462" lon="1.79129">
        <ele>188.80000305176</ele>
        <time>2012-12-31T10:17:10.000Z</time>
      </trkpt>
      <trkpt lat="48.70459" lon="1.79131">
        <ele>189</ele>
        <time>2012-12-31T10:17:13.000Z</time>
      </trkpt>
      <trkpt lat="48.70453" lon="1.79136">
        <ele>189.19999694824</ele>
        <time>2012-12-31T10:17:19.000Z</time>
      </trkpt>
      <trkpt lat="48.70446" lon="1.79142">
        <ele>189.39999389648</ele>
        <time>2012-12-31T10:17:24.000Z</time>
      </trkpt>
      <trkpt lat="48.70444" lon="1.79143">
        <ele>189.39999389648</ele>
        <time>2012-12-31T10:17:25.000Z</time>
      </trkpt>
      <trkpt lat="48.70439" lon="1.79147">
        <ele>189.60000610352</ele>
        <time>2012-12-31T10:17:30.000Z</time>
      </trkpt>
      <trkpt lat="48.70434" lon="1.7915">
        <ele>189.60000610352</ele>
        <time>2012-12-31T10:17:35.000Z</time>
      </trkpt>
      <trkpt lat="48.70425" lon="1.7916">
        <ele>189.80000305176</ele>
        <time>2012-12-31T10:17:42.000Z</time>
      </trkpt>
      <trkpt lat="48.70415" lon="1.79167">
        <ele>189.80000305176</ele>
        <time>2012-12-31T10:17:50.000Z</time>
      </trkpt>
      <trkpt lat="48.70409" lon="1.7917">
        <ele>189.80000305176</ele>
        <time>2012-12-31T10:17:55.000Z</time>
      </trkpt>
      <trkpt lat="48.70404" lon="1.79176">
        <ele>189.60000610352</ele>
        <time>2012-12-31T10:18:02.000Z</time>
      </trkpt>
      <trkpt lat="48.70402" lon="1.7918">
        <ele>189.39999389648</ele>
        <time>2012-12-31T10:18:04.000Z</time>
      </trkpt>
      <trkpt lat="48.70394" lon="1.79191">
        <ele>189.19999694824</ele>
        <time>2012-12-31T10:18:12.000Z</time>
      </trkpt>
      <trkpt lat="48.70393" lon="1.79193">
        <ele>189.19999694824</ele>
        <time>2012-12-31T10:18:13.000Z</time>
      </trkpt>
      <trkpt lat="48.70389" lon="1.79199">
        <ele>189.19999694824</ele>
        <time>2012-12-31T10:18:17.000Z</time>
      </trkpt>
      <trkpt lat="48.70385" lon="1.79205">
        <ele>189.19999694824</ele>
        <time>2012-12-31T10:18:22.000Z</time>
      </trkpt>
      <trkpt lat="48.70376" lon="1.79214">
        <ele>189.19999694824</ele>
        <time>2012-12-31T10:18:31.000Z</time>
      </trkpt>
      <trkpt lat="48.70369" lon="1.79221">
        <ele>189.19999694824</ele>
        <time>2012-12-31T10:18:38.000Z</time>
      </trkpt>
      <trkpt lat="48.70368" lon="1.79221">
        <ele>189.19999694824</ele>
        <time>2012-12-31T10:18:40.000Z</time>
      </trkpt>
      <trkpt lat="48.70362" lon="1.79225">
        <ele>189.19999694824</ele>
        <time>2012-12-31T10:18:47.000Z</time>
      </trkpt>
      <trkpt lat="48.70359" lon="1.7923">
        <ele>189.19999694824</ele>
        <time>2012-12-31T10:18:52.000Z</time>
      </trkpt>
      <trkpt lat="48.70358" lon="1.79237">
        <ele>189.19999694824</ele>
        <time>2012-12-31T10:18:57.000Z</time>
      </trkpt>
      <trkpt lat="48.70353" lon="1.79251">
        <ele>189.39999389648</ele>
        <time>2012-12-31T10:19:05.000Z</time>
      </trkpt>
      <trkpt lat="48.70348" lon="1.79257">
        <ele>189.60000610352</ele>
        <time>2012-12-31T10:19:10.000Z</time>
      </trkpt>
      <trkpt lat="48.7034" lon="1.7926">
        <ele>189.80000305176</ele>
        <time>2012-12-31T10:19:16.000Z</time>
      </trkpt>
      <trkpt lat="48.70329" lon="1.79263">
        <ele>190</ele>
        <time>2012-12-31T10:19:21.000Z</time>
      </trkpt>
      <trkpt lat="48.70321" lon="1.79268">
        <ele>190</ele>
        <time>2012-12-31T10:19:27.000Z</time>
      </trkpt>
      <trkpt lat="48.70313" lon="1.79276">
        <ele>190</ele>
        <time>2012-12-31T10:19:34.000Z</time>
      </trkpt>
      <trkpt lat="48.70313" lon="1.79282">
        <ele>190</ele>
        <time>2012-12-31T10:19:41.000Z</time>
      </trkpt>
      <trkpt lat="48.70309" lon="1.79294">
        <ele>190</ele>
        <time>2012-12-31T10:19:48.000Z</time>
      </trkpt>
      <trkpt lat="48.70303" lon="1.79303">
        <ele>190</ele>
        <time>2012-12-31T10:19:55.000Z</time>
      </trkpt>
      <trkpt lat="48.70294" lon="1.79312">
        <ele>190</ele>
        <time>2012-12-31T10:20:02.000Z</time>
      </trkpt>
      <trkpt lat="48.70291" lon="1.79312">
        <ele>190</ele>
        <time>2012-12-31T10:20:03.000Z</time>
      </trkpt>
      <trkpt lat="48.70278" lon="1.79311">
        <ele>190</ele>
        <time>2012-12-31T10:20:09.000Z</time>
      </trkpt>
      <trkpt lat="48.70274" lon="1.7931">
        <ele>190</ele>
        <time>2012-12-31T10:20:12.000Z</time>
      </trkpt>
      <trkpt lat="48.70259" lon="1.79308">
        <ele>190</ele>
        <time>2012-12-31T10:20:21.000Z</time>
      </trkpt>
      <trkpt lat="48.70247" lon="1.79313">
        <ele>190</ele>
        <time>2012-12-31T10:20:30.000Z</time>
      </trkpt>
      <trkpt lat="48.70243" lon="1.79313">
        <ele>190</ele>
        <time>2012-12-31T10:20:33.000Z</time>
      </trkpt>
      <trkpt lat="48.70234" lon="1.79317">
        <ele>190</ele>
        <time>2012-12-31T10:20:40.000Z</time>
      </trkpt>
      <trkpt lat="48.70233" lon="1.79318">
        <ele>190</ele>
        <time>2012-12-31T10:20:41.000Z</time>
      </trkpt>
      <trkpt lat="48.7023" lon="1.79319">
        <ele>190</ele>
        <time>2012-12-31T10:20:43.000Z</time>
      </trkpt>
      <trkpt lat="48.70227" lon="1.79322">
        <ele>190</ele>
        <time>2012-12-31T10:20:48.000Z</time>
      </trkpt>
      <trkpt lat="48.7022" lon="1.79327">
        <ele>190</ele>
        <time>2012-12-31T10:20:54.000Z</time>
      </trkpt>
      <trkpt lat="48.7021" lon="1.79333">
        <ele>190</ele>
        <time>2012-12-31T10:21:02.000Z</time>
      </trkpt>
      <trkpt lat="48.70204" lon="1.79338">
        <ele>189.80000305176</ele>
        <time>2012-12-31T10:21:07.000Z</time>
      </trkpt>
      <trkpt lat="48.70195" lon="1.79341">
        <ele>189.80000305176</ele>
        <time>2012-12-31T10:21:14.000Z</time>
      </trkpt>
      <trkpt lat="48.7019" lon="1.79343">
        <ele>189.80000305176</ele>
        <time>2012-12-31T10:21:18.000Z</time>
      </trkpt>
      <trkpt lat="48.70185" lon="1.79347">
        <ele>189.80000305176</ele>
        <time>2012-12-31T10:21:23.000Z</time>
      </trkpt>
      <trkpt lat="48.70175" lon="1.79356">
        <ele>189.60000610352</ele>
        <time>2012-12-31T10:21:32.000Z</time>
      </trkpt>
      <trkpt lat="48.70171" lon="1.79362">
        <ele>189.60000610352</ele>
        <time>2012-12-31T10:21:37.000Z</time>
      </trkpt>
      <trkpt lat="48.70165" lon="1.79371">
        <ele>189.39999389648</ele>
        <time>2012-12-31T10:21:44.000Z</time>
      </trkpt>
      <trkpt lat="48.70156" lon="1.79377">
        <ele>189.39999389648</ele>
        <time>2012-12-31T10:21:51.000Z</time>
      </trkpt>
      <trkpt lat="48.70149" lon="1.7938">
        <ele>189.19999694824</ele>
        <time>2012-12-31T10:21:57.000Z</time>
      </trkpt>
      <trkpt lat="48.70141" lon="1.79385">
        <ele>189.19999694824</ele>
        <time>2012-12-31T10:22:05.000Z</time>
      </trkpt>
      <trkpt lat="48.70134" lon="1.79389">
        <ele>189.19999694824</ele>
        <time>2012-12-31T10:22:10.000Z</time>
      </trkpt>
      <trkpt lat="48.7013" lon="1.79392">
        <ele>189</ele>
        <time>2012-12-31T10:22:14.000Z</time>
      </trkpt>
      <trkpt lat="48.70124" lon="1.79397">
        <ele>189</ele>
        <time>2012-12-31T10:22:19.000Z</time>
      </trkpt>
      <trkpt lat="48.70118" lon="1.79404">
        <ele>189</ele>
        <time>2012-12-31T10:22:25.000Z</time>
      </trkpt>
      <trkpt lat="48.70112" lon="1.79409">
        <ele>189</ele>
        <time>2012-12-31T10:22:31.000Z</time>
      </trkpt>
      <trkpt lat="48.70105" lon="1.79414">
        <ele>189</ele>
        <time>2012-12-31T10:22:37.000Z</time>
      </trkpt>
      <trkpt lat="48.70098" lon="1.7942">
        <ele>188.80000305176</ele>
        <time>2012-12-31T10:22:43.000Z</time>
      </trkpt>
      <trkpt lat="48.70088" lon="1.79428">
        <ele>188.80000305176</ele>
        <time>2012-12-31T10:22:50.000Z</time>
      </trkpt>
      <trkpt lat="48.70086" lon="1.7943">
        <ele>188.80000305176</ele>
        <time>2012-12-31T10:22:52.000Z</time>
      </trkpt>
      <trkpt lat="48.70082" lon="1.79434">
        <ele>188.60000610352</ele>
        <time>2012-12-31T10:22:56.000Z</time>
      </trkpt>
      <trkpt lat="48.70072" lon="1.79445">
        <ele>188.39999389648</ele>
        <time>2012-12-31T10:23:05.000Z</time>
      </trkpt>
      <trkpt lat="48.70069" lon="1.79447">
        <ele>188.39999389648</ele>
        <time>2012-12-31T10:23:07.000Z</time>
      </trkpt>
      <trkpt lat="48.70061" lon="1.79457">
        <ele>188.19999694824</ele>
        <time>2012-12-31T10:23:14.000Z</time>
      </trkpt>
      <trkpt lat="48.70058" lon="1.7946">
        <ele>188.19999694824</ele>
        <time>2012-12-31T10:23:16.000Z</time>
      </trkpt>
      <trkpt lat="48.70047" lon="1.79473">
        <ele>188</ele>
        <time>2012-12-31T10:23:27.000Z</time>
      </trkpt>
      <trkpt lat="48.70038" lon="1.79479">
        <ele>188</ele>
        <time>2012-12-31T10:23:34.000Z</time>
      </trkpt>
      <trkpt lat="48.70032" lon="1.79485">
        <ele>188</ele>
        <time>2012-12-31T10:23:39.000Z</time>
      </trkpt>
      <trkpt lat="48.7003" lon="1.79486">
        <ele>188</ele>
        <time>2012-12-31T10:23:41.000Z</time>
      </trkpt>
      <trkpt lat="48.70024" lon="1.79492">
        <ele>188</ele>
        <time>2012-12-31T10:23:46.000Z</time>
      </trkpt>
      <trkpt lat="48.70017" lon="1.79499">
        <ele>188</ele>
        <time>2012-12-31T10:23:53.000Z</time>
      </trkpt>
      <trkpt lat="48.70008" lon="1.79507">
        <ele>188</ele>
        <time>2012-12-31T10:24:01.000Z</time>
      </trkpt>
      <trkpt lat="48.7" lon="1.79514">
        <ele>188</ele>
        <time>2012-12-31T10:24:07.000Z</time>
      </trkpt>
      <trkpt lat="48.69991" lon="1.79521">
        <ele>187.60000610352</ele>
        <time>2012-12-31T10:24:14.000Z</time>
      </trkpt>
      <trkpt lat="48.69983" lon="1.79529">
        <ele>187.39999389648</ele>
        <time>2012-12-31T10:24:21.000Z</time>
      </trkpt>
      <trkpt lat="48.69973" lon="1.79538">
        <ele>187</ele>
        <time>2012-12-31T10:24:29.000Z</time>
      </trkpt>
      <trkpt lat="48.69966" lon="1.79548">
        <ele>186.60000610352</ele>
        <time>2012-12-31T10:24:36.000Z</time>
      </trkpt>
      <trkpt lat="48.69961" lon="1.79556">
        <ele>186.60000610352</ele>
        <time>2012-12-31T10:24:43.000Z</time>
      </trkpt>
      <trkpt lat="48.69956" lon="1.79559">
        <ele>186.39999389648</ele>
        <time>2012-12-31T10:24:47.000Z</time>
      </trkpt>
      <trkpt lat="48.69947" lon="1.79565">
        <ele>186</ele>
        <time>2012-12-31T10:24:54.000Z</time>
      </trkpt>
      <trkpt lat="48.6994" lon="1.79572">
        <ele>185.80000305176</ele>
        <time>2012-12-31T10:25:01.000Z</time>
      </trkpt>
      <trkpt lat="48.69934" lon="1.79577">
        <ele>185.60000610352</ele>
        <time>2012-12-31T10:25:07.000Z</time>
      </trkpt>
      <trkpt lat="48.6993" lon="1.79581">
        <ele>185.39999389648</ele>
        <time>2012-12-31T10:25:10.000Z</time>
      </trkpt>
      <trkpt lat="48.69924" lon="1.79585">
        <ele>185.39999389648</ele>
        <time>2012-12-31T10:25:16.000Z</time>
      </trkpt>
      <trkpt lat="48.69922" lon="1.79591">
        <ele>185.39999389648</ele>
        <time>2012-12-31T10:25:20.000Z</time>
      </trkpt>
      <trkpt lat="48.69913" lon="1.79597">
        <ele>185.19999694824</ele>
        <time>2012-12-31T10:25:28.000Z</time>
      </trkpt>
      <trkpt lat="48.69909" lon="1.79599">
        <ele>185.19999694824</ele>
        <time>2012-12-31T10:25:31.000Z</time>
      </trkpt>
      <trkpt lat="48.69902" lon="1.79606">
        <ele>185.39999389648</ele>
        <time>2012-12-31T10:25:37.000Z</time>
      </trkpt>
      <trkpt lat="48.69897" lon="1.79613">
        <ele>185.39999389648</ele>
        <time>2012-12-31T10:25:43.000Z</time>
      </trkpt>
      <trkpt lat="48.69891" lon="1.79619">
        <ele>185.39999389648</ele>
        <time>2012-12-31T10:25:50.000Z</time>
      </trkpt>
      <trkpt lat="48.69885" lon="1.7963">
        <ele>185.60000610352</ele>
        <time>2012-12-31T10:25:57.000Z</time>
      </trkpt>
      <trkpt lat="48.69877" lon="1.79636">
        <ele>185.60000610352</ele>
        <time>2012-12-31T10:26:04.000Z</time>
      </trkpt>
      <trkpt lat="48.69875" lon="1.7964">
        <ele>185.60000610352</ele>
        <time>2012-12-31T10:26:06.000Z</time>
      </trkpt>
      <trkpt lat="48.69868" lon="1.79654">
        <ele>185.80000305176</ele>
        <time>2012-12-31T10:26:14.000Z</time>
      </trkpt>
      <trkpt lat="48.69859" lon="1.79665">
        <ele>185.80000305176</ele>
        <time>2012-12-31T10:26:23.000Z</time>
      </trkpt>
      <trkpt lat="48.69851" lon="1.79668">
        <ele>185.60000610352</ele>
        <time>2012-12-31T10:26:30.000Z</time>
      </trkpt>
      <trkpt lat="48.69849" lon="1.79668">
        <ele>185.39999389648</ele>
        <time>2012-12-31T10:26:31.000Z</time>
      </trkpt>
      <trkpt lat="48.69844" lon="1.79672">
        <ele>185.39999389648</ele>
        <time>2012-12-31T10:26:35.000Z</time>
      </trkpt>
      <trkpt lat="48.69841" lon="1.79677">
        <ele>185.19999694824</ele>
        <time>2012-12-31T10:26:39.000Z</time>
      </trkpt>
      <trkpt lat="48.69835" lon="1.79684">
        <ele>185.19999694824</ele>
        <time>2012-12-31T10:26:46.000Z</time>
      </trkpt>
      <trkpt lat="48.69832" lon="1.79685">
        <ele>185</ele>
        <time>2012-12-31T10:26:48.000Z</time>
      </trkpt>
      <trkpt lat="48.69828" lon="1.79685">
        <ele>185</ele>
        <time>2012-12-31T10:26:52.000Z</time>
      </trkpt>
      <trkpt lat="48.69822" lon="1.79698">
        <ele>185</ele>
        <time>2012-12-31T10:27:00.000Z</time>
      </trkpt>
      <trkpt lat="48.69821" lon="1.797">
        <ele>185</ele>
        <time>2012-12-31T10:27:01.000Z</time>
      </trkpt>
      <trkpt lat="48.69813" lon="1.79708">
        <ele>184.80000305176</ele>
        <time>2012-12-31T10:27:09.000Z</time>
      </trkpt>
      <trkpt lat="48.69806" lon="1.79714">
        <ele>184.80000305176</ele>
        <time>2012-12-31T10:27:16.000Z</time>
      </trkpt>
      <trkpt lat="48.69799" lon="1.79721">
        <ele>184.80000305176</ele>
        <time>2012-12-31T10:27:23.000Z</time>
      </trkpt>
      <trkpt lat="48.6979" lon="1.79725">
        <ele>184.60000610352</ele>
        <time>2012-12-31T10:27:30.000Z</time>
      </trkpt>
      <trkpt lat="48.69782" lon="1.79735">
        <ele>184.39999389648</ele>
        <time>2012-12-31T10:27:38.000Z</time>
      </trkpt>
      <trkpt lat="48.69777" lon="1.79738">
        <ele>184.39999389648</ele>
        <time>2012-12-31T10:27:43.000Z</time>
      </trkpt>
      <trkpt lat="48.6977" lon="1.79743">
        <ele>184.19999694824</ele>
        <time>2012-12-31T10:27:50.000Z</time>
      </trkpt>
      <trkpt lat="48.69762" lon="1.7975">
        <ele>184.19999694824</ele>
        <time>2012-12-31T10:27:57.000Z</time>
      </trkpt>
      <trkpt lat="48.69758" lon="1.79753">
        <ele>184.19999694824</ele>
        <time>2012-12-31T10:28:01.000Z</time>
      </trkpt>
      <trkpt lat="48.69748" lon="1.79764">
        <ele>184.19999694824</ele>
        <time>2012-12-31T10:28:11.000Z</time>
      </trkpt>
      <trkpt lat="48.69737" lon="1.79773">
        <ele>184.19999694824</ele>
        <time>2012-12-31T10:28:20.000Z</time>
      </trkpt>
      <trkpt lat="48.69729" lon="1.79777">
        <ele>184.19999694824</ele>
        <time>2012-12-31T10:28:27.000Z</time>
      </trkpt>
      <trkpt lat="48.6972" lon="1.79784">
        <ele>184.19999694824</ele>
        <time>2012-12-31T10:28:35.000Z</time>
      </trkpt>
      <trkpt lat="48.6971" lon="1.79789">
        <ele>184.39999389648</ele>
        <time>2012-12-31T10:28:42.000Z</time>
      </trkpt>
      <trkpt lat="48.697" lon="1.79793">
        <ele>184.39999389648</ele>
        <time>2012-12-31T10:28:50.000Z</time>
      </trkpt>
      <trkpt lat="48.69689" lon="1.79798">
        <ele>184.39999389648</ele>
        <time>2012-12-31T10:28:59.000Z</time>
      </trkpt>
      <trkpt lat="48.69688" lon="1.79799">
        <ele>184.39999389648</ele>
        <time>2012-12-31T10:29:01.000Z</time>
      </trkpt>
      <trkpt lat="48.69685" lon="1.79801">
        <ele>184.60000610352</ele>
        <time>2012-12-31T10:29:03.000Z</time>
      </trkpt>
      <trkpt lat="48.6968" lon="1.79802">
        <ele>184.39999389648</ele>
        <time>2012-12-31T10:29:07.000Z</time>
      </trkpt>
      <trkpt lat="48.69675" lon="1.79803">
        <ele>184.39999389648</ele>
        <time>2012-12-31T10:29:11.000Z</time>
      </trkpt>
      <trkpt lat="48.69664" lon="1.79806">
        <ele>184.60000610352</ele>
        <time>2012-12-31T10:29:19.000Z</time>
      </trkpt>
      <trkpt lat="48.69657" lon="1.79807">
        <ele>184.80000305176</ele>
        <time>2012-12-31T10:29:24.000Z</time>
      </trkpt>
      <trkpt lat="48.69645" lon="1.7981">
        <ele>185</ele>
        <time>2012-12-31T10:29:32.000Z</time>
      </trkpt>
      <trkpt lat="48.69636" lon="1.79813">
        <ele>185.19999694824</ele>
        <time>2012-12-31T10:29:39.000Z</time>
      </trkpt>
      <trkpt lat="48.6963" lon="1.79815">
        <ele>185.19999694824</ele>
        <time>2012-12-31T10:29:44.000Z</time>
      </trkpt>
      <trkpt lat="48.69622" lon="1.7982">
        <ele>185.39999389648</ele>
        <time>2012-12-31T10:29:51.000Z</time>
      </trkpt>
      <trkpt lat="48.69612" lon="1.79825">
        <ele>185.60000610352</ele>
        <time>2012-12-31T10:29:59.000Z</time>
      </trkpt>
      <trkpt lat="48.69603" lon="1.7983">
        <ele>185.80000305176</ele>
        <time>2012-12-31T10:30:07.000Z</time>
      </trkpt>
      <trkpt lat="48.69593" lon="1.79833">
        <ele>186</ele>
        <time>2012-12-31T10:30:15.000Z</time>
      </trkpt>
      <trkpt lat="48.69584" lon="1.79839">
        <ele>186</ele>
        <time>2012-12-31T10:30:22.000Z</time>
      </trkpt>
      <trkpt lat="48.69579" lon="1.79841">
        <ele>186.19999694824</ele>
        <time>2012-12-31T10:30:27.000Z</time>
      </trkpt>
      <trkpt lat="48.69572" lon="1.79843">
        <ele>186.39999389648</ele>
        <time>2012-12-31T10:30:34.000Z</time>
      </trkpt>
      <trkpt lat="48.69569" lon="1.79845">
        <ele>186.60000610352</ele>
        <time>2012-12-31T10:30:38.000Z</time>
      </trkpt>
      <trkpt lat="48.69559" lon="1.79849">
        <ele>187</ele>
        <time>2012-12-31T10:30:45.000Z</time>
      </trkpt>
      <trkpt lat="48.69551" lon="1.79855">
        <ele>187.19999694824</ele>
        <time>2012-12-31T10:30:52.000Z</time>
      </trkpt>
      <trkpt lat="48.6955" lon="1.79856">
        <ele>187.19999694824</ele>
        <time>2012-12-31T10:30:53.000Z</time>
      </trkpt>
      <trkpt lat="48.69544" lon="1.79863">
        <ele>187.39999389648</ele>
        <time>2012-12-31T10:31:00.000Z</time>
      </trkpt>
      <trkpt lat="48.69536" lon="1.79873">
        <ele>187.19999694824</ele>
        <time>2012-12-31T10:31:08.000Z</time>
      </trkpt>
      <trkpt lat="48.69531" lon="1.79877">
        <ele>187.19999694824</ele>
        <time>2012-12-31T10:31:14.000Z</time>
      </trkpt>
      <trkpt lat="48.69523" lon="1.79889">
        <ele>187</ele>
        <time>2012-12-31T10:31:23.000Z</time>
      </trkpt>
      <trkpt lat="48.69515" lon="1.79894">
        <ele>187</ele>
        <time>2012-12-31T10:31:30.000Z</time>
      </trkpt>
      <trkpt lat="48.69508" lon="1.79899">
        <ele>186.80000305176</ele>
        <time>2012-12-31T10:31:37.000Z</time>
      </trkpt>
      <trkpt lat="48.69506" lon="1.79902">
        <ele>186.60000610352</ele>
        <time>2012-12-31T10:31:39.000Z</time>
      </trkpt>
      <trkpt lat="48.69503" lon="1.79909">
        <ele>186.19999694824</ele>
        <time>2012-12-31T10:31:44.000Z</time>
      </trkpt>
      <trkpt lat="48.69497" lon="1.79915">
        <ele>186</ele>
        <time>2012-12-31T10:31:49.000Z</time>
      </trkpt>
      <trkpt lat="48.69495" lon="1.79915">
        <ele>186</ele>
        <time>2012-12-31T10:31:50.000Z</time>
      </trkpt>
      <trkpt lat="48.69485" lon="1.79922">
        <ele>185.60000610352</ele>
        <time>2012-12-31T10:31:59.000Z</time>
      </trkpt>
      <trkpt lat="48.69481" lon="1.79925">
        <ele>185.60000610352</ele>
        <time>2012-12-31T10:32:02.000Z</time>
      </trkpt>
      <trkpt lat="48.69477" lon="1.79929">
        <ele>185.39999389648</ele>
        <time>2012-12-31T10:32:06.000Z</time>
      </trkpt>
      <trkpt lat="48.69467" lon="1.79935">
        <ele>185</ele>
        <time>2012-12-31T10:32:15.000Z</time>
      </trkpt>
      <trkpt lat="48.69457" lon="1.79939">
        <ele>184.80000305176</ele>
        <time>2012-12-31T10:32:22.000Z</time>
      </trkpt>
      <trkpt lat="48.69445" lon="1.79946">
        <ele>184.19999694824</ele>
        <time>2012-12-31T10:32:31.000Z</time>
      </trkpt>
      <trkpt lat="48.69436" lon="1.79949">
        <ele>183.80000305176</ele>
        <time>2012-12-31T10:32:38.000Z</time>
      </trkpt>
      <trkpt lat="48.69433" lon="1.79952">
        <ele>183.60000610352</ele>
        <time>2012-12-31T10:32:41.000Z</time>
      </trkpt>
      <trkpt lat="48.69426" lon="1.79956">
        <ele>183.19999694824</ele>
        <time>2012-12-31T10:32:47.000Z</time>
      </trkpt>
      <trkpt lat="48.69418" lon="1.7996">
        <ele>182.80000305176</ele>
        <time>2012-12-31T10:32:53.000Z</time>
      </trkpt>
      <trkpt lat="48.69413" lon="1.79965">
        <ele>182.39999389648</ele>
        <time>2012-12-31T10:32:58.000Z</time>
      </trkpt>
      <trkpt lat="48.69411" lon="1.79967">
        <ele>182.19999694824</ele>
        <time>2012-12-31T10:33:00.000Z</time>
      </trkpt>
      <trkpt lat="48.69405" lon="1.7997">
        <ele>181.80000305176</ele>
        <time>2012-12-31T10:33:06.000Z</time>
      </trkpt>
      <trkpt lat="48.69398" lon="1.79974">
        <ele>181.39999389648</ele>
        <time>2012-12-31T10:33:12.000Z</time>
      </trkpt>
      <trkpt lat="48.6939" lon="1.79977">
        <ele>181</ele>
        <time>2012-12-31T10:33:18.000Z</time>
      </trkpt>
      <trkpt lat="48.69381" lon="1.79981">
        <ele>180.39999389648</ele>
        <time>2012-12-31T10:33:25.000Z</time>
      </trkpt>
      <trkpt lat="48.69372" lon="1.79985">
        <ele>180</ele>
        <time>2012-12-31T10:33:33.000Z</time>
      </trkpt>
      <trkpt lat="48.69366" lon="1.79985">
        <ele>179.80000305176</ele>
        <time>2012-12-31T10:33:38.000Z</time>
      </trkpt>
      <trkpt lat="48.69359" lon="1.79988">
        <ele>179.19999694824</ele>
        <time>2012-12-31T10:33:44.000Z</time>
      </trkpt>
      <trkpt lat="48.69353" lon="1.79991">
        <ele>179</ele>
        <time>2012-12-31T10:33:49.000Z</time>
      </trkpt>
      <trkpt lat="48.69344" lon="1.79995">
        <ele>178.39999389648</ele>
        <time>2012-12-31T10:33:57.000Z</time>
      </trkpt>
      <trkpt lat="48.69335" lon="1.79999">
        <ele>178</ele>
        <time>2012-12-31T10:34:04.000Z</time>
      </trkpt>
      <trkpt lat="48.69324" lon="1.80002">
        <ele>178.19999694824</ele>
        <time>2012-12-31T10:34:13.000Z</time>
      </trkpt>
      <trkpt lat="48.69316" lon="1.80001">
        <ele>178.60000610352</ele>
        <time>2012-12-31T10:34:20.000Z</time>
      </trkpt>
      <trkpt lat="48.69309" lon="1.79999">
        <ele>178.80000305176</ele>
        <time>2012-12-31T10:34:25.000Z</time>
      </trkpt>
      <trkpt lat="48.69305" lon="1.79999">
        <ele>179</ele>
        <time>2012-12-31T10:34:28.000Z</time>
      </trkpt>
      <trkpt lat="48.69299" lon="1.79999">
        <ele>179.19999694824</ele>
        <time>2012-12-31T10:34:34.000Z</time>
      </trkpt>
      <trkpt lat="48.69298" lon="1.79999">
        <ele>179.19999694824</ele>
        <time>2012-12-31T10:34:35.000Z</time>
      </trkpt>
      <trkpt lat="48.69288" lon="1.80005">
        <ele>179.39999389648</ele>
        <time>2012-12-31T10:34:44.000Z</time>
      </trkpt>
      <trkpt lat="48.69281" lon="1.80008">
        <ele>179.60000610352</ele>
        <time>2012-12-31T10:34:49.000Z</time>
      </trkpt>
      <trkpt lat="48.69272" lon="1.80008">
        <ele>179.80000305176</ele>
        <time>2012-12-31T10:34:56.000Z</time>
      </trkpt>
      <trkpt lat="48.69264" lon="1.80012">
        <ele>180</ele>
        <time>2012-12-31T10:35:03.000Z</time>
      </trkpt>
      <trkpt lat="48.69254" lon="1.80017">
        <ele>180.19999694824</ele>
        <time>2012-12-31T10:35:11.000Z</time>
      </trkpt>
      <trkpt lat="48.69248" lon="1.80021">
        <ele>180.39999389648</ele>
        <time>2012-12-31T10:35:16.000Z</time>
      </trkpt>
      <trkpt lat="48.69242" lon="1.80027">
        <ele>180.60000610352</ele>
        <time>2012-12-31T10:35:22.000Z</time>
      </trkpt>
      <trkpt lat="48.69236" lon="1.8003">
        <ele>181</ele>
        <time>2012-12-31T10:35:28.000Z</time>
      </trkpt>
      <trkpt lat="48.69229" lon="1.80035">
        <ele>181.39999389648</ele>
        <time>2012-12-31T10:35:34.000Z</time>
      </trkpt>
      <trkpt lat="48.69219" lon="1.80042">
        <ele>182</ele>
        <time>2012-12-31T10:35:43.000Z</time>
      </trkpt>
      <trkpt lat="48.6921" lon="1.80046">
        <ele>182.60000610352</ele>
        <time>2012-12-31T10:35:51.000Z</time>
      </trkpt>
      <trkpt lat="48.69203" lon="1.8005">
        <ele>183</ele>
        <time>2012-12-31T10:35:57.000Z</time>
      </trkpt>
      <trkpt lat="48.69193" lon="1.80053">
        <ele>183.80000305176</ele>
        <time>2012-12-31T10:36:04.000Z</time>
      </trkpt>
      <trkpt lat="48.69185" lon="1.80056">
        <ele>184.39999389648</ele>
        <time>2012-12-31T10:36:10.000Z</time>
      </trkpt>
      <trkpt lat="48.69181" lon="1.80058">
        <ele>184.60000610352</ele>
        <time>2012-12-31T10:36:13.000Z</time>
      </trkpt>
      <trkpt lat="48.69176" lon="1.80058">
        <ele>185</ele>
        <time>2012-12-31T10:36:18.000Z</time>
      </trkpt>
      <trkpt lat="48.69171" lon="1.80058">
        <ele>185.39999389648</ele>
        <time>2012-12-31T10:36:22.000Z</time>
      </trkpt>
      <trkpt lat="48.69159" lon="1.80055">
        <ele>186</ele>
        <time>2012-12-31T10:36:29.000Z</time>
      </trkpt>
      <trkpt lat="48.69156" lon="1.80057">
        <ele>186</ele>
        <time>2012-12-31T10:36:32.000Z</time>
      </trkpt>
      <trkpt lat="48.69146" lon="1.80059">
        <ele>186</ele>
        <time>2012-12-31T10:36:38.000Z</time>
      </trkpt>
      <trkpt lat="48.69144" lon="1.80059">
        <ele>186</ele>
        <time>2012-12-31T10:36:40.000Z</time>
      </trkpt>
      <trkpt lat="48.69137" lon="1.80063">
        <ele>186</ele>
        <time>2012-12-31T10:36:46.000Z</time>
      </trkpt>
      <trkpt lat="48.69128" lon="1.80069">
        <ele>185.80000305176</ele>
        <time>2012-12-31T10:36:53.000Z</time>
      </trkpt>
      <trkpt lat="48.69122" lon="1.80077">
        <ele>185.60000610352</ele>
        <time>2012-12-31T10:36:59.000Z</time>
      </trkpt>
      <trkpt lat="48.69115" lon="1.80086">
        <ele>185.60000610352</ele>
        <time>2012-12-31T10:37:06.000Z</time>
      </trkpt>
      <trkpt lat="48.69108" lon="1.80098">
        <ele>185.60000610352</ele>
        <time>2012-12-31T10:37:13.000Z</time>
      </trkpt>
      <trkpt lat="48.69102" lon="1.80106">
        <ele>185.60000610352</ele>
        <time>2012-12-31T10:37:19.000Z</time>
      </trkpt>
      <trkpt lat="48.69093" lon="1.80114">
        <ele>185.80000305176</ele>
        <time>2012-12-31T10:37:27.000Z</time>
      </trkpt>
      <trkpt lat="48.69085" lon="1.80124">
        <ele>185.80000305176</ele>
        <time>2012-12-31T10:37:34.000Z</time>
      </trkpt>
      <trkpt lat="48.69082" lon="1.80131">
        <ele>186</ele>
        <time>2012-12-31T10:37:38.000Z</time>
      </trkpt>
      <trkpt lat="48.69077" lon="1.80137">
        <ele>186</ele>
        <time>2012-12-31T10:37:42.000Z</time>
      </trkpt>
      <trkpt lat="48.69074" lon="1.8014">
        <ele>186</ele>
        <time>2012-12-31T10:37:44.000Z</time>
      </trkpt>
      <trkpt lat="48.69067" lon="1.80143">
        <ele>186</ele>
        <time>2012-12-31T10:37:49.000Z</time>
      </trkpt>
      <trkpt lat="48.69066" lon="1.80143">
        <ele>186</ele>
        <time>2012-12-31T10:37:50.000Z</time>
      </trkpt>
      <trkpt lat="48.6906" lon="1.80145">
        <ele>186</ele>
        <time>2012-12-31T10:37:54.000Z</time>
      </trkpt>
      <trkpt lat="48.69055" lon="1.80148">
        <ele>186</ele>
        <time>2012-12-31T10:37:58.000Z</time>
      </trkpt>
      <trkpt lat="48.69047" lon="1.80151">
        <ele>186</ele>
        <time>2012-12-31T10:38:04.000Z</time>
      </trkpt>
      <trkpt lat="48.69038" lon="1.80154">
        <ele>186</ele>
        <time>2012-12-31T10:38:10.000Z</time>
      </trkpt>
      <trkpt lat="48.69027" lon="1.8016">
        <ele>186</ele>
        <time>2012-12-31T10:38:18.000Z</time>
      </trkpt>
      <trkpt lat="48.69015" lon="1.80167">
        <ele>186</ele>
        <time>2012-12-31T10:38:27.000Z</time>
      </trkpt>
      <trkpt lat="48.69008" lon="1.80171">
        <ele>186</ele>
        <time>2012-12-31T10:38:34.000Z</time>
      </trkpt>
      <trkpt lat="48.68997" lon="1.80172">
        <ele>186</ele>
        <time>2012-12-31T10:38:43.000Z</time>
      </trkpt>
      <trkpt lat="48.68991" lon="1.80173">
        <ele>186.19999694824</ele>
        <time>2012-12-31T10:38:49.000Z</time>
      </trkpt>
      <trkpt lat="48.68986" lon="1.80173">
        <ele>186.19999694824</ele>
        <time>2012-12-31T10:38:55.000Z</time>
      </trkpt>
      <trkpt lat="48.68977" lon="1.80177">
        <ele>186.39999389648</ele>
        <time>2012-12-31T10:39:01.000Z</time>
      </trkpt>
      <trkpt lat="48.68975" lon="1.80179">
        <ele>186.60000610352</ele>
        <time>2012-12-31T10:39:03.000Z</time>
      </trkpt>
      <trkpt lat="48.68963" lon="1.80183">
        <ele>186.80000305176</ele>
        <time>2012-12-31T10:39:11.000Z</time>
      </trkpt>
      <trkpt lat="48.6896" lon="1.80184">
        <ele>187</ele>
        <time>2012-12-31T10:39:13.000Z</time>
      </trkpt>
      <trkpt lat="48.68951" lon="1.80189">
        <ele>187.19999694824</ele>
        <time>2012-12-31T10:39:20.000Z</time>
      </trkpt>
      <trkpt lat="48.6895" lon="1.80191">
        <ele>187.19999694824</ele>
        <time>2012-12-31T10:39:21.000Z</time>
      </trkpt>
      <trkpt lat="48.6894" lon="1.802">
        <ele>187.60000610352</ele>
        <time>2012-12-31T10:39:30.000Z</time>
      </trkpt>
      <trkpt lat="48.68932" lon="1.80205">
        <ele>188</ele>
        <time>2012-12-31T10:39:36.000Z</time>
      </trkpt>
      <trkpt lat="48.68928" lon="1.80206">
        <ele>188</ele>
        <time>2012-12-31T10:39:39.000Z</time>
      </trkpt>
      <trkpt lat="48.6892" lon="1.80208">
        <ele>188.39999389648</ele>
        <time>2012-12-31T10:39:45.000Z</time>
      </trkpt>
      <trkpt lat="48.68913" lon="1.8021">
        <ele>188.39999389648</ele>
        <time>2012-12-31T10:39:49.000Z</time>
      </trkpt>
      <trkpt lat="48.68904" lon="1.80212">
        <ele>188.39999389648</ele>
        <time>2012-12-31T10:39:55.000Z</time>
      </trkpt>
      <trkpt lat="48.68892" lon="1.80215">
        <ele>188.39999389648</ele>
        <time>2012-12-31T10:40:04.000Z</time>
      </trkpt>
      <trkpt lat="48.68891" lon="1.80216">
        <ele>188.39999389648</ele>
        <time>2012-12-31T10:40:05.000Z</time>
      </trkpt>
      <trkpt lat="48.68883" lon="1.80213">
        <ele>188.19999694824</ele>
        <time>2012-12-31T10:40:12.000Z</time>
      </trkpt>
      <trkpt lat="48.68875" lon="1.80209">
        <ele>188.19999694824</ele>
        <time>2012-12-31T10:40:18.000Z</time>
      </trkpt>
      <trkpt lat="48.68873" lon="1.80208">
        <ele>188.19999694824</ele>
        <time>2012-12-31T10:40:19.000Z</time>
      </trkpt>
      <trkpt lat="48.68868" lon="1.80205">
        <ele>188</ele>
        <time>2012-12-31T10:40:23.000Z</time>
      </trkpt>
      <trkpt lat="48.68857" lon="1.80204">
        <ele>188</ele>
        <time>2012-12-31T10:40:31.000Z</time>
      </trkpt>
      <trkpt lat="48.68851" lon="1.80203">
        <ele>188</ele>
        <time>2012-12-31T10:40:37.000Z</time>
      </trkpt>
      <trkpt lat="48.6885" lon="1.80204">
        <ele>188</ele>
        <time>2012-12-31T10:40:40.000Z</time>
      </trkpt>
      <trkpt lat="48.68843" lon="1.80206">
        <ele>188</ele>
        <time>2012-12-31T10:40:53.000Z</time>
      </trkpt>
      <trkpt lat="48.68834" lon="1.80205">
        <ele>188</ele>
        <time>2012-12-31T10:40:59.000Z</time>
      </trkpt>
      <trkpt lat="48.68823" lon="1.80207">
        <ele>187.80000305176</ele>
        <time>2012-12-31T10:41:08.000Z</time>
      </trkpt>
      <trkpt lat="48.68814" lon="1.80211">
        <ele>187.60000610352</ele>
        <time>2012-12-31T10:41:15.000Z</time>
      </trkpt>
      <trkpt lat="48.68811" lon="1.80213">
        <ele>187.60000610352</ele>
        <time>2012-12-31T10:41:17.000Z</time>
      </trkpt>
      <trkpt lat="48.68802" lon="1.80218">
        <ele>187.60000610352</ele>
        <time>2012-12-31T10:41:24.000Z</time>
      </trkpt>
      <trkpt lat="48.68793" lon="1.80224">
        <ele>187.60000610352</ele>
        <time>2012-12-31T10:41:32.000Z</time>
      </trkpt>
      <trkpt lat="48.68785" lon="1.8023">
        <ele>187.60000610352</ele>
        <time>2012-12-31T10:41:39.000Z</time>
      </trkpt>
      <trkpt lat="48.68781" lon="1.80235">
        <ele>187.60000610352</ele>
        <time>2012-12-31T10:41:44.000Z</time>
      </trkpt>
      <trkpt lat="48.68777" lon="1.80245">
        <ele>187.80000305176</ele>
        <time>2012-12-31T10:41:50.000Z</time>
      </trkpt>
      <trkpt lat="48.68773" lon="1.80252">
        <ele>188</ele>
        <time>2012-12-31T10:41:56.000Z</time>
      </trkpt>
      <trkpt lat="48.68769" lon="1.80258">
        <ele>188</ele>
        <time>2012-12-31T10:42:01.000Z</time>
      </trkpt>
      <trkpt lat="48.68766" lon="1.80262">
        <ele>188</ele>
        <time>2012-12-31T10:42:05.000Z</time>
      </trkpt>
      <trkpt lat="48.68762" lon="1.80266">
        <ele>188</ele>
        <time>2012-12-31T10:42:08.000Z</time>
      </trkpt>
      <trkpt lat="48.68753" lon="1.80273">
        <ele>188.19999694824</ele>
        <time>2012-12-31T10:42:15.000Z</time>
      </trkpt>
      <trkpt lat="48.68746" lon="1.80281">
        <ele>188.19999694824</ele>
        <time>2012-12-31T10:42:21.000Z</time>
      </trkpt>
      <trkpt lat="48.68742" lon="1.80287">
        <ele>188.39999389648</ele>
        <time>2012-12-31T10:42:28.000Z</time>
      </trkpt>
      <trkpt lat="48.6874" lon="1.80287">
        <ele>188.39999389648</ele>
        <time>2012-12-31T10:42:30.000Z</time>
      </trkpt>
      <trkpt lat="48.68738" lon="1.80287">
        <ele>188.39999389648</ele>
        <time>2012-12-31T10:42:32.000Z</time>
      </trkpt>
      <trkpt lat="48.6873" lon="1.80288">
        <ele>188.39999389648</ele>
        <time>2012-12-31T10:42:39.000Z</time>
      </trkpt>
      <trkpt lat="48.68724" lon="1.80289">
        <ele>188.39999389648</ele>
        <time>2012-12-31T10:42:46.000Z</time>
      </trkpt>
      <trkpt lat="48.68718" lon="1.80289">
        <ele>188.39999389648</ele>
        <time>2012-12-31T10:42:50.000Z</time>
      </trkpt>
      <trkpt lat="48.68711" lon="1.8029">
        <ele>188.39999389648</ele>
        <time>2012-12-31T10:42:56.000Z</time>
      </trkpt>
      <trkpt lat="48.6871" lon="1.80291">
        <ele>188.39999389648</ele>
        <time>2012-12-31T10:42:57.000Z</time>
      </trkpt>
      <trkpt lat="48.68701" lon="1.80294">
        <ele>188.39999389648</ele>
        <time>2012-12-31T10:43:05.000Z</time>
      </trkpt>
      <trkpt lat="48.687" lon="1.80294">
        <ele>188.39999389648</ele>
        <time>2012-12-31T10:43:08.000Z</time>
      </trkpt>
      <trkpt lat="48.6869" lon="1.80297">
        <ele>188.60000610352</ele>
        <time>2012-12-31T10:43:20.000Z</time>
      </trkpt>
      <trkpt lat="48.68684" lon="1.803">
        <ele>188.60000610352</ele>
        <time>2012-12-31T10:43:23.000Z</time>
      </trkpt>
      <trkpt lat="48.68675" lon="1.80299">
        <ele>188.60000610352</ele>
        <time>2012-12-31T10:43:30.000Z</time>
      </trkpt>
      <trkpt lat="48.68666" lon="1.80297">
        <ele>188.60000610352</ele>
        <time>2012-12-31T10:43:37.000Z</time>
      </trkpt>
      <trkpt lat="48.68663" lon="1.80297">
        <ele>188.39999389648</ele>
        <time>2012-12-31T10:43:39.000Z</time>
      </trkpt>
      <trkpt lat="48.68652" lon="1.80291">
        <ele>187.80000305176</ele>
        <time>2012-12-31T10:43:47.000Z</time>
      </trkpt>
      <trkpt lat="48.68643" lon="1.80288">
        <ele>187.39999389648</ele>
        <time>2012-12-31T10:43:54.000Z</time>
      </trkpt>
      <trkpt lat="48.68632" lon="1.80286">
        <ele>187</ele>
        <time>2012-12-31T10:44:02.000Z</time>
      </trkpt>
      <trkpt lat="48.6863" lon="1.80286">
        <ele>187</ele>
        <time>2012-12-31T10:44:03.000Z</time>
      </trkpt>
      <trkpt lat="48.68626" lon="1.8029">
        <ele>186.80000305176</ele>
        <time>2012-12-31T10:44:07.000Z</time>
      </trkpt>
      <trkpt lat="48.6862" lon="1.803">
        <ele>187</ele>
        <time>2012-12-31T10:44:15.000Z</time>
      </trkpt>
      <trkpt lat="48.68617" lon="1.8031">
        <ele>187</ele>
        <time>2012-12-31T10:44:21.000Z</time>
      </trkpt>
      <trkpt lat="48.68617" lon="1.80322">
        <ele>187.19999694824</ele>
        <time>2012-12-31T10:44:26.000Z</time>
      </trkpt>
      <trkpt lat="48.68616" lon="1.80335">
        <ele>187.39999389648</ele>
        <time>2012-12-31T10:44:33.000Z</time>
      </trkpt>
      <trkpt lat="48.68613" lon="1.80346">
        <ele>187</ele>
        <time>2012-12-31T10:44:39.000Z</time>
      </trkpt>
      <trkpt lat="48.68611" lon="1.80357">
        <ele>186.60000610352</ele>
        <time>2012-12-31T10:44:45.000Z</time>
      </trkpt>
      <trkpt lat="48.6861" lon="1.8037">
        <ele>186.39999389648</ele>
        <time>2012-12-31T10:44:51.000Z</time>
      </trkpt>
      <trkpt lat="48.68608" lon="1.80386">
        <ele>185.80000305176</ele>
        <time>2012-12-31T10:44:59.000Z</time>
      </trkpt>
      <trkpt lat="48.68608" lon="1.80402">
        <ele>185.39999389648</ele>
        <time>2012-12-31T10:45:03.000Z</time>
      </trkpt>
      <trkpt lat="48.68604" lon="1.80429">
        <ele>184.80000305176</ele>
        <time>2012-12-31T10:45:09.000Z</time>
      </trkpt>
      <trkpt lat="48.68599" lon="1.80453">
        <ele>184.60000610352</ele>
        <time>2012-12-31T10:45:14.000Z</time>
      </trkpt>
      <trkpt lat="48.68597" lon="1.80478">
        <ele>184.60000610352</ele>
        <time>2012-12-31T10:45:19.000Z</time>
      </trkpt>
      <trkpt lat="48.68593" lon="1.80499">
        <ele>184.39999389648</ele>
        <time>2012-12-31T10:45:24.000Z</time>
      </trkpt>
      <trkpt lat="48.68589" lon="1.80533">
        <ele>185</ele>
        <time>2012-12-31T10:45:31.000Z</time>
      </trkpt>
      <trkpt lat="48.68587" lon="1.80561">
        <ele>185.60000610352</ele>
        <time>2012-12-31T10:45:38.000Z</time>
      </trkpt>
      <trkpt lat="48.68583" lon="1.80585">
        <ele>185.80000305176</ele>
        <time>2012-12-31T10:45:43.000Z</time>
      </trkpt>
      <trkpt lat="48.68581" lon="1.80613">
        <ele>185.39999389648</ele>
        <time>2012-12-31T10:45:48.000Z</time>
      </trkpt>
      <trkpt lat="48.6858" lon="1.80638">
        <ele>185.19999694824</ele>
        <time>2012-12-31T10:45:53.000Z</time>
      </trkpt>
      <trkpt lat="48.68579" lon="1.80666">
        <ele>184.80000305176</ele>
        <time>2012-12-31T10:45:59.000Z</time>
      </trkpt>
      <trkpt lat="48.68577" lon="1.80687">
        <ele>184.39999389648</ele>
        <time>2012-12-31T10:46:04.000Z</time>
      </trkpt>
      <trkpt lat="48.68574" lon="1.80713">
        <ele>183.80000305176</ele>
        <time>2012-12-31T10:46:10.000Z</time>
      </trkpt>
      <trkpt lat="48.68573" lon="1.80737">
        <ele>183.39999389648</ele>
        <time>2012-12-31T10:46:15.000Z</time>
      </trkpt>
      <trkpt lat="48.6857" lon="1.80767">
        <ele>182.80000305176</ele>
        <time>2012-12-31T10:46:21.000Z</time>
      </trkpt>
      <trkpt lat="48.68568" lon="1.80793">
        <ele>182.39999389648</ele>
        <time>2012-12-31T10:46:27.000Z</time>
      </trkpt>
      <trkpt lat="48.68565" lon="1.80816">
        <ele>181.80000305176</ele>
        <time>2012-12-31T10:46:32.000Z</time>
      </trkpt>
      <trkpt lat="48.68564" lon="1.80841">
        <ele>181.60000610352</ele>
        <time>2012-12-31T10:46:38.000Z</time>
      </trkpt>
      <trkpt lat="48.68563" lon="1.80879">
        <ele>181.39999389648</ele>
        <time>2012-12-31T10:46:46.000Z</time>
      </trkpt>
      <trkpt lat="48.68564" lon="1.80909">
        <ele>181.60000610352</ele>
        <time>2012-12-31T10:46:53.000Z</time>
      </trkpt>
      <trkpt lat="48.68562" lon="1.80936">
        <ele>181.19999694824</ele>
        <time>2012-12-31T10:46:59.000Z</time>
      </trkpt>
      <trkpt lat="48.68565" lon="1.80971">
        <ele>181.39999389648</ele>
        <time>2012-12-31T10:47:06.000Z</time>
      </trkpt>
      <trkpt lat="48.68564" lon="1.80994">
        <ele>181.19999694824</ele>
        <time>2012-12-31T10:47:11.000Z</time>
      </trkpt>
      <trkpt lat="48.68563" lon="1.81">
        <ele>181.19999694824</ele>
        <time>2012-12-31T10:47:12.000Z</time>
      </trkpt>
      <trkpt lat="48.68556" lon="1.81027">
        <ele>180.60000610352</ele>
        <time>2012-12-31T10:47:19.000Z</time>
      </trkpt>
      <trkpt lat="48.68544" lon="1.81041">
        <ele>179.60000610352</ele>
        <time>2012-12-31T10:47:25.000Z</time>
      </trkpt>
      <trkpt lat="48.68541" lon="1.81042">
        <ele>179.39999389648</ele>
        <time>2012-12-31T10:47:26.000Z</time>
      </trkpt>
      <trkpt lat="48.68535" lon="1.81059">
        <ele>178.80000305176</ele>
        <time>2012-12-31T10:47:31.000Z</time>
      </trkpt>
      <trkpt lat="48.68531" lon="1.81094">
        <ele>178.39999389648</ele>
        <time>2012-12-31T10:47:39.000Z</time>
      </trkpt>
      <trkpt lat="48.68528" lon="1.81121">
        <ele>178</ele>
        <time>2012-12-31T10:47:45.000Z</time>
      </trkpt>
      <trkpt lat="48.68527" lon="1.81133">
        <ele>177.80000305176</ele>
        <time>2012-12-31T10:47:51.000Z</time>
      </trkpt>
      <trkpt lat="48.68525" lon="1.81147">
        <ele>177.60000610352</ele>
        <time>2012-12-31T10:47:58.000Z</time>
      </trkpt>
      <trkpt lat="48.68523" lon="1.81161">
        <ele>177.39999389648</ele>
        <time>2012-12-31T10:48:06.000Z</time>
      </trkpt>
      <trkpt lat="48.68521" lon="1.81171">
        <ele>177.39999389648</ele>
        <time>2012-12-31T10:48:12.000Z</time>
      </trkpt>
      <trkpt lat="48.68521" lon="1.81188">
        <ele>178.39999389648</ele>
        <time>2012-12-31T10:48:20.000Z</time>
      </trkpt>
      <trkpt lat="48.68521" lon="1.81198">
        <ele>178.80000305176</ele>
        <time>2012-12-31T10:48:25.000Z</time>
      </trkpt>
      <trkpt lat="48.68518" lon="1.81216">
        <ele>179.80000305176</ele>
        <time>2012-12-31T10:48:35.000Z</time>
      </trkpt>
      <trkpt lat="48.68517" lon="1.81231">
        <ele>180.39999389648</ele>
        <time>2012-12-31T10:48:43.000Z</time>
      </trkpt>
      <trkpt lat="48.68516" lon="1.81245">
        <ele>181.19999694824</ele>
        <time>2012-12-31T10:48:51.000Z</time>
      </trkpt>
      <trkpt lat="48.68515" lon="1.81257">
        <ele>181.60000610352</ele>
        <time>2012-12-31T10:48:58.000Z</time>
      </trkpt>
      <trkpt lat="48.68516" lon="1.81264">
        <ele>181.80000305176</ele>
        <time>2012-12-31T10:49:03.000Z</time>
      </trkpt>
      <trkpt lat="48.68516" lon="1.81277">
        <ele>182.19999694824</ele>
        <time>2012-12-31T10:49:10.000Z</time>
      </trkpt>
      <trkpt lat="48.68514" lon="1.81285">
        <ele>182.19999694824</ele>
        <time>2012-12-31T10:49:15.000Z</time>
      </trkpt>
      <trkpt lat="48.68511" lon="1.81294">
        <ele>182.39999389648</ele>
        <time>2012-12-31T10:49:20.000Z</time>
      </trkpt>
      <trkpt lat="48.6851" lon="1.81309">
        <ele>182.60000610352</ele>
        <time>2012-12-31T10:49:27.000Z</time>
      </trkpt>
      <trkpt lat="48.68508" lon="1.81324">
        <ele>183</ele>
        <time>2012-12-31T10:49:35.000Z</time>
      </trkpt>
      <trkpt lat="48.68506" lon="1.81344">
        <ele>183.19999694824</ele>
        <time>2012-12-31T10:49:45.000Z</time>
      </trkpt>
      <trkpt lat="48.68505" lon="1.81362">
        <ele>183</ele>
        <time>2012-12-31T10:49:54.000Z</time>
      </trkpt>
      <trkpt lat="48.68504" lon="1.81378">
        <ele>183</ele>
        <time>2012-12-31T10:50:02.000Z</time>
      </trkpt>
      <trkpt lat="48.68504" lon="1.81391">
        <ele>183</ele>
        <time>2012-12-31T10:50:09.000Z</time>
      </trkpt>
      <trkpt lat="48.68504" lon="1.814">
        <ele>183</ele>
        <time>2012-12-31T10:50:15.000Z</time>
      </trkpt>
      <trkpt lat="48.68503" lon="1.81412">
        <ele>183</ele>
        <time>2012-12-31T10:50:21.000Z</time>
      </trkpt>
      <trkpt lat="48.68502" lon="1.81429">
        <ele>182.60000610352</ele>
        <time>2012-12-31T10:50:28.000Z</time>
      </trkpt>
      <trkpt lat="48.68501" lon="1.81433">
        <ele>182.39999389648</ele>
        <time>2012-12-31T10:50:30.000Z</time>
      </trkpt>
      <trkpt lat="48.68498" lon="1.81448">
        <ele>182</ele>
        <time>2012-12-31T10:50:37.000Z</time>
      </trkpt>
      <trkpt lat="48.68497" lon="1.81462">
        <ele>181.60000610352</ele>
        <time>2012-12-31T10:50:44.000Z</time>
      </trkpt>
      <trkpt lat="48.68495" lon="1.81485">
        <ele>181</ele>
        <time>2012-12-31T10:50:55.000Z</time>
      </trkpt>
      <trkpt lat="48.68493" lon="1.81505">
        <ele>180.60000610352</ele>
        <time>2012-12-31T10:51:05.000Z</time>
      </trkpt>
      <trkpt lat="48.68491" lon="1.81523">
        <ele>180.19999694824</ele>
        <time>2012-12-31T10:51:13.000Z</time>
      </trkpt>
      <trkpt lat="48.68489" lon="1.8154">
        <ele>180</ele>
        <time>2012-12-31T10:51:22.000Z</time>
      </trkpt>
      <trkpt lat="48.68487" lon="1.81557">
        <ele>179.80000305176</ele>
        <time>2012-12-31T10:51:29.000Z</time>
      </trkpt>
      <trkpt lat="48.68485" lon="1.81571">
        <ele>179.60000610352</ele>
        <time>2012-12-31T10:51:36.000Z</time>
      </trkpt>
      <trkpt lat="48.68484" lon="1.81584">
        <ele>179.39999389648</ele>
        <time>2012-12-31T10:51:43.000Z</time>
      </trkpt>
      <trkpt lat="48.68481" lon="1.81606">
        <ele>179.39999389648</ele>
        <time>2012-12-31T10:51:54.000Z</time>
      </trkpt>
      <trkpt lat="48.6848" lon="1.81624">
        <ele>179.60000610352</ele>
        <time>2012-12-31T10:52:03.000Z</time>
      </trkpt>
      <trkpt lat="48.6848" lon="1.8164">
        <ele>179.80000305176</ele>
        <time>2012-12-31T10:52:11.000Z</time>
      </trkpt>
      <trkpt lat="48.68477" lon="1.81656">
        <ele>180</ele>
        <time>2012-12-31T10:52:20.000Z</time>
      </trkpt>
      <trkpt lat="48.68476" lon="1.81668">
        <ele>180</ele>
        <time>2012-12-31T10:52:27.000Z</time>
      </trkpt>
      <trkpt lat="48.68473" lon="1.81687">
        <ele>180.60000610352</ele>
        <time>2012-12-31T10:52:36.000Z</time>
      </trkpt>
      <trkpt lat="48.68472" lon="1.81703">
        <ele>181</ele>
        <time>2012-12-31T10:52:44.000Z</time>
      </trkpt>
      <trkpt lat="48.68471" lon="1.81718">
        <ele>181.19999694824</ele>
        <time>2012-12-31T10:52:50.000Z</time>
      </trkpt>
      <trkpt lat="48.68469" lon="1.81739">
        <ele>181.80000305176</ele>
        <time>2012-12-31T10:53:00.000Z</time>
      </trkpt>
      <trkpt lat="48.68467" lon="1.81758">
        <ele>182</ele>
        <time>2012-12-31T10:53:10.000Z</time>
      </trkpt>
      <trkpt lat="48.68465" lon="1.81781">
        <ele>182</ele>
        <time>2012-12-31T10:53:21.000Z</time>
      </trkpt>
      <trkpt lat="48.68462" lon="1.81801">
        <ele>181.80000305176</ele>
        <time>2012-12-31T10:53:31.000Z</time>
      </trkpt>
      <trkpt lat="48.68461" lon="1.81812">
        <ele>182</ele>
        <time>2012-12-31T10:53:36.000Z</time>
      </trkpt>
      <trkpt lat="48.68461" lon="1.81813">
        <ele>182</ele>
        <time>2012-12-31T10:53:38.000Z</time>
      </trkpt>
      <trkpt lat="48.68461" lon="1.81824">
        <ele>182</ele>
        <time>2012-12-31T10:53:58.000Z</time>
      </trkpt>
      <trkpt lat="48.68458" lon="1.81846">
        <ele>182</ele>
        <time>2012-12-31T10:54:07.000Z</time>
      </trkpt>
      <trkpt lat="48.68456" lon="1.8186">
        <ele>182.19999694824</ele>
        <time>2012-12-31T10:54:16.000Z</time>
      </trkpt>
      <trkpt lat="48.6846" lon="1.81862">
        <ele>182.39999389648</ele>
        <time>2012-12-31T10:54:20.000Z</time>
      </trkpt>
      <trkpt lat="48.68466" lon="1.81863">
        <ele>182.60000610352</ele>
        <time>2012-12-31T10:54:27.000Z</time>
      </trkpt>
      <trkpt lat="48.68474" lon="1.81865">
        <ele>183</ele>
        <time>2012-12-31T10:54:36.000Z</time>
      </trkpt>
      <trkpt lat="48.68477" lon="1.81864">
        <ele>183.19999694824</ele>
        <time>2012-12-31T10:54:38.000Z</time>
      </trkpt>
      <trkpt lat="48.68486" lon="1.81866">
        <ele>183.60000610352</ele>
        <time>2012-12-31T10:54:45.000Z</time>
      </trkpt>
      <trkpt lat="48.68498" lon="1.81869">
        <ele>184.19999694824</ele>
        <time>2012-12-31T10:54:53.000Z</time>
      </trkpt>
      <trkpt lat="48.68506" lon="1.81868">
        <ele>184.39999389648</ele>
        <time>2012-12-31T10:54:59.000Z</time>
      </trkpt>
      <trkpt lat="48.68511" lon="1.81867">
        <ele>184.60000610352</ele>
        <time>2012-12-31T10:55:02.000Z</time>
      </trkpt>
      <trkpt lat="48.68516" lon="1.81867">
        <ele>184.80000305176</ele>
        <time>2012-12-31T10:55:06.000Z</time>
      </trkpt>
      <trkpt lat="48.68524" lon="1.81869">
        <ele>185</ele>
        <time>2012-12-31T10:55:12.000Z</time>
      </trkpt>
      <trkpt lat="48.68536" lon="1.81871">
        <ele>185.19999694824</ele>
        <time>2012-12-31T10:55:20.000Z</time>
      </trkpt>
      <trkpt lat="48.68544" lon="1.81875">
        <ele>185.39999389648</ele>
        <time>2012-12-31T10:55:26.000Z</time>
      </trkpt>
      <trkpt lat="48.68555" lon="1.81877">
        <ele>185.80000305176</ele>
        <time>2012-12-31T10:55:34.000Z</time>
      </trkpt>
      <trkpt lat="48.68564" lon="1.81881">
        <ele>185.80000305176</ele>
        <time>2012-12-31T10:55:40.000Z</time>
      </trkpt>
      <trkpt lat="48.68574" lon="1.81882">
        <ele>186.19999694824</ele>
        <time>2012-12-31T10:55:46.000Z</time>
      </trkpt>
      <trkpt lat="48.68586" lon="1.81884">
        <ele>186.39999389648</ele>
        <time>2012-12-31T10:55:54.000Z</time>
      </trkpt>
      <trkpt lat="48.68589" lon="1.81884">
        <ele>186.39999389648</ele>
        <time>2012-12-31T10:55:57.000Z</time>
      </trkpt>
      <trkpt lat="48.68596" lon="1.81886">
        <ele>186.60000610352</ele>
        <time>2012-12-31T10:56:02.000Z</time>
      </trkpt>
      <trkpt lat="48.68609" lon="1.81887">
        <ele>186.80000305176</ele>
        <time>2012-12-31T10:56:11.000Z</time>
      </trkpt>
      <trkpt lat="48.68621" lon="1.81891">
        <ele>187</ele>
        <time>2012-12-31T10:56:19.000Z</time>
      </trkpt>
      <trkpt lat="48.6863" lon="1.81892">
        <ele>187.19999694824</ele>
        <time>2012-12-31T10:56:26.000Z</time>
      </trkpt>
      <trkpt lat="48.68641" lon="1.81894">
        <ele>187.39999389648</ele>
        <time>2012-12-31T10:56:33.000Z</time>
      </trkpt>
      <trkpt lat="48.68654" lon="1.81896">
        <ele>187.60000610352</ele>
        <time>2012-12-31T10:56:42.000Z</time>
      </trkpt>
      <trkpt lat="48.68663" lon="1.81897">
        <ele>187.80000305176</ele>
        <time>2012-12-31T10:56:48.000Z</time>
      </trkpt>
      <trkpt lat="48.68673" lon="1.81898">
        <ele>187.80000305176</ele>
        <time>2012-12-31T10:56:54.000Z</time>
      </trkpt>
      <trkpt lat="48.68684" lon="1.81901">
        <ele>187.39999389648</ele>
        <time>2012-12-31T10:57:02.000Z</time>
      </trkpt>
      <trkpt lat="48.68694" lon="1.81904">
        <ele>187.19999694824</ele>
        <time>2012-12-31T10:57:09.000Z</time>
      </trkpt>
      <trkpt lat="48.68702" lon="1.81907">
        <ele>187</ele>
        <time>2012-12-31T10:57:16.000Z</time>
      </trkpt>
      <trkpt lat="48.68712" lon="1.81907">
        <ele>186.60000610352</ele>
        <time>2012-12-31T10:57:22.000Z</time>
      </trkpt>
      <trkpt lat="48.68725" lon="1.8191">
        <ele>186.39999389648</ele>
        <time>2012-12-31T10:57:31.000Z</time>
      </trkpt>
      <trkpt lat="48.68738" lon="1.81912">
        <ele>186</ele>
        <time>2012-12-31T10:57:40.000Z</time>
      </trkpt>
      <trkpt lat="48.68748" lon="1.81914">
        <ele>185.80000305176</ele>
        <time>2012-12-31T10:57:46.000Z</time>
      </trkpt>
      <trkpt lat="48.68761" lon="1.81912">
        <ele>186.19999694824</ele>
        <time>2012-12-31T10:57:54.000Z</time>
      </trkpt>
      <trkpt lat="48.68776" lon="1.81912">
        <ele>186.80000305176</ele>
        <time>2012-12-31T10:58:03.000Z</time>
      </trkpt>
      <trkpt lat="48.68786" lon="1.81913">
        <ele>187.19999694824</ele>
        <time>2012-12-31T10:58:10.000Z</time>
      </trkpt>
      <trkpt lat="48.68794" lon="1.81914">
        <ele>187.39999389648</ele>
        <time>2012-12-31T10:58:16.000Z</time>
      </trkpt>
      <trkpt lat="48.68804" lon="1.81917">
        <ele>187.80000305176</ele>
        <time>2012-12-31T10:58:23.000Z</time>
      </trkpt>
      <trkpt lat="48.68815" lon="1.8192">
        <ele>188.19999694824</ele>
        <time>2012-12-31T10:58:30.000Z</time>
      </trkpt>
      <trkpt lat="48.68826" lon="1.81923">
        <ele>188.80000305176</ele>
        <time>2012-12-31T10:58:37.000Z</time>
      </trkpt>
      <trkpt lat="48.68837" lon="1.81928">
        <ele>189</ele>
        <time>2012-12-31T10:58:44.000Z</time>
      </trkpt>
      <trkpt lat="48.68843" lon="1.81929">
        <ele>188.80000305176</ele>
        <time>2012-12-31T10:58:49.000Z</time>
      </trkpt>
      <trkpt lat="48.6885" lon="1.81934">
        <ele>188.80000305176</ele>
        <time>2012-12-31T10:58:54.000Z</time>
      </trkpt>
      <trkpt lat="48.68855" lon="1.81937">
        <ele>188.80000305176</ele>
        <time>2012-12-31T10:58:58.000Z</time>
      </trkpt>
      <trkpt lat="48.68867" lon="1.81934">
        <ele>188.60000610352</ele>
        <time>2012-12-31T10:59:06.000Z</time>
      </trkpt>
      <trkpt lat="48.68879" lon="1.81933">
        <ele>188.39999389648</ele>
        <time>2012-12-31T10:59:14.000Z</time>
      </trkpt>
      <trkpt lat="48.68888" lon="1.81933">
        <ele>188.19999694824</ele>
        <time>2012-12-31T10:59:20.000Z</time>
      </trkpt>
      <trkpt lat="48.68898" lon="1.81943">
        <ele>188</ele>
        <time>2012-12-31T10:59:29.000Z</time>
      </trkpt>
      <trkpt lat="48.68899" lon="1.81944">
        <ele>188</ele>
        <time>2012-12-31T10:59:31.000Z</time>
      </trkpt>
      <trkpt lat="48.68901" lon="1.81947">
        <ele>187.80000305176</ele>
        <time>2012-12-31T10:59:39.000Z</time>
      </trkpt>
      <trkpt lat="48.68922" lon="1.81953">
        <ele>187.19999694824</ele>
        <time>2012-12-31T11:01:34.000Z</time>
      </trkpt>
      <trkpt lat="48.68929" lon="1.81955">
        <ele>186.80000305176</ele>
        <time>2012-12-31T11:01:39.000Z</time>
      </trkpt>
      <trkpt lat="48.68938" lon="1.8196">
        <ele>186.39999389648</ele>
        <time>2012-12-31T11:01:47.000Z</time>
      </trkpt>
      <trkpt lat="48.68942" lon="1.81964">
        <ele>186</ele>
        <time>2012-12-31T11:01:51.000Z</time>
      </trkpt>
      <trkpt lat="48.68945" lon="1.81966">
        <ele>185.80000305176</ele>
        <time>2012-12-31T11:01:53.000Z</time>
      </trkpt>
      <trkpt lat="48.68952" lon="1.81972">
        <ele>185.19999694824</ele>
        <time>2012-12-31T11:02:00.000Z</time>
      </trkpt>
      <trkpt lat="48.68954" lon="1.81973">
        <ele>185</ele>
        <time>2012-12-31T11:02:02.000Z</time>
      </trkpt>
      <trkpt lat="48.68964" lon="1.81969">
        <ele>184.80000305176</ele>
        <time>2012-12-31T11:02:10.000Z</time>
      </trkpt>
      <trkpt lat="48.68967" lon="1.81963">
        <ele>184.80000305176</ele>
        <time>2012-12-31T11:02:14.000Z</time>
      </trkpt>
      <trkpt lat="48.68969" lon="1.81958">
        <ele>184.80000305176</ele>
        <time>2012-12-31T11:02:17.000Z</time>
      </trkpt>
      <trkpt lat="48.68979" lon="1.81952">
        <ele>184.80000305176</ele>
        <time>2012-12-31T11:02:25.000Z</time>
      </trkpt>
      <trkpt lat="48.68981" lon="1.81951">
        <ele>184.60000610352</ele>
        <time>2012-12-31T11:02:30.000Z</time>
      </trkpt>
      <trkpt lat="48.6899" lon="1.81953">
        <ele>184.19999694824</ele>
        <time>2012-12-31T11:02:57.000Z</time>
      </trkpt>
      <trkpt lat="48.6899" lon="1.81953">
        <ele>184.19999694824</ele>
        <time>2012-12-31T11:02:58.000Z</time>
      </trkpt>
      <trkpt lat="48.68981" lon="1.81952">
        <ele>184.60000610352</ele>
        <time>2012-12-31T11:03:18.000Z</time>
      </trkpt>
      <trkpt lat="48.68978" lon="1.81955">
        <ele>184.60000610352</ele>
        <time>2012-12-31T11:03:21.000Z</time>
      </trkpt>
      <trkpt lat="48.68981" lon="1.81953">
        <ele>184.60000610352</ele>
        <time>2012-12-31T11:03:25.000Z</time>
      </trkpt>
      <trkpt lat="48.68988" lon="1.81952">
        <ele>184.39999389648</ele>
        <time>2012-12-31T11:03:30.000Z</time>
      </trkpt>
      <trkpt lat="48.68993" lon="1.81952">
        <ele>184</ele>
        <time>2012-12-31T11:03:35.000Z</time>
      </trkpt>
      <trkpt lat="48.68989" lon="1.81951">
        <ele>184.39999389648</ele>
        <time>2012-12-31T11:03:42.000Z</time>
      </trkpt>
      <trkpt lat="48.6899" lon="1.81952">
        <ele>184.19999694824</ele>
        <time>2012-12-31T11:03:47.000Z</time>
      </trkpt>
      <trkpt lat="48.68992" lon="1.81954">
        <ele>184</ele>
        <time>2012-12-31T11:03:51.000Z</time>
      </trkpt>
      <trkpt lat="48.69012" lon="1.81979">
        <ele>182</ele>
        <time>2012-12-31T11:04:53.000Z</time>
      </trkpt>
      <trkpt lat="48.69017" lon="1.81983">
        <ele>181.60000610352</ele>
        <time>2012-12-31T11:04:57.000Z</time>
      </trkpt>
      <trkpt lat="48.69021" lon="1.81982">
        <ele>181.60000610352</ele>
        <time>2012-12-31T11:05:02.000Z</time>
      </trkpt>
      <trkpt lat="48.69022" lon="1.81983">
        <ele>181.39999389648</ele>
        <time>2012-12-31T11:05:06.000Z</time>
      </trkpt>
      <trkpt lat="48.69026" lon="1.81995">
        <ele>180.60000610352</ele>
        <time>2012-12-31T11:06:31.000Z</time>
      </trkpt>
      <trkpt lat="48.69031" lon="1.82005">
        <ele>180.19999694824</ele>
        <time>2012-12-31T11:06:36.000Z</time>
      </trkpt>
      <trkpt lat="48.69042" lon="1.82022">
        <ele>179.80000305176</ele>
        <time>2012-12-31T11:06:47.000Z</time>
      </trkpt>
      <trkpt lat="48.69052" lon="1.82033">
        <ele>179.60000610352</ele>
        <time>2012-12-31T11:06:56.000Z</time>
      </trkpt>
      <trkpt lat="48.69068" lon="1.82049">
        <ele>179.19999694824</ele>
        <time>2012-12-31T11:07:10.000Z</time>
      </trkpt>
      <trkpt lat="48.69079" lon="1.8206">
        <ele>179</ele>
        <time>2012-12-31T11:07:19.000Z</time>
      </trkpt>
      <trkpt lat="48.6909" lon="1.82073">
        <ele>179</ele>
        <time>2012-12-31T11:07:29.000Z</time>
      </trkpt>
      <trkpt lat="48.69102" lon="1.82086">
        <ele>179.19999694824</ele>
        <time>2012-12-31T11:07:39.000Z</time>
      </trkpt>
      <trkpt lat="48.69119" lon="1.82103">
        <ele>179.80000305176</ele>
        <time>2012-12-31T11:07:53.000Z</time>
      </trkpt>
      <trkpt lat="48.6913" lon="1.82113">
        <ele>180</ele>
        <time>2012-12-31T11:08:02.000Z</time>
      </trkpt>
      <trkpt lat="48.69132" lon="1.82116">
        <ele>180</ele>
        <time>2012-12-31T11:08:04.000Z</time>
      </trkpt>
      <trkpt lat="48.69141" lon="1.82129">
        <ele>180.39999389648</ele>
        <time>2012-12-31T11:08:13.000Z</time>
      </trkpt>
      <trkpt lat="48.6915" lon="1.82137">
        <ele>180.39999389648</ele>
        <time>2012-12-31T11:08:20.000Z</time>
      </trkpt>
      <trkpt lat="48.69159" lon="1.82145">
        <ele>180.60000610352</ele>
        <time>2012-12-31T11:08:27.000Z</time>
      </trkpt>
      <trkpt lat="48.69169" lon="1.82154">
        <ele>180.80000305176</ele>
        <time>2012-12-31T11:08:36.000Z</time>
      </trkpt>
      <trkpt lat="48.69184" lon="1.82165">
        <ele>180.60000610352</ele>
        <time>2012-12-31T11:08:48.000Z</time>
      </trkpt>
      <trkpt lat="48.69195" lon="1.82174">
        <ele>180.39999389648</ele>
        <time>2012-12-31T11:08:58.000Z</time>
      </trkpt>
      <trkpt lat="48.69206" lon="1.82187">
        <ele>180.19999694824</ele>
        <time>2012-12-31T11:09:08.000Z</time>
      </trkpt>
      <trkpt lat="48.69222" lon="1.82203">
        <ele>180</ele>
        <time>2012-12-31T11:09:22.000Z</time>
      </trkpt>
      <trkpt lat="48.69238" lon="1.82218">
        <ele>180</ele>
        <time>2012-12-31T11:09:36.000Z</time>
      </trkpt>
      <trkpt lat="48.69251" lon="1.8223">
        <ele>179.80000305176</ele>
        <time>2012-12-31T11:09:47.000Z</time>
      </trkpt>
      <trkpt lat="48.69258" lon="1.82239">
        <ele>179.80000305176</ele>
        <time>2012-12-31T11:09:54.000Z</time>
      </trkpt>
      <trkpt lat="48.69262" lon="1.82244">
        <ele>179.80000305176</ele>
        <time>2012-12-31T11:09:59.000Z</time>
      </trkpt>
      <trkpt lat="48.69266" lon="1.82245">
        <ele>179.80000305176</ele>
        <time>2012-12-31T11:10:02.000Z</time>
      </trkpt>
      <trkpt lat="48.69276" lon="1.82258">
        <ele>179.60000610352</ele>
        <time>2012-12-31T11:10:12.000Z</time>
      </trkpt>
      <trkpt lat="48.69285" lon="1.82266">
        <ele>179.60000610352</ele>
        <time>2012-12-31T11:10:19.000Z</time>
      </trkpt>
      <trkpt lat="48.69287" lon="1.82268">
        <ele>179.60000610352</ele>
        <time>2012-12-31T11:10:21.000Z</time>
      </trkpt>
      <trkpt lat="48.69295" lon="1.82278">
        <ele>179.80000305176</ele>
        <time>2012-12-31T11:10:29.000Z</time>
      </trkpt>
      <trkpt lat="48.693" lon="1.82286">
        <ele>179.80000305176</ele>
        <time>2012-12-31T11:10:35.000Z</time>
      </trkpt>
      <trkpt lat="48.69305" lon="1.82295">
        <ele>180</ele>
        <time>2012-12-31T11:10:41.000Z</time>
      </trkpt>
      <trkpt lat="48.69313" lon="1.823">
        <ele>180</ele>
        <time>2012-12-31T11:10:47.000Z</time>
      </trkpt>
      <trkpt lat="48.69319" lon="1.82304">
        <ele>180.19999694824</ele>
        <time>2012-12-31T11:10:53.000Z</time>
      </trkpt>
      <trkpt lat="48.6933" lon="1.82316">
        <ele>180.39999389648</ele>
        <time>2012-12-31T11:11:03.000Z</time>
      </trkpt>
      <trkpt lat="48.69337" lon="1.82326">
        <ele>180.80000305176</ele>
        <time>2012-12-31T11:11:11.000Z</time>
      </trkpt>
      <trkpt lat="48.69346" lon="1.82336">
        <ele>181</ele>
        <time>2012-12-31T11:11:19.000Z</time>
      </trkpt>
      <trkpt lat="48.69353" lon="1.82346">
        <ele>181</ele>
        <time>2012-12-31T11:11:26.000Z</time>
      </trkpt>
      <trkpt lat="48.6936" lon="1.82357">
        <ele>181</ele>
        <time>2012-12-31T11:11:33.000Z</time>
      </trkpt>
      <trkpt lat="48.69368" lon="1.82369">
        <ele>181</ele>
        <time>2012-12-31T11:11:41.000Z</time>
      </trkpt>
      <trkpt lat="48.69378" lon="1.82384">
        <ele>181.19999694824</ele>
        <time>2012-12-31T11:11:52.000Z</time>
      </trkpt>
      <trkpt lat="48.69389" lon="1.82398">
        <ele>181.39999389648</ele>
        <time>2012-12-31T11:12:02.000Z</time>
      </trkpt>
      <trkpt lat="48.69396" lon="1.82407">
        <ele>181.60000610352</ele>
        <time>2012-12-31T11:12:09.000Z</time>
      </trkpt>
      <trkpt lat="48.69403" lon="1.82415">
        <ele>181.80000305176</ele>
        <time>2012-12-31T11:12:16.000Z</time>
      </trkpt>
      <trkpt lat="48.69412" lon="1.82429">
        <ele>181.60000610352</ele>
        <time>2012-12-31T11:12:26.000Z</time>
      </trkpt>
      <trkpt lat="48.69419" lon="1.82436">
        <ele>181.39999389648</ele>
        <time>2012-12-31T11:12:32.000Z</time>
      </trkpt>
      <trkpt lat="48.69423" lon="1.82444">
        <ele>181.19999694824</ele>
        <time>2012-12-31T11:12:37.000Z</time>
      </trkpt>
      <trkpt lat="48.69427" lon="1.82449">
        <ele>181.19999694824</ele>
        <time>2012-12-31T11:12:41.000Z</time>
      </trkpt>
      <trkpt lat="48.69438" lon="1.82461">
        <ele>180.80000305176</ele>
        <time>2012-12-31T11:12:51.000Z</time>
      </trkpt>
      <trkpt lat="48.69443" lon="1.82468">
        <ele>180.80000305176</ele>
        <time>2012-12-31T11:12:57.000Z</time>
      </trkpt>
      <trkpt lat="48.69451" lon="1.82478">
        <ele>180.60000610352</ele>
        <time>2012-12-31T11:13:05.000Z</time>
      </trkpt>
      <trkpt lat="48.69458" lon="1.82492">
        <ele>180.39999389648</ele>
        <time>2012-12-31T11:13:14.000Z</time>
      </trkpt>
      <trkpt lat="48.69467" lon="1.82502">
        <ele>180.39999389648</ele>
        <time>2012-12-31T11:13:23.000Z</time>
      </trkpt>
      <trkpt lat="48.69473" lon="1.82511">
        <ele>180.60000610352</ele>
        <time>2012-12-31T11:13:30.000Z</time>
      </trkpt>
      <trkpt lat="48.69481" lon="1.82523">
        <ele>180.60000610352</ele>
        <time>2012-12-31T11:13:39.000Z</time>
      </trkpt>
      <trkpt lat="48.69488" lon="1.82531">
        <ele>180.80000305176</ele>
        <time>2012-12-31T11:13:45.000Z</time>
      </trkpt>
      <trkpt lat="48.69495" lon="1.82544">
        <ele>180.80000305176</ele>
        <time>2012-12-31T11:13:54.000Z</time>
      </trkpt>
      <trkpt lat="48.69507" lon="1.82558">
        <ele>180.80000305176</ele>
        <time>2012-12-31T11:14:05.000Z</time>
      </trkpt>
      <trkpt lat="48.69517" lon="1.8257">
        <ele>180.80000305176</ele>
        <time>2012-12-31T11:14:14.000Z</time>
      </trkpt>
      <trkpt lat="48.69526" lon="1.82582">
        <ele>180.60000610352</ele>
        <time>2012-12-31T11:14:23.000Z</time>
      </trkpt>
      <trkpt lat="48.69535" lon="1.82594">
        <ele>180.39999389648</ele>
        <time>2012-12-31T11:14:31.000Z</time>
      </trkpt>
      <trkpt lat="48.69543" lon="1.82603">
        <ele>180.19999694824</ele>
        <time>2012-12-31T11:14:38.000Z</time>
      </trkpt>
      <trkpt lat="48.69554" lon="1.82605">
        <ele>180</ele>
        <time>2012-12-31T11:14:46.000Z</time>
      </trkpt>
      <trkpt lat="48.69561" lon="1.82595">
        <ele>180</ele>
        <time>2012-12-31T11:14:53.000Z</time>
      </trkpt>
      <trkpt lat="48.69564" lon="1.82573">
        <ele>180.19999694824</ele>
        <time>2012-12-31T11:15:03.000Z</time>
      </trkpt>
      <trkpt lat="48.69567" lon="1.82548">
        <ele>180.39999389648</ele>
        <time>2012-12-31T11:15:15.000Z</time>
      </trkpt>
      <trkpt lat="48.69569" lon="1.82526">
        <ele>180.60000610352</ele>
        <time>2012-12-31T11:15:25.000Z</time>
      </trkpt>
      <trkpt lat="48.69571" lon="1.82505">
        <ele>180.80000305176</ele>
        <time>2012-12-31T11:15:34.000Z</time>
      </trkpt>
      <trkpt lat="48.69574" lon="1.82488">
        <ele>180.80000305176</ele>
        <time>2012-12-31T11:15:42.000Z</time>
      </trkpt>
      <trkpt lat="48.69577" lon="1.8247">
        <ele>180.60000610352</ele>
        <time>2012-12-31T11:15:51.000Z</time>
      </trkpt>
      <trkpt lat="48.69575" lon="1.82456">
        <ele>180.39999389648</ele>
        <time>2012-12-31T11:15:57.000Z</time>
      </trkpt>
      <trkpt lat="48.69577" lon="1.82441">
        <ele>180.19999694824</ele>
        <time>2012-12-31T11:16:04.000Z</time>
      </trkpt>
      <trkpt lat="48.69582" lon="1.82419">
        <ele>180</ele>
        <time>2012-12-31T11:16:15.000Z</time>
      </trkpt>
      <trkpt lat="48.69587" lon="1.82404">
        <ele>179.80000305176</ele>
        <time>2012-12-31T11:16:23.000Z</time>
      </trkpt>
      <trkpt lat="48.6959" lon="1.82392">
        <ele>179.60000610352</ele>
        <time>2012-12-31T11:16:29.000Z</time>
      </trkpt>
      <trkpt lat="48.69592" lon="1.82382">
        <ele>179.39999389648</ele>
        <time>2012-12-31T11:16:34.000Z</time>
      </trkpt>
      <trkpt lat="48.69596" lon="1.82362">
        <ele>179</ele>
        <time>2012-12-31T11:16:44.000Z</time>
      </trkpt>
      <trkpt lat="48.69599" lon="1.82342">
        <ele>178.60000610352</ele>
        <time>2012-12-31T11:16:54.000Z</time>
      </trkpt>
      <trkpt lat="48.69603" lon="1.82317">
        <ele>178.60000610352</ele>
        <time>2012-12-31T11:17:07.000Z</time>
      </trkpt>
      <trkpt lat="48.69608" lon="1.82295">
        <ele>178.80000305176</ele>
        <time>2012-12-31T11:17:19.000Z</time>
      </trkpt>
      <trkpt lat="48.69608" lon="1.82295">
        <ele>178.80000305176</ele>
        <time>2012-12-31T11:17:20.000Z</time>
      </trkpt>
      <trkpt lat="48.6961" lon="1.82287">
        <ele>178.80000305176</ele>
        <time>2012-12-31T11:17:32.000Z</time>
      </trkpt>
      <trkpt lat="48.69616" lon="1.82264">
        <ele>179</ele>
        <time>2012-12-31T11:17:42.000Z</time>
      </trkpt>
      <trkpt lat="48.69618" lon="1.82245">
        <ele>179.19999694824</ele>
        <time>2012-12-31T11:17:51.000Z</time>
      </trkpt>
      <trkpt lat="48.69621" lon="1.82228">
        <ele>179.19999694824</ele>
        <time>2012-12-31T11:17:59.000Z</time>
      </trkpt>
      <trkpt lat="48.69623" lon="1.82209">
        <ele>179.39999389648</ele>
        <time>2012-12-31T11:18:08.000Z</time>
      </trkpt>
      <trkpt lat="48.69626" lon="1.82191">
        <ele>179.60000610352</ele>
        <time>2012-12-31T11:18:17.000Z</time>
      </trkpt>
      <trkpt lat="48.69627" lon="1.82179">
        <ele>179.80000305176</ele>
        <time>2012-12-31T11:18:23.000Z</time>
      </trkpt>
      <trkpt lat="48.6963" lon="1.82159">
        <ele>179.60000610352</ele>
        <time>2012-12-31T11:18:33.000Z</time>
      </trkpt>
      <trkpt lat="48.69634" lon="1.82135">
        <ele>179.19999694824</ele>
        <time>2012-12-31T11:18:44.000Z</time>
      </trkpt>
      <trkpt lat="48.69638" lon="1.82112">
        <ele>178.80000305176</ele>
        <time>2012-12-31T11:18:55.000Z</time>
      </trkpt>
      <trkpt lat="48.69641" lon="1.82089">
        <ele>178.19999694824</ele>
        <time>2012-12-31T11:19:06.000Z</time>
      </trkpt>
      <trkpt lat="48.69646" lon="1.82064">
        <ele>178.19999694824</ele>
        <time>2012-12-31T11:19:18.000Z</time>
      </trkpt>
      <trkpt lat="48.69651" lon="1.82043">
        <ele>178.39999389648</ele>
        <time>2012-12-31T11:19:29.000Z</time>
      </trkpt>
      <trkpt lat="48.69655" lon="1.82026">
        <ele>178.60000610352</ele>
        <time>2012-12-31T11:19:38.000Z</time>
      </trkpt>
      <trkpt lat="48.69658" lon="1.82005">
        <ele>178.80000305176</ele>
        <time>2012-12-31T11:19:49.000Z</time>
      </trkpt>
      <trkpt lat="48.69664" lon="1.81977">
        <ele>179.19999694824</ele>
        <time>2012-12-31T11:20:03.000Z</time>
      </trkpt>
      <trkpt lat="48.69669" lon="1.81957">
        <ele>179.39999389648</ele>
        <time>2012-12-31T11:20:13.000Z</time>
      </trkpt>
      <trkpt lat="48.69671" lon="1.8195">
        <ele>179.39999389648</ele>
        <time>2012-12-31T11:20:17.000Z</time>
      </trkpt>
      <trkpt lat="48.69674" lon="1.81938">
        <ele>179.39999389648</ele>
        <time>2012-12-31T11:20:23.000Z</time>
      </trkpt>
      <trkpt lat="48.69679" lon="1.81916">
        <ele>179.60000610352</ele>
        <time>2012-12-31T11:20:34.000Z</time>
      </trkpt>
      <trkpt lat="48.69682" lon="1.81902">
        <ele>180.19999694824</ele>
        <time>2012-12-31T11:20:41.000Z</time>
      </trkpt>
      <trkpt lat="48.69687" lon="1.81887">
        <ele>180.60000610352</ele>
        <time>2012-12-31T11:20:49.000Z</time>
      </trkpt>
      <trkpt lat="48.69686" lon="1.81881">
        <ele>181</ele>
        <time>2012-12-31T11:20:53.000Z</time>
      </trkpt>
      <trkpt lat="48.69684" lon="1.81875">
        <ele>181.19999694824</ele>
        <time>2012-12-31T11:20:57.000Z</time>
      </trkpt>
      <trkpt lat="48.69685" lon="1.81867">
        <ele>181.60000610352</ele>
        <time>2012-12-31T11:21:04.000Z</time>
      </trkpt>
      <trkpt lat="48.69686" lon="1.81858">
        <ele>182</ele>
        <time>2012-12-31T11:21:12.000Z</time>
      </trkpt>
      <trkpt lat="48.6969" lon="1.81838">
        <ele>182.60000610352</ele>
        <time>2012-12-31T11:21:21.000Z</time>
      </trkpt>
      <trkpt lat="48.69694" lon="1.81825">
        <ele>182.80000305176</ele>
        <time>2012-12-31T11:21:28.000Z</time>
      </trkpt>
      <trkpt lat="48.69698" lon="1.81807">
        <ele>183.19999694824</ele>
        <time>2012-12-31T11:21:38.000Z</time>
      </trkpt>
      <trkpt lat="48.69703" lon="1.81791">
        <ele>183.19999694824</ele>
        <time>2012-12-31T11:21:47.000Z</time>
      </trkpt>
      <trkpt lat="48.69705" lon="1.81785">
        <ele>183.39999389648</ele>
        <time>2012-12-31T11:21:50.000Z</time>
      </trkpt>
      <trkpt lat="48.6971" lon="1.81773">
        <ele>183.19999694824</ele>
        <time>2012-12-31T11:21:57.000Z</time>
      </trkpt>
      <trkpt lat="48.69713" lon="1.81762">
        <ele>183.19999694824</ele>
        <time>2012-12-31T11:22:03.000Z</time>
      </trkpt>
      <trkpt lat="48.69717" lon="1.81747">
        <ele>183</ele>
        <time>2012-12-31T11:22:11.000Z</time>
      </trkpt>
      <trkpt lat="48.69723" lon="1.81729">
        <ele>181.80000305176</ele>
        <time>2012-12-31T11:22:19.000Z</time>
      </trkpt>
      <trkpt lat="48.69727" lon="1.81717">
        <ele>181</ele>
        <time>2012-12-31T11:22:25.000Z</time>
      </trkpt>
      <trkpt lat="48.69727" lon="1.81716">
        <ele>181</ele>
        <time>2012-12-31T11:22:27.000Z</time>
      </trkpt>
      <trkpt lat="48.69729" lon="1.81708">
        <ele>180.60000610352</ele>
        <time>2012-12-31T11:22:33.000Z</time>
      </trkpt>
      <trkpt lat="48.69734" lon="1.81694">
        <ele>179.80000305176</ele>
        <time>2012-12-31T11:22:39.000Z</time>
      </trkpt>
      <trkpt lat="48.6974" lon="1.81673">
        <ele>178.60000610352</ele>
        <time>2012-12-31T11:22:50.000Z</time>
      </trkpt>
      <trkpt lat="48.69746" lon="1.81653">
        <ele>178.39999389648</ele>
        <time>2012-12-31T11:23:00.000Z</time>
      </trkpt>
      <trkpt lat="48.69749" lon="1.81643">
        <ele>178.60000610352</ele>
        <time>2012-12-31T11:23:05.000Z</time>
      </trkpt>
      <trkpt lat="48.69755" lon="1.81629">
        <ele>178.80000305176</ele>
        <time>2012-12-31T11:23:13.000Z</time>
      </trkpt>
      <trkpt lat="48.69755" lon="1.81627">
        <ele>178.80000305176</ele>
        <time>2012-12-31T11:23:14.000Z</time>
      </trkpt>
      <trkpt lat="48.69758" lon="1.81614">
        <ele>179</ele>
        <time>2012-12-31T11:23:21.000Z</time>
      </trkpt>
      <trkpt lat="48.6976" lon="1.81607">
        <ele>179</ele>
        <time>2012-12-31T11:23:25.000Z</time>
      </trkpt>
      <trkpt lat="48.69762" lon="1.81604">
        <ele>179</ele>
        <time>2012-12-31T11:23:27.000Z</time>
      </trkpt>
      <trkpt lat="48.69765" lon="1.81592">
        <ele>179.19999694824</ele>
        <time>2012-12-31T11:23:33.000Z</time>
      </trkpt>
      <trkpt lat="48.69769" lon="1.81583">
        <ele>179.19999694824</ele>
        <time>2012-12-31T11:23:38.000Z</time>
      </trkpt>
      <trkpt lat="48.69774" lon="1.81561">
        <ele>178.60000610352</ele>
        <time>2012-12-31T11:23:48.000Z</time>
      </trkpt>
      <trkpt lat="48.69778" lon="1.81539">
        <ele>178.19999694824</ele>
        <time>2012-12-31T11:23:58.000Z</time>
      </trkpt>
      <trkpt lat="48.69782" lon="1.8152">
        <ele>177.60000610352</ele>
        <time>2012-12-31T11:24:07.000Z</time>
      </trkpt>
      <trkpt lat="48.69784" lon="1.8151">
        <ele>177.39999389648</ele>
        <time>2012-12-31T11:24:12.000Z</time>
      </trkpt>
      <trkpt lat="48.69786" lon="1.81506">
        <ele>177.19999694824</ele>
        <time>2012-12-31T11:24:14.000Z</time>
      </trkpt>
      <trkpt lat="48.69792" lon="1.81488">
        <ele>177</ele>
        <time>2012-12-31T11:24:23.000Z</time>
      </trkpt>
      <trkpt lat="48.69799" lon="1.81467">
        <ele>177</ele>
        <time>2012-12-31T11:24:33.000Z</time>
      </trkpt>
      <trkpt lat="48.69805" lon="1.81444">
        <ele>177.19999694824</ele>
        <time>2012-12-31T11:24:44.000Z</time>
      </trkpt>
      <trkpt lat="48.69812" lon="1.81423">
        <ele>177.19999694824</ele>
        <time>2012-12-31T11:24:55.000Z</time>
      </trkpt>
      <trkpt lat="48.69819" lon="1.81404">
        <ele>177.80000305176</ele>
        <time>2012-12-31T11:25:06.000Z</time>
      </trkpt>
      <trkpt lat="48.6982" lon="1.814">
        <ele>177.80000305176</ele>
        <time>2012-12-31T11:25:08.000Z</time>
      </trkpt>
      <trkpt lat="48.69824" lon="1.81393">
        <ele>178</ele>
        <time>2012-12-31T11:25:12.000Z</time>
      </trkpt>
      <trkpt lat="48.69828" lon="1.81377">
        <ele>178.39999389648</ele>
        <time>2012-12-31T11:25:21.000Z</time>
      </trkpt>
      <trkpt lat="48.69834" lon="1.81359">
        <ele>179</ele>
        <time>2012-12-31T11:25:31.000Z</time>
      </trkpt>
      <trkpt lat="48.6984" lon="1.81342">
        <ele>179.19999694824</ele>
        <time>2012-12-31T11:25:41.000Z</time>
      </trkpt>
      <trkpt lat="48.6984" lon="1.8134">
        <ele>179.19999694824</ele>
        <time>2012-12-31T11:25:44.000Z</time>
      </trkpt>
      <trkpt lat="48.69844" lon="1.81334">
        <ele>179.19999694824</ele>
        <time>2012-12-31T11:26:00.000Z</time>
      </trkpt>
      <trkpt lat="48.69847" lon="1.81324">
        <ele>179.39999389648</ele>
        <time>2012-12-31T11:26:04.000Z</time>
      </trkpt>
      <trkpt lat="48.69853" lon="1.81309">
        <ele>179.39999389648</ele>
        <time>2012-12-31T11:26:12.000Z</time>
      </trkpt>
      <trkpt lat="48.69858" lon="1.81295">
        <ele>179.39999389648</ele>
        <time>2012-12-31T11:26:20.000Z</time>
      </trkpt>
      <trkpt lat="48.69862" lon="1.81285">
        <ele>179.39999389648</ele>
        <time>2012-12-31T11:26:26.000Z</time>
      </trkpt>
      <trkpt lat="48.69866" lon="1.81275">
        <ele>179.39999389648</ele>
        <time>2012-12-31T11:26:32.000Z</time>
      </trkpt>
      <trkpt lat="48.69872" lon="1.81264">
        <ele>179.19999694824</ele>
        <time>2012-12-31T11:26:38.000Z</time>
      </trkpt>
      <trkpt lat="48.69879" lon="1.81253">
        <ele>179</ele>
        <time>2012-12-31T11:26:45.000Z</time>
      </trkpt>
      <trkpt lat="48.69885" lon="1.81245">
        <ele>178.80000305176</ele>
        <time>2012-12-31T11:26:50.000Z</time>
      </trkpt>
      <trkpt lat="48.69892" lon="1.81235">
        <ele>178.39999389648</ele>
        <time>2012-12-31T11:26:57.000Z</time>
      </trkpt>
      <trkpt lat="48.69895" lon="1.81231">
        <ele>178.19999694824</ele>
        <time>2012-12-31T11:27:01.000Z</time>
      </trkpt>
      <trkpt lat="48.69898" lon="1.81225">
        <ele>178</ele>
        <time>2012-12-31T11:27:08.000Z</time>
      </trkpt>
      <trkpt lat="48.69902" lon="1.8122">
        <ele>177.80000305176</ele>
        <time>2012-12-31T11:27:12.000Z</time>
      </trkpt>
      <trkpt lat="48.69913" lon="1.81208">
        <ele>177.19999694824</ele>
        <time>2012-12-31T11:27:21.000Z</time>
      </trkpt>
      <trkpt lat="48.69921" lon="1.81196">
        <ele>176.80000305176</ele>
        <time>2012-12-31T11:27:29.000Z</time>
      </trkpt>
      <trkpt lat="48.69929" lon="1.81185">
        <ele>176.80000305176</ele>
        <time>2012-12-31T11:27:37.000Z</time>
      </trkpt>
      <trkpt lat="48.69931" lon="1.81182">
        <ele>176.60000610352</ele>
        <time>2012-12-31T11:27:42.000Z</time>
      </trkpt>
      <trkpt lat="48.69939" lon="1.81169">
        <ele>176.60000610352</ele>
        <time>2012-12-31T11:27:51.000Z</time>
      </trkpt>
      <trkpt lat="48.69943" lon="1.81161">
        <ele>176.60000610352</ele>
        <time>2012-12-31T11:27:56.000Z</time>
      </trkpt>
      <trkpt lat="48.69948" lon="1.81151">
        <ele>176.60000610352</ele>
        <time>2012-12-31T11:28:02.000Z</time>
      </trkpt>
      <trkpt lat="48.69958" lon="1.81133">
        <ele>176.60000610352</ele>
        <time>2012-12-31T11:28:13.000Z</time>
      </trkpt>
      <trkpt lat="48.69966" lon="1.81112">
        <ele>176.60000610352</ele>
        <time>2012-12-31T11:28:24.000Z</time>
      </trkpt>
      <trkpt lat="48.69971" lon="1.81095">
        <ele>176.60000610352</ele>
        <time>2012-12-31T11:28:33.000Z</time>
      </trkpt>
      <trkpt lat="48.69978" lon="1.81074">
        <ele>176.60000610352</ele>
        <time>2012-12-31T11:28:44.000Z</time>
      </trkpt>
      <trkpt lat="48.69985" lon="1.81052">
        <ele>176.80000305176</ele>
        <time>2012-12-31T11:28:55.000Z</time>
      </trkpt>
      <trkpt lat="48.69992" lon="1.81034">
        <ele>177.19999694824</ele>
        <time>2012-12-31T11:29:05.000Z</time>
      </trkpt>
      <trkpt lat="48.69997" lon="1.81016">
        <ele>177.60000610352</ele>
        <time>2012-12-31T11:29:14.000Z</time>
      </trkpt>
      <trkpt lat="48.70002" lon="1.81006">
        <ele>177.80000305176</ele>
        <time>2012-12-31T11:29:20.000Z</time>
      </trkpt>
      <trkpt lat="48.70012" lon="1.80992">
        <ele>177.60000610352</ele>
        <time>2012-12-31T11:29:29.000Z</time>
      </trkpt>
      <trkpt lat="48.70023" lon="1.80977">
        <ele>177.19999694824</ele>
        <time>2012-12-31T11:29:38.000Z</time>
      </trkpt>
      <trkpt lat="48.70031" lon="1.80966">
        <ele>177</ele>
        <time>2012-12-31T11:29:45.000Z</time>
      </trkpt>
      <trkpt lat="48.70032" lon="1.80965">
        <ele>177</ele>
        <time>2012-12-31T11:29:48.000Z</time>
      </trkpt>
      <trkpt lat="48.70037" lon="1.80961">
        <ele>177</ele>
        <time>2012-12-31T11:30:08.000Z</time>
      </trkpt>
      <trkpt lat="48.70047" lon="1.80951">
        <ele>176.80000305176</ele>
        <time>2012-12-31T11:30:15.000Z</time>
      </trkpt>
      <trkpt lat="48.70063" lon="1.80933">
        <ele>176.80000305176</ele>
        <time>2012-12-31T11:30:28.000Z</time>
      </trkpt>
      <trkpt lat="48.70069" lon="1.80928">
        <ele>176.80000305176</ele>
        <time>2012-12-31T11:30:33.000Z</time>
      </trkpt>
      <trkpt lat="48.70076" lon="1.80916">
        <ele>177</ele>
        <time>2012-12-31T11:30:40.000Z</time>
      </trkpt>
      <trkpt lat="48.70085" lon="1.8091">
        <ele>177.19999694824</ele>
        <time>2012-12-31T11:30:47.000Z</time>
      </trkpt>
      <trkpt lat="48.70098" lon="1.80902">
        <ele>177.39999389648</ele>
        <time>2012-12-31T11:30:57.000Z</time>
      </trkpt>
      <trkpt lat="48.70115" lon="1.80893">
        <ele>177.39999389648</ele>
        <time>2012-12-31T11:31:09.000Z</time>
      </trkpt>
      <trkpt lat="48.70125" lon="1.80884">
        <ele>177.39999389648</ele>
        <time>2012-12-31T11:31:17.000Z</time>
      </trkpt>
      <trkpt lat="48.70138" lon="1.80877">
        <ele>177.39999389648</ele>
        <time>2012-12-31T11:31:27.000Z</time>
      </trkpt>
      <trkpt lat="48.7015" lon="1.80873">
        <ele>177.19999694824</ele>
        <time>2012-12-31T11:31:36.000Z</time>
      </trkpt>
      <trkpt lat="48.70161" lon="1.80866">
        <ele>177</ele>
        <time>2012-12-31T11:31:45.000Z</time>
      </trkpt>
      <trkpt lat="48.70175" lon="1.80856">
        <ele>177</ele>
        <time>2012-12-31T11:31:56.000Z</time>
      </trkpt>
      <trkpt lat="48.70188" lon="1.80848">
        <ele>177</ele>
        <time>2012-12-31T11:32:06.000Z</time>
      </trkpt>
      <trkpt lat="48.70201" lon="1.80837">
        <ele>177</ele>
        <time>2012-12-31T11:32:16.000Z</time>
      </trkpt>
      <trkpt lat="48.70209" lon="1.80829">
        <ele>177</ele>
        <time>2012-12-31T11:32:23.000Z</time>
      </trkpt>
      <trkpt lat="48.7022" lon="1.80819">
        <ele>177.39999389648</ele>
        <time>2012-12-31T11:32:33.000Z</time>
      </trkpt>
      <trkpt lat="48.70228" lon="1.80812">
        <ele>177.39999389648</ele>
        <time>2012-12-31T11:32:39.000Z</time>
      </trkpt>
      <trkpt lat="48.70232" lon="1.80809">
        <ele>177.39999389648</ele>
        <time>2012-12-31T11:32:43.000Z</time>
      </trkpt>
      <trkpt lat="48.70236" lon="1.80809">
        <ele>177.39999389648</ele>
        <time>2012-12-31T11:32:48.000Z</time>
      </trkpt>
      <trkpt lat="48.7024" lon="1.80806">
        <ele>177.39999389648</ele>
        <time>2012-12-31T11:33:32.000Z</time>
      </trkpt>
      <trkpt lat="48.70246" lon="1.808">
        <ele>177.39999389648</ele>
        <time>2012-12-31T11:33:36.000Z</time>
      </trkpt>
      <trkpt lat="48.70253" lon="1.80792">
        <ele>177.39999389648</ele>
        <time>2012-12-31T11:33:42.000Z</time>
      </trkpt>
      <trkpt lat="48.7026" lon="1.80785">
        <ele>177.19999694824</ele>
        <time>2012-12-31T11:33:48.000Z</time>
      </trkpt>
      <trkpt lat="48.70266" lon="1.8078">
        <ele>177.19999694824</ele>
        <time>2012-12-31T11:33:53.000Z</time>
      </trkpt>
      <trkpt lat="48.70272" lon="1.80773">
        <ele>177.19999694824</ele>
        <time>2012-12-31T11:33:59.000Z</time>
      </trkpt>
      <trkpt lat="48.70273" lon="1.80772">
        <ele>177.19999694824</ele>
        <time>2012-12-31T11:34:00.000Z</time>
      </trkpt>
      <trkpt lat="48.70282" lon="1.80763">
        <ele>177</ele>
        <time>2012-12-31T11:34:07.000Z</time>
      </trkpt>
      <trkpt lat="48.70283" lon="1.80762">
        <ele>177</ele>
        <time>2012-12-31T11:34:09.000Z</time>
      </trkpt>
      <trkpt lat="48.70289" lon="1.80754">
        <ele>177</ele>
        <time>2012-12-31T11:34:15.000Z</time>
      </trkpt>
      <trkpt lat="48.70302" lon="1.8074">
        <ele>176.60000610352</ele>
        <time>2012-12-31T11:34:27.000Z</time>
      </trkpt>
      <trkpt lat="48.7031" lon="1.80728">
        <ele>176</ele>
        <time>2012-12-31T11:34:35.000Z</time>
      </trkpt>
      <trkpt lat="48.70316" lon="1.80718">
        <ele>175.60000610352</ele>
        <time>2012-12-31T11:34:41.000Z</time>
      </trkpt>
      <trkpt lat="48.70323" lon="1.80707">
        <ele>175.19999694824</ele>
        <time>2012-12-31T11:34:48.000Z</time>
      </trkpt>
      <trkpt lat="48.7033" lon="1.80696">
        <ele>174.80000305176</ele>
        <time>2012-12-31T11:34:55.000Z</time>
      </trkpt>
      <trkpt lat="48.7034" lon="1.80679">
        <ele>174.19999694824</ele>
        <time>2012-12-31T11:35:05.000Z</time>
      </trkpt>
      <trkpt lat="48.70347" lon="1.80666">
        <ele>174</ele>
        <time>2012-12-31T11:35:13.000Z</time>
      </trkpt>
      <trkpt lat="48.70355" lon="1.80651">
        <ele>174.39999389648</ele>
        <time>2012-12-31T11:35:22.000Z</time>
      </trkpt>
      <trkpt lat="48.70363" lon="1.80631">
        <ele>174.60000610352</ele>
        <time>2012-12-31T11:35:33.000Z</time>
      </trkpt>
      <trkpt lat="48.70369" lon="1.80612">
        <ele>174.80000305176</ele>
        <time>2012-12-31T11:35:43.000Z</time>
      </trkpt>
      <trkpt lat="48.70375" lon="1.80594">
        <ele>174.80000305176</ele>
        <time>2012-12-31T11:35:52.000Z</time>
      </trkpt>
      <trkpt lat="48.7038" lon="1.80573">
        <ele>175</ele>
        <time>2012-12-31T11:36:02.000Z</time>
      </trkpt>
      <trkpt lat="48.70384" lon="1.80554">
        <ele>175.19999694824</ele>
        <time>2012-12-31T11:36:12.000Z</time>
      </trkpt>
      <trkpt lat="48.70388" lon="1.80536">
        <ele>175.19999694824</ele>
        <time>2012-12-31T11:36:21.000Z</time>
      </trkpt>
      <trkpt lat="48.70391" lon="1.80521">
        <ele>175.39999389648</ele>
        <time>2012-12-31T11:36:29.000Z</time>
      </trkpt>
      <trkpt lat="48.70395" lon="1.80507">
        <ele>175.60000610352</ele>
        <time>2012-12-31T11:36:36.000Z</time>
      </trkpt>
      <trkpt lat="48.70398" lon="1.80495">
        <ele>175.60000610352</ele>
        <time>2012-12-31T11:36:43.000Z</time>
      </trkpt>
      <trkpt lat="48.70398" lon="1.80494">
        <ele>175.60000610352</ele>
        <time>2012-12-31T11:36:46.000Z</time>
      </trkpt>
      <trkpt lat="48.704" lon="1.80484">
        <ele>175.80000305176</ele>
        <time>2012-12-31T11:37:34.000Z</time>
      </trkpt>
      <trkpt lat="48.70404" lon="1.80466">
        <ele>175.80000305176</ele>
        <time>2012-12-31T11:37:43.000Z</time>
      </trkpt>
      <trkpt lat="48.70407" lon="1.8045">
        <ele>175.80000305176</ele>
        <time>2012-12-31T11:37:52.000Z</time>
      </trkpt>
      <trkpt lat="48.70411" lon="1.80435">
        <ele>175.80000305176</ele>
        <time>2012-12-31T11:38:00.000Z</time>
      </trkpt>
      <trkpt lat="48.70414" lon="1.8042">
        <ele>175.80000305176</ele>
        <time>2012-12-31T11:38:08.000Z</time>
      </trkpt>
      <trkpt lat="48.70418" lon="1.80405">
        <ele>176</ele>
        <time>2012-12-31T11:38:16.000Z</time>
      </trkpt>
      <trkpt lat="48.70423" lon="1.80384">
        <ele>176.19999694824</ele>
        <time>2012-12-31T11:38:27.000Z</time>
      </trkpt>
      <trkpt lat="48.70426" lon="1.80368">
        <ele>176.39999389648</ele>
        <time>2012-12-31T11:38:36.000Z</time>
      </trkpt>
      <trkpt lat="48.70429" lon="1.80348">
        <ele>176.39999389648</ele>
        <time>2012-12-31T11:38:46.000Z</time>
      </trkpt>
      <trkpt lat="48.70431" lon="1.80334">
        <ele>176.60000610352</ele>
        <time>2012-12-31T11:38:54.000Z</time>
      </trkpt>
      <trkpt lat="48.70434" lon="1.80321">
        <ele>176.39999389648</ele>
        <time>2012-12-31T11:39:01.000Z</time>
      </trkpt>
      <trkpt lat="48.70434" lon="1.80319">
        <ele>176.39999389648</ele>
        <time>2012-12-31T11:39:02.000Z</time>
      </trkpt>
      <trkpt lat="48.70436" lon="1.80312">
        <ele>176.39999389648</ele>
        <time>2012-12-31T11:39:06.000Z</time>
      </trkpt>
      <trkpt lat="48.70441" lon="1.80289">
        <ele>176.39999389648</ele>
        <time>2012-12-31T11:39:18.000Z</time>
      </trkpt>
      <trkpt lat="48.70442" lon="1.80284">
        <ele>176.19999694824</ele>
        <time>2012-12-31T11:39:21.000Z</time>
      </trkpt>
      <trkpt lat="48.70445" lon="1.80277">
        <ele>176.19999694824</ele>
        <time>2012-12-31T11:39:25.000Z</time>
      </trkpt>
      <trkpt lat="48.70449" lon="1.80261">
        <ele>176.19999694824</ele>
        <time>2012-12-31T11:39:35.000Z</time>
      </trkpt>
      <trkpt lat="48.70455" lon="1.80247">
        <ele>176</ele>
        <time>2012-12-31T11:39:44.000Z</time>
      </trkpt>
      <trkpt lat="48.70461" lon="1.80233">
        <ele>176</ele>
        <time>2012-12-31T11:39:52.000Z</time>
      </trkpt>
      <trkpt lat="48.70466" lon="1.80223">
        <ele>176</ele>
        <time>2012-12-31T11:39:59.000Z</time>
      </trkpt>
      <trkpt lat="48.70473" lon="1.80211">
        <ele>176.19999694824</ele>
        <time>2012-12-31T11:40:07.000Z</time>
      </trkpt>
      <trkpt lat="48.7048" lon="1.80198">
        <ele>176.39999389648</ele>
        <time>2012-12-31T11:40:16.000Z</time>
      </trkpt>
      <trkpt lat="48.70481" lon="1.80196">
        <ele>176.39999389648</ele>
        <time>2012-12-31T11:40:18.000Z</time>
      </trkpt>
      <trkpt lat="48.70485" lon="1.8019">
        <ele>176.39999389648</ele>
        <time>2012-12-31T11:40:24.000Z</time>
      </trkpt>
      <trkpt lat="48.70486" lon="1.80189">
        <ele>176.39999389648</ele>
        <time>2012-12-31T11:40:25.000Z</time>
      </trkpt>
      <trkpt lat="48.70491" lon="1.8018">
        <ele>176.60000610352</ele>
        <time>2012-12-31T11:40:30.000Z</time>
      </trkpt>
      <trkpt lat="48.70499" lon="1.80168">
        <ele>176.80000305176</ele>
        <time>2012-12-31T11:40:39.000Z</time>
      </trkpt>
      <trkpt lat="48.705" lon="1.80164">
        <ele>176.80000305176</ele>
        <time>2012-12-31T11:40:43.000Z</time>
      </trkpt>
      <trkpt lat="48.70508" lon="1.80151">
        <ele>176.80000305176</ele>
        <time>2012-12-31T11:40:47.000Z</time>
      </trkpt>
      <trkpt lat="48.70515" lon="1.80141">
        <ele>176.60000610352</ele>
        <time>2012-12-31T11:40:52.000Z</time>
      </trkpt>
      <trkpt lat="48.70524" lon="1.80131">
        <ele>176.39999389648</ele>
        <time>2012-12-31T11:41:01.000Z</time>
      </trkpt>
      <trkpt lat="48.70535" lon="1.80117">
        <ele>176.39999389648</ele>
        <time>2012-12-31T11:41:12.000Z</time>
      </trkpt>
      <trkpt lat="48.70539" lon="1.80111">
        <ele>176.19999694824</ele>
        <time>2012-12-31T11:41:17.000Z</time>
      </trkpt>
      <trkpt lat="48.7054" lon="1.80108">
        <ele>176.19999694824</ele>
        <time>2012-12-31T11:41:20.000Z</time>
      </trkpt>
      <trkpt lat="48.70542" lon="1.80106">
        <ele>176.19999694824</ele>
        <time>2012-12-31T11:41:25.000Z</time>
      </trkpt>
      <trkpt lat="48.70548" lon="1.801">
        <ele>176.19999694824</ele>
        <time>2012-12-31T11:41:37.000Z</time>
      </trkpt>
      <trkpt lat="48.70561" lon="1.80088">
        <ele>176.19999694824</ele>
        <time>2012-12-31T11:41:47.000Z</time>
      </trkpt>
      <trkpt lat="48.70575" lon="1.80074">
        <ele>176</ele>
        <time>2012-12-31T11:41:59.000Z</time>
      </trkpt>
      <trkpt lat="48.70587" lon="1.80063">
        <ele>175.80000305176</ele>
        <time>2012-12-31T11:42:10.000Z</time>
      </trkpt>
      <trkpt lat="48.706" lon="1.80051">
        <ele>175.80000305176</ele>
        <time>2012-12-31T11:42:22.000Z</time>
      </trkpt>
      <trkpt lat="48.70609" lon="1.80042">
        <ele>175.60000610352</ele>
        <time>2012-12-31T11:42:31.000Z</time>
      </trkpt>
      <trkpt lat="48.70623" lon="1.80029">
        <ele>175.39999389648</ele>
        <time>2012-12-31T11:42:44.000Z</time>
      </trkpt>
      <trkpt lat="48.70635" lon="1.80018">
        <ele>175.19999694824</ele>
        <time>2012-12-31T11:42:55.000Z</time>
      </trkpt>
      <trkpt lat="48.70644" lon="1.80009">
        <ele>175.19999694824</ele>
        <time>2012-12-31T11:43:04.000Z</time>
      </trkpt>
      <trkpt lat="48.70654" lon="1.8">
        <ele>175</ele>
        <time>2012-12-31T11:43:13.000Z</time>
      </trkpt>
      <trkpt lat="48.70661" lon="1.79994">
        <ele>175.19999694824</ele>
        <time>2012-12-31T11:43:20.000Z</time>
      </trkpt>
      <trkpt lat="48.70675" lon="1.7998">
        <ele>175.80000305176</ele>
        <time>2012-12-31T11:43:33.000Z</time>
      </trkpt>
      <trkpt lat="48.70687" lon="1.7997">
        <ele>176.60000610352</ele>
        <time>2012-12-31T11:43:44.000Z</time>
      </trkpt>
      <trkpt lat="48.707" lon="1.79958">
        <ele>177.19999694824</ele>
        <time>2012-12-31T11:43:55.000Z</time>
      </trkpt>
      <trkpt lat="48.70711" lon="1.79952">
        <ele>177.60000610352</ele>
        <time>2012-12-31T11:44:05.000Z</time>
      </trkpt>
      <trkpt lat="48.70727" lon="1.79938">
        <ele>178.19999694824</ele>
        <time>2012-12-31T11:44:19.000Z</time>
      </trkpt>
      <trkpt lat="48.70727" lon="1.79937">
        <ele>178.19999694824</ele>
        <time>2012-12-31T11:44:22.000Z</time>
      </trkpt>
      <trkpt lat="48.70732" lon="1.79931">
        <ele>178.39999389648</ele>
        <time>2012-12-31T11:44:30.000Z</time>
      </trkpt>
      <trkpt lat="48.70743" lon="1.79916">
        <ele>178.80000305176</ele>
        <time>2012-12-31T11:44:40.000Z</time>
      </trkpt>
      <trkpt lat="48.70752" lon="1.79893">
        <ele>178.80000305176</ele>
        <time>2012-12-31T11:44:53.000Z</time>
      </trkpt>
      <trkpt lat="48.70759" lon="1.79874">
        <ele>178.60000610352</ele>
        <time>2012-12-31T11:45:05.000Z</time>
      </trkpt>
      <trkpt lat="48.70764" lon="1.7986">
        <ele>178.60000610352</ele>
        <time>2012-12-31T11:45:13.000Z</time>
      </trkpt>
      <trkpt lat="48.7077" lon="1.79835">
        <ele>178.39999389648</ele>
        <time>2012-12-31T11:45:26.000Z</time>
      </trkpt>
      <trkpt lat="48.70777" lon="1.79818">
        <ele>178.60000610352</ele>
        <time>2012-12-31T11:45:35.000Z</time>
      </trkpt>
      <trkpt lat="48.70784" lon="1.79804">
        <ele>178.80000305176</ele>
        <time>2012-12-31T11:45:44.000Z</time>
      </trkpt>
      <trkpt lat="48.70791" lon="1.79787">
        <ele>179</ele>
        <time>2012-12-31T11:45:54.000Z</time>
      </trkpt>
      <trkpt lat="48.70802" lon="1.79766">
        <ele>179.19999694824</ele>
        <time>2012-12-31T11:46:07.000Z</time>
      </trkpt>
      <trkpt lat="48.70809" lon="1.79749">
        <ele>179.39999389648</ele>
        <time>2012-12-31T11:46:17.000Z</time>
      </trkpt>
      <trkpt lat="48.70816" lon="1.79734">
        <ele>179.39999389648</ele>
        <time>2012-12-31T11:46:26.000Z</time>
      </trkpt>
      <trkpt lat="48.70828" lon="1.79717">
        <ele>179.39999389648</ele>
        <time>2012-12-31T11:46:38.000Z</time>
      </trkpt>
      <trkpt lat="48.70836" lon="1.79706">
        <ele>179.39999389648</ele>
        <time>2012-12-31T11:46:46.000Z</time>
      </trkpt>
      <trkpt lat="48.70848" lon="1.7969">
        <ele>179.60000610352</ele>
        <time>2012-12-31T11:46:58.000Z</time>
      </trkpt>
      <trkpt lat="48.70859" lon="1.79675">
        <ele>179.60000610352</ele>
        <time>2012-12-31T11:47:09.000Z</time>
      </trkpt>
      <trkpt lat="48.70873" lon="1.79658">
        <ele>179.39999389648</ele>
        <time>2012-12-31T11:47:22.000Z</time>
      </trkpt>
      <trkpt lat="48.70882" lon="1.79648">
        <ele>179.19999694824</ele>
        <time>2012-12-31T11:47:30.000Z</time>
      </trkpt>
      <trkpt lat="48.70888" lon="1.79639">
        <ele>179.19999694824</ele>
        <time>2012-12-31T11:47:36.000Z</time>
      </trkpt>
      <trkpt lat="48.70896" lon="1.79629">
        <ele>179</ele>
        <time>2012-12-31T11:47:43.000Z</time>
      </trkpt>
      <trkpt lat="48.70909" lon="1.79614">
        <ele>178.39999389648</ele>
        <time>2012-12-31T11:47:53.000Z</time>
      </trkpt>
      <trkpt lat="48.70913" lon="1.79607">
        <ele>178.19999694824</ele>
        <time>2012-12-31T11:47:58.000Z</time>
      </trkpt>
      <trkpt lat="48.70914" lon="1.79606">
        <ele>178.19999694824</ele>
        <time>2012-12-31T11:48:00.000Z</time>
      </trkpt>
      <trkpt lat="48.70917" lon="1.79601">
        <ele>178.19999694824</ele>
        <time>2012-12-31T11:48:25.000Z</time>
      </trkpt>
      <trkpt lat="48.70928" lon="1.79585">
        <ele>178</ele>
        <time>2012-12-31T11:48:36.000Z</time>
      </trkpt>
      <trkpt lat="48.70936" lon="1.79575">
        <ele>178.60000610352</ele>
        <time>2012-12-31T11:48:44.000Z</time>
      </trkpt>
      <trkpt lat="48.70943" lon="1.79567">
        <ele>178.80000305176</ele>
        <time>2012-12-31T11:48:50.000Z</time>
      </trkpt>
      <trkpt lat="48.70951" lon="1.79559">
        <ele>179.19999694824</ele>
        <time>2012-12-31T11:48:57.000Z</time>
      </trkpt>
      <trkpt lat="48.70962" lon="1.79544">
        <ele>179.60000610352</ele>
        <time>2012-12-31T11:49:07.000Z</time>
      </trkpt>
      <trkpt lat="48.70974" lon="1.79528">
        <ele>179.60000610352</ele>
        <time>2012-12-31T11:49:18.000Z</time>
      </trkpt>
      <trkpt lat="48.70987" lon="1.79509">
        <ele>179.39999389648</ele>
        <time>2012-12-31T11:49:31.000Z</time>
      </trkpt>
      <trkpt lat="48.70997" lon="1.79495">
        <ele>179.39999389648</ele>
        <time>2012-12-31T11:49:40.000Z</time>
      </trkpt>
      <trkpt lat="48.71006" lon="1.79479">
        <ele>180</ele>
        <time>2012-12-31T11:49:50.000Z</time>
      </trkpt>
      <trkpt lat="48.71019" lon="1.79459">
        <ele>180.80000305176</ele>
        <time>2012-12-31T11:50:03.000Z</time>
      </trkpt>
      <trkpt lat="48.71022" lon="1.79446">
        <ele>181.39999389648</ele>
        <time>2012-12-31T11:50:10.000Z</time>
      </trkpt>
      <trkpt lat="48.71016" lon="1.79441">
        <ele>181.80000305176</ele>
        <time>2012-12-31T11:50:17.000Z</time>
      </trkpt>
      <trkpt lat="48.71011" lon="1.79441">
        <ele>182</ele>
        <time>2012-12-31T11:50:23.000Z</time>
      </trkpt>
      <trkpt lat="48.71013" lon="1.79444">
        <ele>181.80000305176</ele>
        <time>2012-12-31T11:50:29.000Z</time>
      </trkpt>
      <trkpt lat="48.71013" lon="1.79444">
        <ele>181.80000305176</ele>
        <time>2012-12-31T11:50:30.000Z</time>
      </trkpt>
      <trkpt lat="48.71008" lon="1.79443">
        <ele>182</ele>
        <time>2012-12-31T11:50:36.000Z</time>
      </trkpt>
      <trkpt lat="48.71006" lon="1.79442">
        <ele>182.19999694824</ele>
        <time>2012-12-31T11:50:37.000Z</time>
      </trkpt>
      <trkpt lat="48.70996" lon="1.79438">
        <ele>182.80000305176</ele>
        <time>2012-12-31T11:50:44.000Z</time>
      </trkpt>
      <trkpt lat="48.70989" lon="1.79439">
        <ele>183</ele>
        <time>2012-12-31T11:50:50.000Z</time>
      </trkpt>
      <trkpt lat="48.70986" lon="1.7944">
        <ele>183</ele>
        <time>2012-12-31T11:50:52.000Z</time>
      </trkpt>
      <trkpt lat="48.70979" lon="1.79443">
        <ele>183.19999694824</ele>
        <time>2012-12-31T11:50:58.000Z</time>
      </trkpt>
      <trkpt lat="48.70971" lon="1.79445">
        <ele>183.39999389648</ele>
        <time>2012-12-31T11:51:03.000Z</time>
      </trkpt>
      <trkpt lat="48.70966" lon="1.79446">
        <ele>183.39999389648</ele>
        <time>2012-12-31T11:51:07.000Z</time>
      </trkpt>
      <trkpt lat="48.70961" lon="1.79447">
        <ele>183.60000610352</ele>
        <time>2012-12-31T11:51:13.000Z</time>
      </trkpt>
      <trkpt lat="48.70959" lon="1.79448">
        <ele>183.60000610352</ele>
        <time>2012-12-31T11:51:17.000Z</time>
      </trkpt>
      <trkpt lat="48.70952" lon="1.79449">
        <ele>184</ele>
        <time>2012-12-31T11:51:21.000Z</time>
      </trkpt>
      <trkpt lat="48.70943" lon="1.79449">
        <ele>184.19999694824</ele>
        <time>2012-12-31T11:51:27.000Z</time>
      </trkpt>
      <trkpt lat="48.70936" lon="1.79447">
        <ele>184.60000610352</ele>
        <time>2012-12-31T11:51:33.000Z</time>
      </trkpt>
      <trkpt lat="48.70935" lon="1.79447">
        <ele>184.60000610352</ele>
        <time>2012-12-31T11:51:34.000Z</time>
      </trkpt>
      <trkpt lat="48.70926" lon="1.7945">
        <ele>185</ele>
        <time>2012-12-31T11:51:41.000Z</time>
      </trkpt>
      <trkpt lat="48.70925" lon="1.7945">
        <ele>185</ele>
        <time>2012-12-31T11:51:42.000Z</time>
      </trkpt>
      <trkpt lat="48.70924" lon="1.79449">
        <ele>185</ele>
        <time>2012-12-31T11:51:47.000Z</time>
      </trkpt>
      <trkpt lat="48.70914" lon="1.7945">
        <ele>185.39999389648</ele>
        <time>2012-12-31T11:52:01.000Z</time>
      </trkpt>
      <trkpt lat="48.70909" lon="1.79452">
        <ele>185.19999694824</ele>
        <time>2012-12-31T11:52:04.000Z</time>
      </trkpt>
      <trkpt lat="48.70901" lon="1.79454">
        <ele>185.19999694824</ele>
        <time>2012-12-31T11:52:11.000Z</time>
      </trkpt>
      <trkpt lat="48.70895" lon="1.79454">
        <ele>185</ele>
        <time>2012-12-31T11:52:16.000Z</time>
      </trkpt>
      <trkpt lat="48.70887" lon="1.79455">
        <ele>185</ele>
        <time>2012-12-31T11:52:22.000Z</time>
      </trkpt>
      <trkpt lat="48.7088" lon="1.79453">
        <ele>185</ele>
        <time>2012-12-31T11:52:28.000Z</time>
      </trkpt>
      <trkpt lat="48.70871" lon="1.79452">
        <ele>185.19999694824</ele>
        <time>2012-12-31T11:52:36.000Z</time>
      </trkpt>
      <trkpt lat="48.70863" lon="1.79449">
        <ele>185.19999694824</ele>
        <time>2012-12-31T11:52:42.000Z</time>
      </trkpt>
      <trkpt lat="48.70857" lon="1.79447">
        <ele>185.19999694824</ele>
        <time>2012-12-31T11:52:48.000Z</time>
      </trkpt>
      <trkpt lat="48.70849" lon="1.79444">
        <ele>185.39999389648</ele>
        <time>2012-12-31T11:52:54.000Z</time>
      </trkpt>
      <trkpt lat="48.7084" lon="1.79441">
        <ele>185.39999389648</ele>
        <time>2012-12-31T11:53:01.000Z</time>
      </trkpt>
      <trkpt lat="48.70837" lon="1.79438">
        <ele>185.39999389648</ele>
        <time>2012-12-31T11:53:04.000Z</time>
      </trkpt>
      <trkpt lat="48.70833" lon="1.79436">
        <ele>185.39999389648</ele>
        <time>2012-12-31T11:53:08.000Z</time>
      </trkpt>
      <trkpt lat="48.7083" lon="1.79436">
        <ele>185.39999389648</ele>
        <time>2012-12-31T11:53:10.000Z</time>
      </trkpt>
      <trkpt lat="48.70826" lon="1.79433">
        <ele>185.39999389648</ele>
        <time>2012-12-31T11:53:14.000Z</time>
      </trkpt>
      <trkpt lat="48.70817" lon="1.79426">
        <ele>185.60000610352</ele>
        <time>2012-12-31T11:53:22.000Z</time>
      </trkpt>
      <trkpt lat="48.70816" lon="1.79425">
        <ele>185.60000610352</ele>
        <time>2012-12-31T11:53:23.000Z</time>
      </trkpt>
      <trkpt lat="48.70809" lon="1.79424">
        <ele>185.80000305176</ele>
        <time>2012-12-31T11:53:30.000Z</time>
      </trkpt>
      <trkpt lat="48.70808" lon="1.79422">
        <ele>185.80000305176</ele>
        <time>2012-12-31T11:53:32.000Z</time>
      </trkpt>
      <trkpt lat="48.70797" lon="1.79417">
        <ele>185.80000305176</ele>
        <time>2012-12-31T11:53:39.000Z</time>
      </trkpt>
      <trkpt lat="48.70787" lon="1.79418">
        <ele>185.80000305176</ele>
        <time>2012-12-31T11:53:46.000Z</time>
      </trkpt>
      <trkpt lat="48.7078" lon="1.79416">
        <ele>186</ele>
        <time>2012-12-31T11:53:52.000Z</time>
      </trkpt>
      <trkpt lat="48.70777" lon="1.79416">
        <ele>186</ele>
        <time>2012-12-31T11:53:55.000Z</time>
      </trkpt>
      <trkpt lat="48.70766" lon="1.79423">
        <ele>185.60000610352</ele>
        <time>2012-12-31T11:54:04.000Z</time>
      </trkpt>
      <trkpt lat="48.7076" lon="1.79424">
        <ele>185.60000610352</ele>
        <time>2012-12-31T11:54:10.000Z</time>
      </trkpt>
      <trkpt lat="48.70755" lon="1.7942">
        <ele>185.80000305176</ele>
        <time>2012-12-31T11:54:16.000Z</time>
      </trkpt>
      <trkpt lat="48.70748" lon="1.79417">
        <ele>185.80000305176</ele>
        <time>2012-12-31T11:54:22.000Z</time>
      </trkpt>
      <trkpt lat="48.70743" lon="1.79416">
        <ele>185.60000610352</ele>
        <time>2012-12-31T11:54:27.000Z</time>
      </trkpt>
      <trkpt lat="48.70738" lon="1.79416">
        <ele>185.39999389648</ele>
        <time>2012-12-31T11:54:34.000Z</time>
      </trkpt>
      <trkpt lat="48.70731" lon="1.79413">
        <ele>185.19999694824</ele>
        <time>2012-12-31T11:54:42.000Z</time>
      </trkpt>
      <trkpt lat="48.70725" lon="1.79412">
        <ele>185</ele>
        <time>2012-12-31T11:54:49.000Z</time>
      </trkpt>
      <trkpt lat="48.7072" lon="1.79412">
        <ele>184.80000305176</ele>
        <time>2012-12-31T11:54:56.000Z</time>
      </trkpt>
      <trkpt lat="48.7071" lon="1.79408">
        <ele>184.60000610352</ele>
        <time>2012-12-31T11:55:04.000Z</time>
      </trkpt>
      <trkpt lat="48.707" lon="1.7941">
        <ele>184.19999694824</ele>
        <time>2012-12-31T11:55:09.000Z</time>
      </trkpt>
      <trkpt lat="48.70692" lon="1.79411">
        <ele>184</ele>
        <time>2012-12-31T11:55:15.000Z</time>
      </trkpt>
      <trkpt lat="48.70689" lon="1.79412">
        <ele>183.80000305176</ele>
        <time>2012-12-31T11:55:18.000Z</time>
      </trkpt>
      <trkpt lat="48.70677" lon="1.79413">
        <ele>183.39999389648</ele>
        <time>2012-12-31T11:55:27.000Z</time>
      </trkpt>
      <trkpt lat="48.70669" lon="1.79414">
        <ele>183</ele>
        <time>2012-12-31T11:55:33.000Z</time>
      </trkpt>
      <trkpt lat="48.70662" lon="1.79413">
        <ele>183</ele>
        <time>2012-12-31T11:55:38.000Z</time>
      </trkpt>
      <trkpt lat="48.70661" lon="1.79414">
        <ele>183.19999694824</ele>
        <time>2012-12-31T11:55:39.000Z</time>
      </trkpt>
      <trkpt lat="48.70655" lon="1.79411">
        <ele>183.39999389648</ele>
        <time>2012-12-31T11:55:44.000Z</time>
      </trkpt>
      <trkpt lat="48.70654" lon="1.79401">
        <ele>183.60000610352</ele>
        <time>2012-12-31T11:55:51.000Z</time>
      </trkpt>
      <trkpt lat="48.70654" lon="1.79399">
        <ele>183.80000305176</ele>
        <time>2012-12-31T11:55:52.000Z</time>
      </trkpt>
      <trkpt lat="48.70652" lon="1.7939">
        <ele>184</ele>
        <time>2012-12-31T11:55:57.000Z</time>
      </trkpt>
      <trkpt lat="48.70651" lon="1.79379">
        <ele>184.39999389648</ele>
        <time>2012-12-31T11:56:03.000Z</time>
      </trkpt>
      <trkpt lat="48.70648" lon="1.79364">
        <ele>184.80000305176</ele>
        <time>2012-12-31T11:56:11.000Z</time>
      </trkpt>
      <trkpt lat="48.70647" lon="1.79357">
        <ele>185.19999694824</ele>
        <time>2012-12-31T11:56:18.000Z</time>
      </trkpt>
      <trkpt lat="48.70646" lon="1.79343">
        <ele>185.60000610352</ele>
        <time>2012-12-31T11:57:03.000Z</time>
      </trkpt>
      <trkpt lat="48.70647" lon="1.79334">
        <ele>185.80000305176</ele>
        <time>2012-12-31T11:57:07.000Z</time>
      </trkpt>
      <trkpt lat="48.70646" lon="1.79324">
        <ele>185.80000305176</ele>
        <time>2012-12-31T11:57:13.000Z</time>
      </trkpt>
      <trkpt lat="48.70645" lon="1.79312">
        <ele>185.60000610352</ele>
        <time>2012-12-31T11:57:17.000Z</time>
      </trkpt>
      <trkpt lat="48.70645" lon="1.7931">
        <ele>185.60000610352</ele>
        <time>2012-12-31T11:57:18.000Z</time>
      </trkpt>
      <trkpt lat="48.70641" lon="1.79297">
        <ele>185.80000305176</ele>
        <time>2012-12-31T11:57:26.000Z</time>
      </trkpt>
      <trkpt lat="48.70638" lon="1.79286">
        <ele>185.80000305176</ele>
        <time>2012-12-31T11:57:33.000Z</time>
      </trkpt>
      <trkpt lat="48.70634" lon="1.79274">
        <ele>185.80000305176</ele>
        <time>2012-12-31T11:57:38.000Z</time>
      </trkpt>
      <trkpt lat="48.70631" lon="1.7926">
        <ele>185.80000305176</ele>
        <time>2012-12-31T11:57:45.000Z</time>
      </trkpt>
      <trkpt lat="48.70628" lon="1.79244">
        <ele>185.80000305176</ele>
        <time>2012-12-31T11:57:53.000Z</time>
      </trkpt>
      <trkpt lat="48.70626" lon="1.79228">
        <ele>185.80000305176</ele>
        <time>2012-12-31T11:58:01.000Z</time>
      </trkpt>
      <trkpt lat="48.70626" lon="1.79212">
        <ele>185.80000305176</ele>
        <time>2012-12-31T11:58:08.000Z</time>
      </trkpt>
      <trkpt lat="48.70625" lon="1.79198">
        <ele>185.80000305176</ele>
        <time>2012-12-31T11:58:15.000Z</time>
      </trkpt>
      <trkpt lat="48.70626" lon="1.79183">
        <ele>185.80000305176</ele>
        <time>2012-12-31T11:58:23.000Z</time>
      </trkpt>
      <trkpt lat="48.70623" lon="1.79166">
        <ele>186</ele>
        <time>2012-12-31T11:58:29.000Z</time>
      </trkpt>
      <trkpt lat="48.70622" lon="1.79158">
        <ele>186.19999694824</ele>
        <time>2012-12-31T11:58:32.000Z</time>
      </trkpt>
      <trkpt lat="48.70619" lon="1.79152">
        <ele>186.39999389648</ele>
        <time>2012-12-31T11:58:36.000Z</time>
      </trkpt>
      <trkpt lat="48.70613" lon="1.79137">
        <ele>186.80000305176</ele>
        <time>2012-12-31T11:58:44.000Z</time>
      </trkpt>
      <trkpt lat="48.70613" lon="1.79135">
        <ele>186.80000305176</ele>
        <time>2012-12-31T11:58:45.000Z</time>
      </trkpt>
      <trkpt lat="48.7061" lon="1.79123">
        <ele>187</ele>
        <time>2012-12-31T11:58:52.000Z</time>
      </trkpt>
      <trkpt lat="48.70609" lon="1.79109">
        <ele>187</ele>
        <time>2012-12-31T11:58:59.000Z</time>
      </trkpt>
      <trkpt lat="48.70609" lon="1.79107">
        <ele>187</ele>
        <time>2012-12-31T11:59:00.000Z</time>
      </trkpt>
      <trkpt lat="48.70609" lon="1.79099">
        <ele>187.19999694824</ele>
        <time>2012-12-31T11:59:05.000Z</time>
      </trkpt>
      <trkpt lat="48.70606" lon="1.79085">
        <ele>187.39999389648</ele>
        <time>2012-12-31T11:59:11.000Z</time>
      </trkpt>
      <trkpt lat="48.70604" lon="1.7907">
        <ele>187.39999389648</ele>
        <time>2012-12-31T11:59:19.000Z</time>
      </trkpt>
      <trkpt lat="48.70603" lon="1.79057">
        <ele>187.60000610352</ele>
        <time>2012-12-31T11:59:26.000Z</time>
      </trkpt>
      <trkpt lat="48.70604" lon="1.79047">
        <ele>187.60000610352</ele>
        <time>2012-12-31T11:59:32.000Z</time>
      </trkpt>
      <trkpt lat="48.70603" lon="1.79042">
        <ele>187.60000610352</ele>
        <time>2012-12-31T11:59:36.000Z</time>
      </trkpt>
      <trkpt lat="48.70602" lon="1.79032">
        <ele>187.80000305176</ele>
        <time>2012-12-31T11:59:42.000Z</time>
      </trkpt>
      <trkpt lat="48.70597" lon="1.79017">
        <ele>187.80000305176</ele>
        <time>2012-12-31T11:59:50.000Z</time>
      </trkpt>
      <trkpt lat="48.70596" lon="1.79005">
        <ele>187.80000305176</ele>
        <time>2012-12-31T11:59:56.000Z</time>
      </trkpt>
      <trkpt lat="48.70594" lon="1.78998">
        <ele>188</ele>
        <time>2012-12-31T12:00:00.000Z</time>
      </trkpt>
      <trkpt lat="48.7059" lon="1.78985">
        <ele>188</ele>
        <time>2012-12-31T12:00:06.000Z</time>
      </trkpt>
      <trkpt lat="48.70589" lon="1.78974">
        <ele>188</ele>
        <time>2012-12-31T12:00:11.000Z</time>
      </trkpt>
      <trkpt lat="48.70585" lon="1.78961">
        <ele>188</ele>
        <time>2012-12-31T12:00:18.000Z</time>
      </trkpt>
      <trkpt lat="48.70585" lon="1.78951">
        <ele>188</ele>
        <time>2012-12-31T12:00:24.000Z</time>
      </trkpt>
      <trkpt lat="48.70585" lon="1.78946">
        <ele>188</ele>
        <time>2012-12-31T12:00:26.000Z</time>
      </trkpt>
      <trkpt lat="48.70585" lon="1.7894">
        <ele>188</ele>
        <time>2012-12-31T12:00:30.000Z</time>
      </trkpt>
      <trkpt lat="48.70582" lon="1.78927">
        <ele>188</ele>
        <time>2012-12-31T12:00:38.000Z</time>
      </trkpt>
      <trkpt lat="48.7058" lon="1.78921">
        <ele>188</ele>
        <time>2012-12-31T12:00:42.000Z</time>
      </trkpt>
      <trkpt lat="48.70577" lon="1.7891">
        <ele>187.80000305176</ele>
        <time>2012-12-31T12:00:49.000Z</time>
      </trkpt>
      <trkpt lat="48.70573" lon="1.78896">
        <ele>187.60000610352</ele>
        <time>2012-12-31T12:00:56.000Z</time>
      </trkpt>
      <trkpt lat="48.70572" lon="1.78894">
        <ele>187.60000610352</ele>
        <time>2012-12-31T12:00:57.000Z</time>
      </trkpt>
      <trkpt lat="48.70567" lon="1.78876">
        <ele>187.60000610352</ele>
        <time>2012-12-31T12:01:05.000Z</time>
      </trkpt>
      <trkpt lat="48.70568" lon="1.78869">
        <ele>187.39999389648</ele>
        <time>2012-12-31T12:01:09.000Z</time>
      </trkpt>
      <trkpt lat="48.70565" lon="1.78859">
        <ele>187.39999389648</ele>
        <time>2012-12-31T12:01:16.000Z</time>
      </trkpt>
      <trkpt lat="48.70564" lon="1.78851">
        <ele>187.19999694824</ele>
        <time>2012-12-31T12:01:20.000Z</time>
      </trkpt>
      <trkpt lat="48.70565" lon="1.78844">
        <ele>187.19999694824</ele>
        <time>2012-12-31T12:01:28.000Z</time>
      </trkpt>
      <trkpt lat="48.70565" lon="1.78844">
        <ele>187.19999694824</ele>
        <time>2012-12-31T12:01:29.000Z</time>
      </trkpt>
      <trkpt lat="48.70566" lon="1.78835">
        <ele>187.19999694824</ele>
        <time>2012-12-31T12:01:37.000Z</time>
      </trkpt>
      <trkpt lat="48.70563" lon="1.78822">
        <ele>187.19999694824</ele>
        <time>2012-12-31T12:01:41.000Z</time>
      </trkpt>
      <trkpt lat="48.70559" lon="1.78809">
        <ele>187.39999389648</ele>
        <time>2012-12-31T12:01:47.000Z</time>
      </trkpt>
      <trkpt lat="48.70559" lon="1.78793">
        <ele>187.60000610352</ele>
        <time>2012-12-31T12:01:55.000Z</time>
      </trkpt>
      <trkpt lat="48.70557" lon="1.78778">
        <ele>187.60000610352</ele>
        <time>2012-12-31T12:02:01.000Z</time>
      </trkpt>
      <trkpt lat="48.70556" lon="1.78775">
        <ele>187.60000610352</ele>
        <time>2012-12-31T12:02:02.000Z</time>
      </trkpt>
      <trkpt lat="48.70555" lon="1.78764">
        <ele>187.80000305176</ele>
        <time>2012-12-31T12:02:07.000Z</time>
      </trkpt>
      <trkpt lat="48.70552" lon="1.78755">
        <ele>187.80000305176</ele>
        <time>2012-12-31T12:02:12.000Z</time>
      </trkpt>
      <trkpt lat="48.70551" lon="1.78743">
        <ele>188</ele>
        <time>2012-12-31T12:02:19.000Z</time>
      </trkpt>
      <trkpt lat="48.7055" lon="1.7874">
        <ele>188</ele>
        <time>2012-12-31T12:02:21.000Z</time>
      </trkpt>
      <trkpt lat="48.70549" lon="1.7873">
        <ele>188</ele>
        <time>2012-12-31T12:02:25.000Z</time>
      </trkpt>
      <trkpt lat="48.70547" lon="1.78717">
        <ele>188</ele>
        <time>2012-12-31T12:02:31.000Z</time>
      </trkpt>
      <trkpt lat="48.70546" lon="1.78715">
        <ele>188</ele>
        <time>2012-12-31T12:02:32.000Z</time>
      </trkpt>
      <trkpt lat="48.70543" lon="1.78701">
        <ele>188</ele>
        <time>2012-12-31T12:02:38.000Z</time>
      </trkpt>
      <trkpt lat="48.70541" lon="1.78686">
        <ele>188</ele>
        <time>2012-12-31T12:02:46.000Z</time>
      </trkpt>
      <trkpt lat="48.7054" lon="1.78677">
        <ele>188</ele>
        <time>2012-12-31T12:02:51.000Z</time>
      </trkpt>
      <trkpt lat="48.70539" lon="1.78674">
        <ele>188</ele>
        <time>2012-12-31T12:02:53.000Z</time>
      </trkpt>
      <trkpt lat="48.70539" lon="1.78666">
        <ele>188</ele>
        <time>2012-12-31T12:02:58.000Z</time>
      </trkpt>
      <trkpt lat="48.70536" lon="1.78647">
        <ele>188</ele>
        <time>2012-12-31T12:03:07.000Z</time>
      </trkpt>
      <trkpt lat="48.70533" lon="1.78627">
        <ele>188</ele>
        <time>2012-12-31T12:03:16.000Z</time>
      </trkpt>
      <trkpt lat="48.70532" lon="1.78621">
        <ele>188</ele>
        <time>2012-12-31T12:03:19.000Z</time>
      </trkpt>
      <trkpt lat="48.70529" lon="1.78609">
        <ele>188</ele>
        <time>2012-12-31T12:03:25.000Z</time>
      </trkpt>
      <trkpt lat="48.70529" lon="1.78606">
        <ele>188</ele>
        <time>2012-12-31T12:03:26.000Z</time>
      </trkpt>
      <trkpt lat="48.70527" lon="1.78592">
        <ele>188</ele>
        <time>2012-12-31T12:03:33.000Z</time>
      </trkpt>
      <trkpt lat="48.70526" lon="1.78585">
        <ele>188</ele>
        <time>2012-12-31T12:03:36.000Z</time>
      </trkpt>
      <trkpt lat="48.70524" lon="1.78578">
        <ele>188</ele>
        <time>2012-12-31T12:03:41.000Z</time>
      </trkpt>
      <trkpt lat="48.70516" lon="1.7857">
        <ele>188</ele>
        <time>2012-12-31T12:03:48.000Z</time>
      </trkpt>
      <trkpt lat="48.70512" lon="1.78565">
        <ele>188.19999694824</ele>
        <time>2012-12-31T12:03:52.000Z</time>
      </trkpt>
      <trkpt lat="48.7051" lon="1.7855">
        <ele>188.39999389648</ele>
        <time>2012-12-31T12:03:58.000Z</time>
      </trkpt>
      <trkpt lat="48.7051" lon="1.78528">
        <ele>188.60000610352</ele>
        <time>2012-12-31T12:04:06.000Z</time>
      </trkpt>
      <trkpt lat="48.70507" lon="1.78512">
        <ele>188.80000305176</ele>
        <time>2012-12-31T12:04:12.000Z</time>
      </trkpt>
      <trkpt lat="48.70509" lon="1.78498">
        <ele>189</ele>
        <time>2012-12-31T12:04:19.000Z</time>
      </trkpt>
      <trkpt lat="48.70509" lon="1.78495">
        <ele>189</ele>
        <time>2012-12-31T12:04:21.000Z</time>
      </trkpt>
      <trkpt lat="48.70506" lon="1.78482">
        <ele>189</ele>
        <time>2012-12-31T12:04:27.000Z</time>
      </trkpt>
      <trkpt lat="48.70506" lon="1.78473">
        <ele>189</ele>
        <time>2012-12-31T12:04:31.000Z</time>
      </trkpt>
      <trkpt lat="48.70502" lon="1.78459">
        <ele>189</ele>
        <time>2012-12-31T12:04:38.000Z</time>
      </trkpt>
      <trkpt lat="48.70498" lon="1.78451">
        <ele>189</ele>
        <time>2012-12-31T12:04:44.000Z</time>
      </trkpt>
      <trkpt lat="48.70493" lon="1.78444">
        <ele>189</ele>
        <time>2012-12-31T12:04:50.000Z</time>
      </trkpt>
      <trkpt lat="48.70491" lon="1.78438">
        <ele>189</ele>
        <time>2012-12-31T12:04:54.000Z</time>
      </trkpt>
      <trkpt lat="48.70489" lon="1.78427">
        <ele>189</ele>
        <time>2012-12-31T12:04:59.000Z</time>
      </trkpt>
      <trkpt lat="48.70488" lon="1.78411">
        <ele>189</ele>
        <time>2012-12-31T12:05:06.000Z</time>
      </trkpt>
      <trkpt lat="48.70488" lon="1.78398">
        <ele>189</ele>
        <time>2012-12-31T12:05:11.000Z</time>
      </trkpt>
      <trkpt lat="48.70486" lon="1.78383">
        <ele>189</ele>
        <time>2012-12-31T12:05:17.000Z</time>
      </trkpt>
      <trkpt lat="48.70487" lon="1.78381">
        <ele>189</ele>
        <time>2012-12-31T12:05:20.000Z</time>
      </trkpt>
      <trkpt lat="48.70479" lon="1.78321">
        <ele>189</ele>
        <time>2012-12-31T12:06:28.000Z</time>
      </trkpt>
      <trkpt lat="48.70478" lon="1.78304">
        <ele>189</ele>
        <time>2012-12-31T12:06:35.000Z</time>
      </trkpt>
      <trkpt lat="48.70478" lon="1.78294">
        <ele>189</ele>
        <time>2012-12-31T12:06:40.000Z</time>
      </trkpt>
      <trkpt lat="48.70476" lon="1.78284">
        <ele>189</ele>
        <time>2012-12-31T12:06:46.000Z</time>
      </trkpt>
      <trkpt lat="48.70474" lon="1.78275">
        <ele>189</ele>
        <time>2012-12-31T12:06:51.000Z</time>
      </trkpt>
      <trkpt lat="48.70472" lon="1.78258">
        <ele>189</ele>
        <time>2012-12-31T12:06:58.000Z</time>
      </trkpt>
      <trkpt lat="48.7047" lon="1.78247">
        <ele>188.80000305176</ele>
        <time>2012-12-31T12:07:04.000Z</time>
      </trkpt>
      <trkpt lat="48.70468" lon="1.78236">
        <ele>188.80000305176</ele>
        <time>2012-12-31T12:07:10.000Z</time>
      </trkpt>
      <trkpt lat="48.70467" lon="1.78224">
        <ele>188.80000305176</ele>
        <time>2012-12-31T12:07:16.000Z</time>
      </trkpt>
      <trkpt lat="48.70465" lon="1.78202">
        <ele>188.60000610352</ele>
        <time>2012-12-31T12:07:27.000Z</time>
      </trkpt>
      <trkpt lat="48.70462" lon="1.78187">
        <ele>188.39999389648</ele>
        <time>2012-12-31T12:07:35.000Z</time>
      </trkpt>
      <trkpt lat="48.70462" lon="1.78173">
        <ele>188.39999389648</ele>
        <time>2012-12-31T12:07:43.000Z</time>
      </trkpt>
      <trkpt lat="48.7046" lon="1.78164">
        <ele>188.39999389648</ele>
        <time>2012-12-31T12:07:49.000Z</time>
      </trkpt>
      <trkpt lat="48.70454" lon="1.78157">
        <ele>188.39999389648</ele>
        <time>2012-12-31T12:07:54.000Z</time>
      </trkpt>
      <trkpt lat="48.70452" lon="1.78138">
        <ele>188.39999389648</ele>
        <time>2012-12-31T12:08:03.000Z</time>
      </trkpt>
      <trkpt lat="48.70451" lon="1.78125">
        <ele>188.39999389648</ele>
        <time>2012-12-31T12:08:10.000Z</time>
      </trkpt>
      <trkpt lat="48.7045" lon="1.7811">
        <ele>188.39999389648</ele>
        <time>2012-12-31T12:08:18.000Z</time>
      </trkpt>
      <trkpt lat="48.70448" lon="1.78094">
        <ele>188.60000610352</ele>
        <time>2012-12-31T12:08:27.000Z</time>
      </trkpt>
      <trkpt lat="48.70446" lon="1.78079">
        <ele>188.60000610352</ele>
        <time>2012-12-31T12:08:35.000Z</time>
      </trkpt>
      <trkpt lat="48.70444" lon="1.78071">
        <ele>188.60000610352</ele>
        <time>2012-12-31T12:08:40.000Z</time>
      </trkpt>
      <trkpt lat="48.70442" lon="1.78063">
        <ele>188.60000610352</ele>
        <time>2012-12-31T12:08:44.000Z</time>
      </trkpt>
      <trkpt lat="48.70442" lon="1.78055">
        <ele>188.60000610352</ele>
        <time>2012-12-31T12:08:48.000Z</time>
      </trkpt>
      <trkpt lat="48.70442" lon="1.78048">
        <ele>188.60000610352</ele>
        <time>2012-12-31T12:08:52.000Z</time>
      </trkpt>
      <trkpt lat="48.70443" lon="1.7804">
        <ele>188.60000610352</ele>
        <time>2012-12-31T12:08:56.000Z</time>
      </trkpt>
      <trkpt lat="48.7044" lon="1.78027">
        <ele>188.60000610352</ele>
        <time>2012-12-31T12:09:06.000Z</time>
      </trkpt>
      <trkpt lat="48.70435" lon="1.78027">
        <ele>188.60000610352</ele>
        <time>2012-12-31T12:09:14.000Z</time>
      </trkpt>
      <trkpt lat="48.70435" lon="1.78026">
        <ele>188.60000610352</ele>
        <time>2012-12-31T12:09:17.000Z</time>
      </trkpt>
      <trkpt lat="48.70436" lon="1.7799">
        <ele>188.60000610352</ele>
        <time>2012-12-31T12:11:04.000Z</time>
      </trkpt>
      <trkpt lat="48.70438" lon="1.77996">
        <ele>188.60000610352</ele>
        <time>2012-12-31T12:11:08.000Z</time>
      </trkpt>
      <trkpt lat="48.70439" lon="1.77997">
        <ele>188.60000610352</ele>
        <time>2012-12-31T12:11:11.000Z</time>
      </trkpt>
      <trkpt lat="48.70432" lon="1.78005">
        <ele>188.80000305176</ele>
        <time>2012-12-31T12:12:35.000Z</time>
      </trkpt>
      <trkpt lat="48.70431" lon="1.78006">
        <ele>188.80000305176</ele>
        <time>2012-12-31T12:12:46.000Z</time>
      </trkpt>
      <trkpt lat="48.70431" lon="1.78005">
        <ele>188.80000305176</ele>
        <time>2012-12-31T12:12:47.000Z</time>
      </trkpt>
      <trkpt lat="48.70432" lon="1.7798">
        <ele>188.39999389648</ele>
        <time>2012-12-31T12:13:38.000Z</time>
      </trkpt>
      <trkpt lat="48.7043" lon="1.77972">
        <ele>188.39999389648</ele>
        <time>2012-12-31T12:13:42.000Z</time>
      </trkpt>
      <trkpt lat="48.70429" lon="1.77969">
        <ele>188.39999389648</ele>
        <time>2012-12-31T12:13:44.000Z</time>
      </trkpt>
      <trkpt lat="48.70426" lon="1.77957">
        <ele>188.19999694824</ele>
        <time>2012-12-31T12:13:53.000Z</time>
      </trkpt>
      <trkpt lat="48.70423" lon="1.7795">
        <ele>188.19999694824</ele>
        <time>2012-12-31T12:13:58.000Z</time>
      </trkpt>
      <trkpt lat="48.70424" lon="1.77945">
        <ele>188.19999694824</ele>
        <time>2012-12-31T12:14:04.000Z</time>
      </trkpt>
      <trkpt lat="48.70422" lon="1.77932">
        <ele>188</ele>
        <time>2012-12-31T12:14:11.000Z</time>
      </trkpt>
      <trkpt lat="48.70421" lon="1.77916">
        <ele>187.80000305176</ele>
        <time>2012-12-31T12:14:20.000Z</time>
      </trkpt>
      <trkpt lat="48.70419" lon="1.77908">
        <ele>187.80000305176</ele>
        <time>2012-12-31T12:14:24.000Z</time>
      </trkpt>
      <trkpt lat="48.70416" lon="1.7789">
        <ele>187.80000305176</ele>
        <time>2012-12-31T12:14:34.000Z</time>
      </trkpt>
      <trkpt lat="48.70416" lon="1.77889">
        <ele>187.80000305176</ele>
        <time>2012-12-31T12:14:35.000Z</time>
      </trkpt>
      <trkpt lat="48.70415" lon="1.7788">
        <ele>187.80000305176</ele>
        <time>2012-12-31T12:14:40.000Z</time>
      </trkpt>
      <trkpt lat="48.70414" lon="1.77866">
        <ele>188</ele>
        <time>2012-12-31T12:14:47.000Z</time>
      </trkpt>
      <trkpt lat="48.70412" lon="1.77858">
        <ele>188</ele>
        <time>2012-12-31T12:14:52.000Z</time>
      </trkpt>
      <trkpt lat="48.70411" lon="1.7785">
        <ele>188</ele>
        <time>2012-12-31T12:14:57.000Z</time>
      </trkpt>
      <trkpt lat="48.70406" lon="1.77838">
        <ele>188</ele>
        <time>2012-12-31T12:15:04.000Z</time>
      </trkpt>
      <trkpt lat="48.70404" lon="1.77829">
        <ele>188</ele>
        <time>2012-12-31T12:15:09.000Z</time>
      </trkpt>
      <trkpt lat="48.70403" lon="1.77827">
        <ele>188</ele>
        <time>2012-12-31T12:15:10.000Z</time>
      </trkpt>
      <trkpt lat="48.70399" lon="1.77812">
        <ele>188</ele>
        <time>2012-12-31T12:15:17.000Z</time>
      </trkpt>
      <trkpt lat="48.70398" lon="1.7781">
        <ele>187.80000305176</ele>
        <time>2012-12-31T12:15:18.000Z</time>
      </trkpt>
      <trkpt lat="48.704" lon="1.77799">
        <ele>187.80000305176</ele>
        <time>2012-12-31T12:15:23.000Z</time>
      </trkpt>
      <trkpt lat="48.70401" lon="1.77798">
        <ele>187.80000305176</ele>
        <time>2012-12-31T12:15:26.000Z</time>
      </trkpt>
      <trkpt lat="48.70392" lon="1.77779">
        <ele>187.80000305176</ele>
        <time>2012-12-31T12:16:07.000Z</time>
      </trkpt>
      <trkpt lat="48.70392" lon="1.77769">
        <ele>187.60000610352</ele>
        <time>2012-12-31T12:16:10.000Z</time>
      </trkpt>
      <trkpt lat="48.70392" lon="1.77756">
        <ele>187.60000610352</ele>
        <time>2012-12-31T12:16:16.000Z</time>
      </trkpt>
      <trkpt lat="48.70392" lon="1.77741">
        <ele>187.39999389648</ele>
        <time>2012-12-31T12:16:24.000Z</time>
      </trkpt>
      <trkpt lat="48.70391" lon="1.77729">
        <ele>187.60000610352</ele>
        <time>2012-12-31T12:16:31.000Z</time>
      </trkpt>
      <trkpt lat="48.70391" lon="1.77718">
        <ele>187.60000610352</ele>
        <time>2012-12-31T12:16:37.000Z</time>
      </trkpt>
      <trkpt lat="48.70391" lon="1.77714">
        <ele>187.60000610352</ele>
        <time>2012-12-31T12:16:39.000Z</time>
      </trkpt>
      <trkpt lat="48.70387" lon="1.77698">
        <ele>187.60000610352</ele>
        <time>2012-12-31T12:16:47.000Z</time>
      </trkpt>
      <trkpt lat="48.70386" lon="1.77696">
        <ele>187.60000610352</ele>
        <time>2012-12-31T12:16:48.000Z</time>
      </trkpt>
      <trkpt lat="48.70383" lon="1.7768">
        <ele>187.60000610352</ele>
        <time>2012-12-31T12:16:52.000Z</time>
      </trkpt>
      <trkpt lat="48.70378" lon="1.77643">
        <ele>188</ele>
        <time>2012-12-31T12:17:00.000Z</time>
      </trkpt>
      <trkpt lat="48.70375" lon="1.77617">
        <ele>188.19999694824</ele>
        <time>2012-12-31T12:17:05.000Z</time>
      </trkpt>
      <trkpt lat="48.70372" lon="1.77598">
        <ele>188.39999389648</ele>
        <time>2012-12-31T12:17:09.000Z</time>
      </trkpt>
      <trkpt lat="48.70367" lon="1.77572">
        <ele>188.39999389648</ele>
        <time>2012-12-31T12:17:14.000Z</time>
      </trkpt>
      <trkpt lat="48.70364" lon="1.77551">
        <ele>188.19999694824</ele>
        <time>2012-12-31T12:17:18.000Z</time>
      </trkpt>
      <trkpt lat="48.7036" lon="1.77521">
        <ele>187.60000610352</ele>
        <time>2012-12-31T12:17:23.000Z</time>
      </trkpt>
      <trkpt lat="48.70354" lon="1.77486">
        <ele>187</ele>
        <time>2012-12-31T12:17:29.000Z</time>
      </trkpt>
      <trkpt lat="48.7035" lon="1.77458">
        <ele>186.39999389648</ele>
        <time>2012-12-31T12:17:34.000Z</time>
      </trkpt>
      <trkpt lat="48.70348" lon="1.77436">
        <ele>186</ele>
        <time>2012-12-31T12:17:38.000Z</time>
      </trkpt>
      <trkpt lat="48.70348" lon="1.77408">
        <ele>185.19999694824</ele>
        <time>2012-12-31T12:17:43.000Z</time>
      </trkpt>
      <trkpt lat="48.7035" lon="1.77393">
        <ele>184.39999389648</ele>
        <time>2012-12-31T12:17:46.000Z</time>
      </trkpt>
      <trkpt lat="48.70361" lon="1.77366">
        <ele>183</ele>
        <time>2012-12-31T12:17:53.000Z</time>
      </trkpt>
      <trkpt lat="48.70365" lon="1.77358">
        <ele>182.60000610352</ele>
        <time>2012-12-31T12:17:55.000Z</time>
      </trkpt>
      <trkpt lat="48.70369" lon="1.77333">
        <ele>181.80000305176</ele>
        <time>2012-12-31T12:18:01.000Z</time>
      </trkpt>
      <trkpt lat="48.7037" lon="1.7733">
        <ele>181.80000305176</ele>
        <time>2012-12-31T12:18:02.000Z</time>
      </trkpt>
      <trkpt lat="48.70368" lon="1.77322">
        <ele>181.60000610352</ele>
        <time>2012-12-31T12:18:06.000Z</time>
      </trkpt>
      <trkpt lat="48.70368" lon="1.77315">
        <ele>181.39999389648</ele>
        <time>2012-12-31T12:18:13.000Z</time>
      </trkpt>
      <trkpt lat="48.70368" lon="1.77314">
        <ele>181.39999389648</ele>
        <time>2012-12-31T12:18:14.000Z</time>
      </trkpt>
      <trkpt lat="48.7037" lon="1.77306">
        <ele>181.39999389648</ele>
        <time>2012-12-31T12:18:21.000Z</time>
      </trkpt>
      <trkpt lat="48.70371" lon="1.77292">
        <ele>181</ele>
        <time>2012-12-31T12:18:27.000Z</time>
      </trkpt>
      <trkpt lat="48.7037" lon="1.77275">
        <ele>180.80000305176</ele>
        <time>2012-12-31T12:18:35.000Z</time>
      </trkpt>
      <trkpt lat="48.70369" lon="1.77261">
        <ele>180.60000610352</ele>
        <time>2012-12-31T12:18:42.000Z</time>
      </trkpt>
      <trkpt lat="48.70367" lon="1.7724">
        <ele>180.39999389648</ele>
        <time>2012-12-31T12:18:52.000Z</time>
      </trkpt>
      <trkpt lat="48.70365" lon="1.77223">
        <ele>180.39999389648</ele>
        <time>2012-12-31T12:19:01.000Z</time>
      </trkpt>
      <trkpt lat="48.70364" lon="1.77208">
        <ele>180.60000610352</ele>
        <time>2012-12-31T12:19:09.000Z</time>
      </trkpt>
      <trkpt lat="48.70362" lon="1.77192">
        <ele>180.60000610352</ele>
        <time>2012-12-31T12:19:17.000Z</time>
      </trkpt>
      <trkpt lat="48.70361" lon="1.77176">
        <ele>180.80000305176</ele>
        <time>2012-12-31T12:19:25.000Z</time>
      </trkpt>
      <trkpt lat="48.70359" lon="1.77157">
        <ele>181</ele>
        <time>2012-12-31T12:19:34.000Z</time>
      </trkpt>
      <trkpt lat="48.70357" lon="1.77136">
        <ele>181</ele>
        <time>2012-12-31T12:19:45.000Z</time>
      </trkpt>
      <trkpt lat="48.70354" lon="1.77114">
        <ele>181</ele>
        <time>2012-12-31T12:19:56.000Z</time>
      </trkpt>
      <trkpt lat="48.70353" lon="1.77096">
        <ele>181</ele>
        <time>2012-12-31T12:20:05.000Z</time>
      </trkpt>
      <trkpt lat="48.70351" lon="1.77076">
        <ele>181</ele>
        <time>2012-12-31T12:20:15.000Z</time>
      </trkpt>
      <trkpt lat="48.70351" lon="1.77068">
        <ele>181</ele>
        <time>2012-12-31T12:20:19.000Z</time>
      </trkpt>
      <trkpt lat="48.7035" lon="1.77056">
        <ele>181.19999694824</ele>
        <time>2012-12-31T12:20:25.000Z</time>
      </trkpt>
      <trkpt lat="48.70349" lon="1.77039">
        <ele>181.19999694824</ele>
        <time>2012-12-31T12:20:34.000Z</time>
      </trkpt>
      <trkpt lat="48.70349" lon="1.77037">
        <ele>181.19999694824</ele>
        <time>2012-12-31T12:20:35.000Z</time>
      </trkpt>
      <trkpt lat="48.70347" lon="1.77015">
        <ele>181.19999694824</ele>
        <time>2012-12-31T12:20:46.000Z</time>
      </trkpt>
      <trkpt lat="48.70346" lon="1.76994">
        <ele>181.19999694824</ele>
        <time>2012-12-31T12:20:56.000Z</time>
      </trkpt>
      <trkpt lat="48.70344" lon="1.76971">
        <ele>181</ele>
        <time>2012-12-31T12:21:07.000Z</time>
      </trkpt>
      <trkpt lat="48.70341" lon="1.76955">
        <ele>180.80000305176</ele>
        <time>2012-12-31T12:21:16.000Z</time>
      </trkpt>
      <trkpt lat="48.70341" lon="1.76937">
        <ele>180.60000610352</ele>
        <time>2012-12-31T12:21:24.000Z</time>
      </trkpt>
      <trkpt lat="48.7034" lon="1.76923">
        <ele>180.19999694824</ele>
        <time>2012-12-31T12:21:31.000Z</time>
      </trkpt>
      <trkpt lat="48.7034" lon="1.76908">
        <ele>180</ele>
        <time>2012-12-31T12:21:38.000Z</time>
      </trkpt>
      <trkpt lat="48.70339" lon="1.76906">
        <ele>180</ele>
        <time>2012-12-31T12:21:39.000Z</time>
      </trkpt>
      <trkpt lat="48.70338" lon="1.76884">
        <ele>179.60000610352</ele>
        <time>2012-12-31T12:21:49.000Z</time>
      </trkpt>
      <trkpt lat="48.70337" lon="1.76869">
        <ele>179.39999389648</ele>
        <time>2012-12-31T12:21:56.000Z</time>
      </trkpt>
      <trkpt lat="48.70336" lon="1.76843">
        <ele>179.19999694824</ele>
        <time>2012-12-31T12:22:08.000Z</time>
      </trkpt>
      <trkpt lat="48.70335" lon="1.76814">
        <ele>178.80000305176</ele>
        <time>2012-12-31T12:22:21.000Z</time>
      </trkpt>
      <trkpt lat="48.70334" lon="1.76785">
        <ele>178.39999389648</ele>
        <time>2012-12-31T12:22:34.000Z</time>
      </trkpt>
      <trkpt lat="48.70333" lon="1.76761">
        <ele>178</ele>
        <time>2012-12-31T12:22:44.000Z</time>
      </trkpt>
      <trkpt lat="48.70332" lon="1.76733">
        <ele>178</ele>
        <time>2012-12-31T12:22:56.000Z</time>
      </trkpt>
      <trkpt lat="48.70331" lon="1.76711">
        <ele>178</ele>
        <time>2012-12-31T12:23:06.000Z</time>
      </trkpt>
      <trkpt lat="48.7033" lon="1.76689">
        <ele>178</ele>
        <time>2012-12-31T12:23:16.000Z</time>
      </trkpt>
      <trkpt lat="48.70329" lon="1.76675">
        <ele>178</ele>
        <time>2012-12-31T12:23:22.000Z</time>
      </trkpt>
      <trkpt lat="48.70329" lon="1.76657">
        <ele>178.19999694824</ele>
        <time>2012-12-31T12:23:30.000Z</time>
      </trkpt>
      <trkpt lat="48.70333" lon="1.76646">
        <ele>178.19999694824</ele>
        <time>2012-12-31T12:23:37.000Z</time>
      </trkpt>
      <trkpt lat="48.70339" lon="1.76639">
        <ele>178.39999389648</ele>
        <time>2012-12-31T12:23:43.000Z</time>
      </trkpt>
      <trkpt lat="48.70342" lon="1.76633">
        <ele>178.60000610352</ele>
        <time>2012-12-31T12:23:48.000Z</time>
      </trkpt>
      <trkpt lat="48.70348" lon="1.76624">
        <ele>178.80000305176</ele>
        <time>2012-12-31T12:23:55.000Z</time>
      </trkpt>
      <trkpt lat="48.7035" lon="1.76622">
        <ele>178.80000305176</ele>
        <time>2012-12-31T12:23:57.000Z</time>
      </trkpt>
      <trkpt lat="48.70357" lon="1.76615">
        <ele>179</ele>
        <time>2012-12-31T12:24:05.000Z</time>
      </trkpt>
      <trkpt lat="48.70357" lon="1.76615">
        <ele>179</ele>
        <time>2012-12-31T12:24:06.000Z</time>
      </trkpt>
      <trkpt lat="48.70365" lon="1.7661">
        <ele>179.39999389648</ele>
        <time>2012-12-31T12:24:24.000Z</time>
      </trkpt>
      <trkpt lat="48.70375" lon="1.76605">
        <ele>179.60000610352</ele>
        <time>2012-12-31T12:24:29.000Z</time>
      </trkpt>
      <trkpt lat="48.70376" lon="1.76605">
        <ele>179.60000610352</ele>
        <time>2012-12-31T12:24:30.000Z</time>
      </trkpt>
      <trkpt lat="48.7038" lon="1.76602">
        <ele>179.80000305176</ele>
        <time>2012-12-31T12:24:33.000Z</time>
      </trkpt>
      <trkpt lat="48.70385" lon="1.766">
        <ele>180</ele>
        <time>2012-12-31T12:24:37.000Z</time>
      </trkpt>
      <trkpt lat="48.70393" lon="1.76597">
        <ele>180.19999694824</ele>
        <time>2012-12-31T12:24:42.000Z</time>
      </trkpt>
      <trkpt lat="48.704" lon="1.76594">
        <ele>180.39999389648</ele>
        <time>2012-12-31T12:24:48.000Z</time>
      </trkpt>
      <trkpt lat="48.70408" lon="1.7659">
        <ele>180.60000610352</ele>
        <time>2012-12-31T12:24:54.000Z</time>
      </trkpt>
      <trkpt lat="48.70417" lon="1.76585">
        <ele>180.80000305176</ele>
        <time>2012-12-31T12:25:02.000Z</time>
      </trkpt>
      <trkpt lat="48.70423" lon="1.76582">
        <ele>180.60000610352</ele>
        <time>2012-12-31T12:25:07.000Z</time>
      </trkpt>
      <trkpt lat="48.70432" lon="1.76579">
        <ele>180.19999694824</ele>
        <time>2012-12-31T12:25:14.000Z</time>
      </trkpt>
      <trkpt lat="48.70434" lon="1.76578">
        <ele>180</ele>
        <time>2012-12-31T12:25:15.000Z</time>
      </trkpt>
      <trkpt lat="48.70438" lon="1.76575">
        <ele>179.80000305176</ele>
        <time>2012-12-31T12:25:18.000Z</time>
      </trkpt>
      <trkpt lat="48.70441" lon="1.76559">
        <ele>179.60000610352</ele>
        <time>2012-12-31T12:25:24.000Z</time>
      </trkpt>
      <trkpt lat="48.70444" lon="1.76547">
        <ele>179.39999389648</ele>
        <time>2012-12-31T12:25:31.000Z</time>
      </trkpt>
      <trkpt lat="48.70449" lon="1.76532">
        <ele>179.19999694824</ele>
        <time>2012-12-31T12:25:39.000Z</time>
      </trkpt>
      <trkpt lat="48.70449" lon="1.76518">
        <ele>179</ele>
        <time>2012-12-31T12:25:46.000Z</time>
      </trkpt>
      <trkpt lat="48.70451" lon="1.76506">
        <ele>178.80000305176</ele>
        <time>2012-12-31T12:25:51.000Z</time>
      </trkpt>
      <trkpt lat="48.70454" lon="1.7649">
        <ele>178.39999389648</ele>
        <time>2012-12-31T12:25:58.000Z</time>
      </trkpt>
      <trkpt lat="48.70455" lon="1.76486">
        <ele>178.19999694824</ele>
        <time>2012-12-31T12:26:00.000Z</time>
      </trkpt>
      <trkpt lat="48.70456" lon="1.76482">
        <ele>178.19999694824</ele>
        <time>2012-12-31T12:26:02.000Z</time>
      </trkpt>
      <trkpt lat="48.70457" lon="1.76474">
        <ele>177.80000305176</ele>
        <time>2012-12-31T12:26:06.000Z</time>
      </trkpt>
      <trkpt lat="48.70461" lon="1.76459">
        <ele>177.19999694824</ele>
        <time>2012-12-31T12:26:14.000Z</time>
      </trkpt>
      <trkpt lat="48.70461" lon="1.76457">
        <ele>177.19999694824</ele>
        <time>2012-12-31T12:26:15.000Z</time>
      </trkpt>
      <trkpt lat="48.70463" lon="1.76445">
        <ele>176.80000305176</ele>
        <time>2012-12-31T12:26:21.000Z</time>
      </trkpt>
      <trkpt lat="48.70465" lon="1.76425">
        <ele>176.39999389648</ele>
        <time>2012-12-31T12:26:28.000Z</time>
      </trkpt>
      <trkpt lat="48.70464" lon="1.76412">
        <ele>176</ele>
        <time>2012-12-31T12:26:33.000Z</time>
      </trkpt>
      <trkpt lat="48.70463" lon="1.76406">
        <ele>175.80000305176</ele>
        <time>2012-12-31T12:26:36.000Z</time>
      </trkpt>
      <trkpt lat="48.70459" lon="1.7639">
        <ele>175.19999694824</ele>
        <time>2012-12-31T12:26:44.000Z</time>
      </trkpt>
      <trkpt lat="48.70458" lon="1.7638">
        <ele>174.60000610352</ele>
        <time>2012-12-31T12:26:50.000Z</time>
      </trkpt>
      <trkpt lat="48.70457" lon="1.76373">
        <ele>174.39999389648</ele>
        <time>2012-12-31T12:26:53.000Z</time>
      </trkpt>
      <trkpt lat="48.70454" lon="1.76361">
        <ele>173.80000305176</ele>
        <time>2012-12-31T12:26:59.000Z</time>
      </trkpt>
      <trkpt lat="48.70452" lon="1.76351">
        <ele>173.39999389648</ele>
        <time>2012-12-31T12:27:05.000Z</time>
      </trkpt>
      <trkpt lat="48.70452" lon="1.76344">
        <ele>173.19999694824</ele>
        <time>2012-12-31T12:27:10.000Z</time>
      </trkpt>
      <trkpt lat="48.70453" lon="1.76337">
        <ele>172.80000305176</ele>
        <time>2012-12-31T12:27:15.000Z</time>
      </trkpt>
      <trkpt lat="48.70454" lon="1.76327">
        <ele>172.60000610352</ele>
        <time>2012-12-31T12:27:20.000Z</time>
      </trkpt>
      <trkpt lat="48.70452" lon="1.76318">
        <ele>172.60000610352</ele>
        <time>2012-12-31T12:27:24.000Z</time>
      </trkpt>
      <trkpt lat="48.7045" lon="1.76312">
        <ele>172.60000610352</ele>
        <time>2012-12-31T12:27:26.000Z</time>
      </trkpt>
      <trkpt lat="48.70451" lon="1.76295">
        <ele>172.39999389648</ele>
        <time>2012-12-31T12:27:32.000Z</time>
      </trkpt>
      <trkpt lat="48.70453" lon="1.76282">
        <ele>172.39999389648</ele>
        <time>2012-12-31T12:27:37.000Z</time>
      </trkpt>
      <trkpt lat="48.70454" lon="1.76278">
        <ele>172.19999694824</ele>
        <time>2012-12-31T12:27:39.000Z</time>
      </trkpt>
      <trkpt lat="48.70457" lon="1.76261">
        <ele>172</ele>
        <time>2012-12-31T12:27:47.000Z</time>
      </trkpt>
      <trkpt lat="48.7046" lon="1.76251">
        <ele>171.80000305176</ele>
        <time>2012-12-31T12:27:52.000Z</time>
      </trkpt>
      <trkpt lat="48.70461" lon="1.76244">
        <ele>171.80000305176</ele>
        <time>2012-12-31T12:27:55.000Z</time>
      </trkpt>
      <trkpt lat="48.70461" lon="1.76233">
        <ele>172.19999694824</ele>
        <time>2012-12-31T12:28:01.000Z</time>
      </trkpt>
      <trkpt lat="48.70462" lon="1.7623">
        <ele>172.19999694824</ele>
        <time>2012-12-31T12:28:02.000Z</time>
      </trkpt>
      <trkpt lat="48.70462" lon="1.76217">
        <ele>172.60000610352</ele>
        <time>2012-12-31T12:28:09.000Z</time>
      </trkpt>
      <trkpt lat="48.70462" lon="1.76208">
        <ele>172.80000305176</ele>
        <time>2012-12-31T12:28:14.000Z</time>
      </trkpt>
      <trkpt lat="48.70459" lon="1.76195">
        <ele>173.19999694824</ele>
        <time>2012-12-31T12:28:20.000Z</time>
      </trkpt>
      <trkpt lat="48.70458" lon="1.76184">
        <ele>173.39999389648</ele>
        <time>2012-12-31T12:28:25.000Z</time>
      </trkpt>
      <trkpt lat="48.70457" lon="1.76173">
        <ele>173.80000305176</ele>
        <time>2012-12-31T12:28:30.000Z</time>
      </trkpt>
      <trkpt lat="48.70456" lon="1.7616">
        <ele>174</ele>
        <time>2012-12-31T12:28:36.000Z</time>
      </trkpt>
      <trkpt lat="48.70455" lon="1.76145">
        <ele>174.39999389648</ele>
        <time>2012-12-31T12:28:42.000Z</time>
      </trkpt>
      <trkpt lat="48.70457" lon="1.76134">
        <ele>174.39999389648</ele>
        <time>2012-12-31T12:28:48.000Z</time>
      </trkpt>
      <trkpt lat="48.70457" lon="1.7613">
        <ele>174.39999389648</ele>
        <time>2012-12-31T12:28:50.000Z</time>
      </trkpt>
      <trkpt lat="48.7046" lon="1.76118">
        <ele>174.39999389648</ele>
        <time>2012-12-31T12:28:56.000Z</time>
      </trkpt>
      <trkpt lat="48.70461" lon="1.76115">
        <ele>174.39999389648</ele>
        <time>2012-12-31T12:28:58.000Z</time>
      </trkpt>
      <trkpt lat="48.70466" lon="1.76099">
        <ele>174.39999389648</ele>
        <time>2012-12-31T12:29:06.000Z</time>
      </trkpt>
      <trkpt lat="48.70467" lon="1.76094">
        <ele>174.39999389648</ele>
        <time>2012-12-31T12:29:08.000Z</time>
      </trkpt>
      <trkpt lat="48.7047" lon="1.76082">
        <ele>174.39999389648</ele>
        <time>2012-12-31T12:29:14.000Z</time>
      </trkpt>
      <trkpt lat="48.7047" lon="1.76073">
        <ele>175</ele>
        <time>2012-12-31T12:29:18.000Z</time>
      </trkpt>
      <trkpt lat="48.70471" lon="1.76069">
        <ele>175</ele>
        <time>2012-12-31T12:29:21.000Z</time>
      </trkpt>
      <trkpt lat="48.70472" lon="1.76058">
        <ele>175.60000610352</ele>
        <time>2012-12-31T12:29:27.000Z</time>
      </trkpt>
      <trkpt lat="48.70473" lon="1.76054">
        <ele>175.80000305176</ele>
        <time>2012-12-31T12:29:29.000Z</time>
      </trkpt>
      <trkpt lat="48.70476" lon="1.76043">
        <ele>176.39999389648</ele>
        <time>2012-12-31T12:29:35.000Z</time>
      </trkpt>
      <trkpt lat="48.70478" lon="1.76029">
        <ele>177</ele>
        <time>2012-12-31T12:29:42.000Z</time>
      </trkpt>
      <trkpt lat="48.70478" lon="1.76026">
        <ele>177.19999694824</ele>
        <time>2012-12-31T12:29:43.000Z</time>
      </trkpt>
      <trkpt lat="48.7048" lon="1.76017">
        <ele>177.60000610352</ele>
        <time>2012-12-31T12:29:48.000Z</time>
      </trkpt>
      <trkpt lat="48.70481" lon="1.76011">
        <ele>178</ele>
        <time>2012-12-31T12:29:52.000Z</time>
      </trkpt>
      <trkpt lat="48.70484" lon="1.75999">
        <ele>178.60000610352</ele>
        <time>2012-12-31T12:29:59.000Z</time>
      </trkpt>
      <trkpt lat="48.70489" lon="1.75987">
        <ele>179</ele>
        <time>2012-12-31T12:30:06.000Z</time>
      </trkpt>
      <trkpt lat="48.70493" lon="1.75973">
        <ele>179.39999389648</ele>
        <time>2012-12-31T12:30:12.000Z</time>
      </trkpt>
      <trkpt lat="48.70498" lon="1.75963">
        <ele>179.80000305176</ele>
        <time>2012-12-31T12:30:19.000Z</time>
      </trkpt>
      <trkpt lat="48.70499" lon="1.75956">
        <ele>180</ele>
        <time>2012-12-31T12:30:23.000Z</time>
      </trkpt>
      <trkpt lat="48.70504" lon="1.75948">
        <ele>180.19999694824</ele>
        <time>2012-12-31T12:30:28.000Z</time>
      </trkpt>
      <trkpt lat="48.70508" lon="1.7594">
        <ele>180.19999694824</ele>
        <time>2012-12-31T12:30:33.000Z</time>
      </trkpt>
      <trkpt lat="48.70511" lon="1.75935">
        <ele>180.19999694824</ele>
        <time>2012-12-31T12:30:36.000Z</time>
      </trkpt>
      <trkpt lat="48.70515" lon="1.7593">
        <ele>180.19999694824</ele>
        <time>2012-12-31T12:30:40.000Z</time>
      </trkpt>
      <trkpt lat="48.70521" lon="1.75921">
        <ele>180.19999694824</ele>
        <time>2012-12-31T12:30:47.000Z</time>
      </trkpt>
      <trkpt lat="48.70527" lon="1.75913">
        <ele>180</ele>
        <time>2012-12-31T12:30:53.000Z</time>
      </trkpt>
      <trkpt lat="48.70528" lon="1.75911">
        <ele>180</ele>
        <time>2012-12-31T12:30:54.000Z</time>
      </trkpt>
      <trkpt lat="48.70533" lon="1.75901">
        <ele>179.80000305176</ele>
        <time>2012-12-31T12:31:00.000Z</time>
      </trkpt>
      <trkpt lat="48.70535" lon="1.75895">
        <ele>179.60000610352</ele>
        <time>2012-12-31T12:31:04.000Z</time>
      </trkpt>
      <trkpt lat="48.70539" lon="1.75886">
        <ele>179.39999389648</ele>
        <time>2012-12-31T12:31:10.000Z</time>
      </trkpt>
      <trkpt lat="48.70545" lon="1.75876">
        <ele>179.19999694824</ele>
        <time>2012-12-31T12:31:18.000Z</time>
      </trkpt>
      <trkpt lat="48.70548" lon="1.75869">
        <ele>179</ele>
        <time>2012-12-31T12:31:23.000Z</time>
      </trkpt>
      <trkpt lat="48.70554" lon="1.75857">
        <ele>178.39999389648</ele>
        <time>2012-12-31T12:31:32.000Z</time>
      </trkpt>
      <trkpt lat="48.70559" lon="1.75847">
        <ele>178.19999694824</ele>
        <time>2012-12-31T12:31:39.000Z</time>
      </trkpt>
      <trkpt lat="48.70562" lon="1.75838">
        <ele>178</ele>
        <time>2012-12-31T12:31:45.000Z</time>
      </trkpt>
      <trkpt lat="48.70564" lon="1.75833">
        <ele>177.80000305176</ele>
        <time>2012-12-31T12:31:48.000Z</time>
      </trkpt>
      <trkpt lat="48.70568" lon="1.75824">
        <ele>177.60000610352</ele>
        <time>2012-12-31T12:31:54.000Z</time>
      </trkpt>
      <trkpt lat="48.70572" lon="1.75817">
        <ele>177.60000610352</ele>
        <time>2012-12-31T12:31:59.000Z</time>
      </trkpt>
      <trkpt lat="48.70578" lon="1.75805">
        <ele>177.39999389648</ele>
        <time>2012-12-31T12:32:07.000Z</time>
      </trkpt>
      <trkpt lat="48.70585" lon="1.75793">
        <ele>177.19999694824</ele>
        <time>2012-12-31T12:32:16.000Z</time>
      </trkpt>
      <trkpt lat="48.7059" lon="1.75786">
        <ele>177.19999694824</ele>
        <time>2012-12-31T12:32:23.000Z</time>
      </trkpt>
      <trkpt lat="48.70597" lon="1.75779">
        <ele>177</ele>
        <time>2012-12-31T12:32:30.000Z</time>
      </trkpt>
      <trkpt lat="48.706" lon="1.75773">
        <ele>177.19999694824</ele>
        <time>2012-12-31T12:32:35.000Z</time>
      </trkpt>
      <trkpt lat="48.706" lon="1.75773">
        <ele>177.19999694824</ele>
        <time>2012-12-31T12:32:36.000Z</time>
      </trkpt>
      <trkpt lat="48.70612" lon="1.75755">
        <ele>177</ele>
        <time>2012-12-31T12:32:55.000Z</time>
      </trkpt>
      <trkpt lat="48.70621" lon="1.75746">
        <ele>176.80000305176</ele>
        <time>2012-12-31T12:33:02.000Z</time>
      </trkpt>
      <trkpt lat="48.70626" lon="1.75734">
        <ele>177</ele>
        <time>2012-12-31T12:33:09.000Z</time>
      </trkpt>
      <trkpt lat="48.70629" lon="1.75718">
        <ele>177.39999389648</ele>
        <time>2012-12-31T12:33:18.000Z</time>
      </trkpt>
      <trkpt lat="48.70631" lon="1.75713">
        <ele>177.39999389648</ele>
        <time>2012-12-31T12:33:24.000Z</time>
      </trkpt>
      <trkpt lat="48.70644" lon="1.75664">
        <ele>177.60000610352</ele>
        <time>2012-12-31T12:35:21.000Z</time>
      </trkpt>
      <trkpt lat="48.70643" lon="1.75651">
        <ele>177.60000610352</ele>
        <time>2012-12-31T12:35:27.000Z</time>
      </trkpt>
      <trkpt lat="48.70644" lon="1.75637">
        <ele>177.39999389648</ele>
        <time>2012-12-31T12:35:33.000Z</time>
      </trkpt>
      <trkpt lat="48.70645" lon="1.75629">
        <ele>177.19999694824</ele>
        <time>2012-12-31T12:35:37.000Z</time>
      </trkpt>
      <trkpt lat="48.70648" lon="1.75617">
        <ele>176.80000305176</ele>
        <time>2012-12-31T12:35:43.000Z</time>
      </trkpt>
      <trkpt lat="48.70652" lon="1.75609">
        <ele>176.39999389648</ele>
        <time>2012-12-31T12:35:48.000Z</time>
      </trkpt>
      <trkpt lat="48.70657" lon="1.756">
        <ele>176</ele>
        <time>2012-12-31T12:35:53.000Z</time>
      </trkpt>
      <trkpt lat="48.70662" lon="1.75589">
        <ele>175.39999389648</ele>
        <time>2012-12-31T12:35:59.000Z</time>
      </trkpt>
      <trkpt lat="48.70661" lon="1.75584">
        <ele>175.39999389648</ele>
        <time>2012-12-31T12:36:01.000Z</time>
      </trkpt>
      <trkpt lat="48.70664" lon="1.75579">
        <ele>175</ele>
        <time>2012-12-31T12:36:04.000Z</time>
      </trkpt>
      <trkpt lat="48.70666" lon="1.7557">
        <ele>174.60000610352</ele>
        <time>2012-12-31T12:36:09.000Z</time>
      </trkpt>
      <trkpt lat="48.70671" lon="1.75559">
        <ele>174.19999694824</ele>
        <time>2012-12-31T12:36:16.000Z</time>
      </trkpt>
      <trkpt lat="48.70675" lon="1.75551">
        <ele>173.80000305176</ele>
        <time>2012-12-31T12:36:22.000Z</time>
      </trkpt>
      <trkpt lat="48.70682" lon="1.75537">
        <ele>173.39999389648</ele>
        <time>2012-12-31T12:36:31.000Z</time>
      </trkpt>
      <trkpt lat="48.70687" lon="1.75521">
        <ele>172.80000305176</ele>
        <time>2012-12-31T12:36:41.000Z</time>
      </trkpt>
      <trkpt lat="48.70688" lon="1.75519">
        <ele>172.80000305176</ele>
        <time>2012-12-31T12:36:42.000Z</time>
      </trkpt>
      <trkpt lat="48.70693" lon="1.75508">
        <ele>172.39999389648</ele>
        <time>2012-12-31T12:36:49.000Z</time>
      </trkpt>
      <trkpt lat="48.70698" lon="1.75497">
        <ele>172.19999694824</ele>
        <time>2012-12-31T12:36:56.000Z</time>
      </trkpt>
      <trkpt lat="48.70699" lon="1.75489">
        <ele>172</ele>
        <time>2012-12-31T12:37:01.000Z</time>
      </trkpt>
      <trkpt lat="48.70699" lon="1.75487">
        <ele>172</ele>
        <time>2012-12-31T12:37:04.000Z</time>
      </trkpt>
    </trkseg>
  </trk>
</gpx>